Time,TemperatureF,DewpointF,PressureIn,WindDirection,WindDirectionDegrees,WindSpeedMPH,WindSpeedGustMPH,Humidity,HourlyPrecipIn,Conditions,Clouds,dailyrainin,SoftwareType,DateUTC
2013-01-08 00:00:00,22.6,19.6,30.33,WSW,250,0.0,0.0,88,0.00,,CLR,0.00,VWS V14.01,2013-01-08 05:00:00,
2013-01-08 00:01:00,22.6,19.6,30.33,WSW,250,0.0,0.0,88,0.00,,FEW060,0.00,VWS V14.01,2013-01-08 05:01:00,
2013-01-08 00:02:00,22.4,19.4,30.33,WSW,250,0.0,0.0,88,0.00,,CLR,0.00,VWS V14.01,2013-01-08 05:02:00,
2013-01-08 00:03:00,22.4,19.4,30.33,WSW,250,0.0,0.0,88,0.00,,CLR,0.00,VWS V14.01,2013-01-08 05:03:00,
2013-01-08 00:05:00,22.3,19.3,30.33,WSW,250,0.0,0.0,88,0.00,,FEW060,0.00,VWS V14.01,2013-01-08 05:05:00,
2013-01-08 00:06:00,22.3,19.3,30.33,WSW,250,0.0,0.0,88,0.00,,FEW060,0.00,VWS V14.01,2013-01-08 05:06:00,
2013-01-08 00:08:00,22.4,19.4,30.33,WSW,250,0.0,0.0,88,0.00,,CLR,0.00,VWS V14.01,2013-01-08 05:08:00,
2013-01-08 00:09:00,22.4,19.4,30.33,WSW,250,0.0,0.0,88,0.00,,FEW060,0.00,VWS V14.01,2013-01-08 05:09:00,
2013-01-08 00:10:00,22.5,19.5,30.33,WSW,250,0.0,0.0,88,0.00,,FEW060,0.00,VWS V14.01,2013-01-08 05:10:00,
2013-01-08 00:13:00,22.5,19.5,30.33,WSW,250,0.0,0.0,88,0.00,,CLR,0.00,VWS V14.01,2013-01-08 05:13:00,
2013-01-08 00:14:00,22.5,19.5,30.33,WSW,250,0.0,0.0,88,0.00,,FEW060,0.00,VWS V14.01,2013-01-08 05:14:00,
2013-01-08 00:15:00,22.5,19.5,30.33,WSW,250,0.0,0.0,88,0.00,,FEW060,0.00,VWS V14.01,2013-01-08 05:15:00,
2013-01-08 00:16:00,22.6,19.6,30.33,WSW,250,0.0,0.0,88,0.00,,FEW060,0.00,VWS V14.01,2013-01-08 05:16:00,
2013-01-08 00:17:00,22.6,19.6,30.33,WSW,250,0.0,0.0,88,0.00,,FEW060,0.00,VWS V14.01,2013-01-08 05:17:00,
2013-01-08 00:18:00,22.7,19.7,30.33,WSW,250,0.0,0.0,88,0.00,,CLR,0.00,VWS V14.01,2013-01-08 05:18:00,
2013-01-08 00:19:00,22.7,19.7,30.33,WSW,250,0.0,0.0,88,0.00,,FEW060,0.00,VWS V14.01,2013-01-08 05:19:00,
2013-01-08 00:20:00,22.7,20.0,30.33,WSW,250,0.0,0.0,89,0.00,,FEW060,0.00,VWS V14.01,2013-01-08 05:20:00,
2013-01-08 00:22:00,22.8,20.0,30.33,WSW,250,0.0,0.0,89,0.00,,FEW060,0.00,VWS V14.01,2013-01-08 05:22:00,
2013-01-08 00:23:00,22.9,19.9,30.33,WSW,250,0.0,0.0,88,0.00,,CLR,0.00,VWS V14.01,2013-01-08 05:23:00,
2013-01-08 00:25:00,22.9,19.9,30.33,WSW,250,0.0,0.0,88,0.00,,FEW060,0.00,VWS V14.01,2013-01-08 05:25:00,
2013-01-08 00:26:00,22.9,19.9,30.33,WSW,250,0.0,0.0,88,0.00,,FEW060,0.00,VWS V14.01,2013-01-08 05:26:00,
2013-01-08 00:27:00,22.9,19.9,30.33,WSW,250,0.0,0.0,88,0.00,,FEW060,0.00,VWS V14.01,2013-01-08 05:27:00,
2013-01-08 00:28:00,23.0,20.0,30.33,WSW,250,0.0,0.0,88,0.00,,CLR,0.00,VWS V14.01,2013-01-08 05:28:00,
2013-01-08 00:29:00,23.0,20.0,30.33,WSW,250,0.0,0.0,88,0.00,,FEW060,0.00,VWS V14.01,2013-01-08 05:29:00,
2013-01-08 00:30:00,23.1,20.1,30.33,WSW,250,0.0,0.0,88,0.00,,FEW060,0.00,VWS V14.01,2013-01-08 05:30:00,
2013-01-08 00:31:00,23.1,20.1,30.33,WSW,250,0.0,0.0,88,0.00,,FEW060,0.00,VWS V14.01,2013-01-08 05:31:00,
2013-01-08 00:32:00,23.1,20.1,30.33,WSW,250,0.0,0.0,88,0.00,,FEW060,0.00,VWS V14.01,2013-01-08 05:32:00,
2013-01-08 00:33:00,23.2,20.2,30.33,WSW,250,0.0,0.0,88,0.00,,CLR,0.00,VWS V14.01,2013-01-08 05:33:00,
2013-01-08 00:34:00,23.2,20.2,30.33,WSW,250,0.0,0.0,88,0.00,,FEW060,0.00,VWS V14.01,2013-01-08 05:34:00,
2013-01-08 00:35:00,23.3,20.3,30.32,WSW,250,0.0,0.0,88,0.00,,FEW060,0.00,VWS V14.01,2013-01-08 05:35:00,
2013-01-08 00:36:00,23.5,20.5,30.32,WSW,250,0.0,0.0,88,0.00,,FEW060,0.00,VWS V14.01,2013-01-08 05:36:00,
2013-01-08 00:37:00,23.6,20.3,30.32,WSW,250,0.0,2.0,87,0.00,,FEW060,0.00,VWS V14.01,2013-01-08 05:37:00,
2013-01-08 00:38:00,24.0,20.7,30.33,WSW,250,0.0,0.0,87,0.00,,CLR,0.00,VWS V14.01,2013-01-08 05:38:00,
2013-01-08 00:39:00,24.0,20.7,30.33,WSW,250,0.0,1.0,87,0.00,,FEW060,0.00,VWS V14.01,2013-01-08 05:39:00,
2013-01-08 00:40:00,24.1,20.8,30.33,WSW,250,1.0,1.0,87,0.00,,FEW060,0.00,VWS V14.01,2013-01-08 05:40:00,
2013-01-08 00:41:00,24.2,20.9,30.33,WSW,250,1.0,1.0,87,0.00,,FEW060,0.00,VWS V14.01,2013-01-08 05:41:00,
2013-01-08 00:42:00,24.4,21.1,30.33,SW,232,1.0,1.0,87,0.00,,FEW060,0.00,VWS V14.01,2013-01-08 05:42:00,
2013-01-08 00:43:00,24.7,21.1,30.33,WSW,250,1.0,1.0,86,0.00,,CLR,0.00,VWS V14.01,2013-01-08 05:43:00,
2013-01-08 00:44:00,24.6,21.0,30.33,WSW,257,0.0,3.0,86,0.00,,FEW060,0.00,VWS V14.01,2013-01-08 05:44:00,
2013-01-08 00:45:00,24.7,21.1,30.33,WSW,252,1.0,1.0,86,0.00,,FEW060,0.00,VWS V14.01,2013-01-08 05:45:00,
2013-01-08 00:46:00,24.9,21.3,30.33,WSW,250,0.0,1.0,86,0.00,,FEW060,0.00,VWS V14.01,2013-01-08 05:46:00,
2013-01-08 00:47:00,24.9,21.6,30.32,NW,304,2.0,2.0,87,0.00,,FEW060,0.00,VWS V14.01,2013-01-08 05:47:00,
2013-01-08 00:48:00,25.2,21.9,30.33,WSW,250,1.0,1.0,87,0.00,,CLR,0.00,VWS V14.01,2013-01-08 05:48:00,
2013-01-08 00:50:00,25.3,22.0,30.33,SSE,154,1.0,1.0,87,0.00,,FEW060,0.00,VWS V14.01,2013-01-08 05:50:00,
2013-01-08 00:51:00,25.3,22.0,30.32,WSW,240,1.0,1.0,87,0.00,,FEW060,0.00,VWS V14.01,2013-01-08 05:51:00,
2013-01-08 00:52:00,25.4,22.1,30.32,West,266,1.0,1.0,87,0.00,,FEW060,0.00,VWS V14.01,2013-01-08 05:52:00,
2013-01-08 00:53:00,25.5,22.2,30.32,WSW,253,1.0,1.0,87,0.00,,FEW060,0.00,VWS V14.01,2013-01-08 05:53:00,
2013-01-08 00:54:00,25.6,22.3,30.32,SSW,205,1.0,2.0,87,0.00,,CLR,0.00,VWS V14.01,2013-01-08 05:54:00,
2013-01-08 00:55:00,25.6,22.3,30.32,SSW,207,0.0,2.0,87,0.00,,FEW060,0.00,VWS V14.01,2013-01-08 05:55:00,
2013-01-08 00:56:00,25.7,22.4,30.32,SW,235,1.0,3.0,87,0.00,,FEW060,0.00,VWS V14.01,2013-01-08 05:56:00,
2013-01-08 00:57:00,25.8,22.5,30.32,SSW,213,0.0,1.0,87,0.00,,FEW060,0.00,VWS V14.01,2013-01-08 05:57:00,
2013-01-08 00:58:00,25.9,22.6,30.32,SW,224,0.0,2.0,87,0.00,,FEW060,0.00,VWS V14.01,2013-01-08 05:58:00,
2013-01-08 00:59:00,26.1,22.8,30.33,West,263,0.0,1.0,87,0.00,,CLR,0.00,VWS V14.01,2013-01-08 05:59:00,
2013-01-08 01:00:00,26.1,22.8,30.32,West,263,0.0,1.0,87,0.00,,FEW060,0.00,VWS V14.01,2013-01-08 06:00:00,
2013-01-08 01:01:00,26.2,22.9,30.32,WSW,256,1.0,3.0,87,0.00,,FEW060,0.00,VWS V14.01,2013-01-08 06:01:00,
2013-01-08 01:02:00,26.3,23.0,30.32,WSW,249,1.0,1.0,87,0.00,,FEW060,0.00,VWS V14.01,2013-01-08 06:02:00,
2013-01-08 01:03:00,26.3,23.0,30.32,WSW,240,1.0,1.0,87,0.00,,FEW060,0.00,VWS V14.01,2013-01-08 06:03:00,
2013-01-08 01:04:00,26.5,23.2,30.32,WSW,238,0.0,2.0,87,0.00,,CLR,0.00,VWS V14.01,2013-01-08 06:04:00,
2013-01-08 01:05:00,26.5,23.2,30.32,WSW,238,0.0,2.0,87,0.00,,FEW060,0.00,VWS V14.01,2013-01-08 06:05:00,
2013-01-08 01:06:00,26.6,23.3,30.32,WSW,240,1.0,5.0,87,0.00,,FEW060,0.00,VWS V14.01,2013-01-08 06:06:00,
2013-01-08 01:07:00,26.7,23.4,30.32,WSW,248,1.0,1.0,87,0.00,,FEW060,0.00,VWS V14.01,2013-01-08 06:07:00,
2013-01-08 01:08:00,26.7,23.4,30.32,WSW,248,3.0,4.0,87,0.00,,FEW060,0.00,VWS V14.01,2013-01-08 06:08:00,
2013-01-08 01:09:00,27.0,23.6,30.32,WSW,257,1.0,3.0,87,0.00,,CLR,0.00,VWS V14.01,2013-01-08 06:09:00,
2013-01-08 01:10:00,27.0,23.6,30.32,WSW,257,1.0,3.0,87,0.00,,FEW060,0.00,VWS V14.01,2013-01-08 06:10:00,
2013-01-08 01:12:00,27.1,24.0,30.32,West,267,0.0,3.0,88,0.00,,FEW060,0.00,VWS V14.01,2013-01-08 06:12:00,
2013-01-08 01:13:00,27.2,24.1,30.32,West,273,0.0,2.0,88,0.00,,FEW060,0.00,VWS V14.01,2013-01-08 06:13:00,
2013-01-08 01:14:00,27.3,24.2,30.32,SW,229,1.0,1.0,88,0.00,,CLR,0.00,VWS V14.01,2013-01-08 06:14:00,
2013-01-08 01:15:00,27.3,24.2,30.32,SW,229,1.0,1.0,88,0.00,,FEW060,0.00,VWS V14.01,2013-01-08 06:15:00,
2013-01-08 01:16:00,27.4,24.3,30.32,WSW,240,3.0,3.0,88,0.00,,FEW060,0.00,VWS V14.01,2013-01-08 06:16:00,
2013-01-08 01:17:00,27.5,24.4,30.32,WSW,248,2.0,4.0,88,0.00,,FEW060,0.00,VWS V14.01,2013-01-08 06:17:00,
2013-01-08 01:18:00,27.5,24.4,30.32,WSW,250,0.0,2.0,88,0.00,,FEW060,0.00,VWS V14.01,2013-01-08 06:18:00,
2013-01-08 01:19:00,27.6,24.5,30.32,SW,231,1.0,3.0,88,0.00,,CLR,0.00,VWS V14.01,2013-01-08 06:19:00,
2013-01-08 01:20:00,27.6,24.5,30.32,SW,231,1.0,3.0,88,0.00,,FEW060,0.00,VWS V14.01,2013-01-08 06:20:00,
2013-01-08 01:21:00,27.7,24.6,30.32,WSW,240,1.0,4.0,88,0.00,,FEW060,0.00,VWS V14.01,2013-01-08 06:21:00,
2013-01-08 01:22:00,27.7,24.6,30.32,West,260,1.0,2.0,88,0.00,,FEW060,0.00,VWS V14.01,2013-01-08 06:22:00,
2013-01-08 01:23:00,27.7,24.6,30.32,SW,229,1.0,2.0,88,0.00,,FEW060,0.00,VWS V14.01,2013-01-08 06:23:00,
2013-01-08 01:24:00,27.7,24.6,30.31,West,260,1.0,2.0,88,0.00,,CLR,0.00,VWS V14.01,2013-01-08 06:24:00,
2013-01-08 01:25:00,27.7,24.6,30.31,West,260,1.0,2.0,88,0.00,,FEW060,0.00,VWS V14.01,2013-01-08 06:25:00,
2013-01-08 01:26:00,27.7,24.6,30.31,WSW,243,3.0,3.0,88,0.00,,FEW060,0.00,VWS V14.01,2013-01-08 06:26:00,
2013-01-08 01:27:00,27.8,24.7,30.32,WSW,252,2.0,3.0,88,0.00,,FEW060,0.00,VWS V14.01,2013-01-08 06:27:00,
2013-01-08 01:28:00,27.8,24.7,30.32,WSW,255,1.0,2.0,88,0.00,,FEW060,0.00,VWS V14.01,2013-01-08 06:28:00,
2013-01-08 01:29:00,27.8,24.7,30.31,WSW,255,2.0,2.0,88,0.00,,CLR,0.00,VWS V14.01,2013-01-08 06:29:00,
2013-01-08 01:30:00,27.8,24.7,30.31,WSW,255,2.0,2.0,88,0.00,,FEW060,0.00,VWS V14.01,2013-01-08 06:30:00,
2013-01-08 01:31:00,27.8,24.7,30.31,WSW,238,3.0,3.0,88,0.00,,FEW060,0.00,VWS V14.01,2013-01-08 06:31:00,
2013-01-08 01:32:00,27.8,24.7,30.31,WSW,252,2.0,3.0,88,0.00,,FEW060,0.00,VWS V14.01,2013-01-08 06:32:00,
2013-01-08 01:33:00,27.8,24.7,30.31,West,270,2.0,2.0,88,0.00,,FEW060,0.00,VWS V14.01,2013-01-08 06:33:00,
2013-01-08 01:34:00,27.8,24.7,30.31,West,271,0.0,0.0,88,0.00,,CLR,0.00,VWS V14.01,2013-01-08 06:34:00,
2013-01-08 01:35:00,27.8,24.7,30.31,West,271,0.0,0.0,88,0.00,,FEW060,0.00,VWS V14.01,2013-01-08 06:35:00,
2013-01-08 01:36:00,27.7,24.6,30.31,West,271,0.0,1.0,88,0.00,,FEW060,0.00,VWS V14.01,2013-01-08 06:36:00,
2013-01-08 01:37:00,27.7,24.6,30.31,SW,224,0.0,1.0,88,0.00,,FEW060,0.00,VWS V14.01,2013-01-08 06:37:00,
2013-01-08 01:38:00,27.7,24.6,30.31,WSW,248,0.0,2.0,88,0.00,,FEW060,0.00,VWS V14.01,2013-01-08 06:38:00,
2013-01-08 01:39:00,27.7,24.6,30.31,WSW,249,2.0,3.0,88,0.00,,CLR,0.00,VWS V14.01,2013-01-08 06:39:00,
2013-01-08 01:40:00,27.7,24.6,30.31,WSW,249,2.0,3.0,88,0.00,,FEW060,0.00,VWS V14.01,2013-01-08 06:40:00,
2013-01-08 01:41:00,27.7,24.6,30.31,SSE,156,0.0,2.0,88,0.00,,FEW060,0.00,VWS V14.01,2013-01-08 06:41:00,
2013-01-08 01:42:00,27.7,24.6,30.31,WSW,255,2.0,2.0,88,0.00,,FEW060,0.00,VWS V14.01,2013-01-08 06:42:00,
2013-01-08 01:43:00,27.7,24.6,30.31,West,263,0.0,2.0,88,0.00,,FEW060,0.00,VWS V14.01,2013-01-08 06:43:00,
2013-01-08 01:44:00,27.7,24.6,30.31,WSW,252,0.0,1.0,88,0.00,,CLR,0.00,VWS V14.01,2013-01-08 06:44:00,
2013-01-08 01:45:00,27.7,24.6,30.31,WSW,252,0.0,1.0,88,0.00,,FEW060,0.00,VWS V14.01,2013-01-08 06:45:00,
2013-01-08 01:46:00,27.7,24.6,30.31,WSW,255,0.0,1.0,88,0.00,,FEW060,0.00,VWS V14.01,2013-01-08 06:46:00,
2013-01-08 01:47:00,27.7,24.6,30.31,WSW,240,1.0,1.0,88,0.00,,FEW060,0.00,VWS V14.01,2013-01-08 06:47:00,
2013-01-08 01:48:00,27.6,24.5,30.31,WSW,250,0.0,1.0,88,0.00,,FEW060,0.00,VWS V14.01,2013-01-08 06:48:00,
2013-01-08 01:49:00,27.6,24.5,30.31,SW,215,1.0,1.0,88,0.00,,CLR,0.00,VWS V14.01,2013-01-08 06:49:00,
2013-01-08 01:50:00,27.6,24.5,30.31,SW,215,1.0,1.0,88,0.00,,FEW060,0.00,VWS V14.01,2013-01-08 06:50:00,
2013-01-08 01:51:00,27.7,24.6,30.31,WSW,240,1.0,2.0,88,0.00,,FEW060,0.00,VWS V14.01,2013-01-08 06:51:00,
2013-01-08 01:52:00,27.7,24.6,30.31,WNW,284,2.0,2.0,88,0.00,,FEW060,0.00,VWS V14.01,2013-01-08 06:52:00,
2013-01-08 01:53:00,27.7,24.6,30.31,WSW,252,0.0,2.0,88,0.00,,FEW060,0.00,VWS V14.01,2013-01-08 06:53:00,
2013-01-08 01:54:00,27.8,24.7,30.31,WSW,240,0.0,1.0,88,0.00,,CLR,0.00,VWS V14.01,2013-01-08 06:54:00,
2013-01-08 01:55:00,27.8,24.7,30.31,WSW,240,0.0,1.0,88,0.00,,FEW060,0.00,VWS V14.01,2013-01-08 06:55:00,
2013-01-08 01:56:00,27.8,24.7,30.31,WSW,248,2.0,3.0,88,0.00,,FEW060,0.00,VWS V14.01,2013-01-08 06:56:00,
2013-01-08 01:57:00,27.8,24.7,30.31,West,271,2.0,2.0,88,0.00,,FEW060,0.00,VWS V14.01,2013-01-08 06:57:00,
2013-01-08 01:58:00,27.8,24.7,30.31,SSW,212,0.0,2.0,88,0.00,,FEW060,0.00,VWS V14.01,2013-01-08 06:58:00,
2013-01-08 01:59:00,27.8,24.7,30.31,SSE,152,1.0,3.0,88,0.00,,CLR,0.00,VWS V14.01,2013-01-08 06:59:00,
2013-01-08 02:00:00,27.8,24.7,30.31,SSE,152,1.0,3.0,88,0.00,,FEW060,0.00,VWS V14.01,2013-01-08 07:00:00,
2013-01-08 02:01:00,27.9,24.8,30.30,SW,229,2.0,2.0,88,0.00,,FEW060,0.00,VWS V14.01,2013-01-08 07:01:00,
2013-01-08 02:02:00,27.8,24.7,30.31,WSW,240,2.0,2.0,88,0.00,,FEW060,0.00,VWS V14.01,2013-01-08 07:02:00,
2013-01-08 02:03:00,27.8,24.7,30.31,WSW,245,1.0,2.0,88,0.00,,FEW060,0.00,VWS V14.01,2013-01-08 07:03:00,
2013-01-08 02:04:00,27.8,24.7,30.31,WSW,238,2.0,2.0,88,0.00,,CLR,0.00,VWS V14.01,2013-01-08 07:04:00,
2013-01-08 02:05:00,27.8,24.7,30.31,WSW,238,2.0,2.0,88,0.00,,FEW060,0.00,VWS V14.01,2013-01-08 07:05:00,
2013-01-08 02:06:00,27.8,24.7,30.31,West,273,0.0,2.0,88,0.00,,FEW060,0.00,VWS V14.01,2013-01-08 07:06:00,
2013-01-08 02:07:00,27.8,24.7,30.31,WSW,256,1.0,3.0,88,0.00,,FEW060,0.00,VWS V14.01,2013-01-08 07:07:00,
2013-01-08 02:08:00,27.8,24.7,30.30,South,177,1.0,3.0,88,0.00,,FEW060,0.00,VWS V14.01,2013-01-08 07:08:00,
2013-01-08 02:09:00,27.9,24.8,30.30,SSW,201,3.0,5.0,88,0.00,,CLR,0.00,VWS V14.01,2013-01-08 07:09:00,
2013-01-08 02:10:00,27.9,24.8,30.30,SSW,201,3.0,5.0,88,0.00,,FEW060,0.00,VWS V14.01,2013-01-08 07:10:00,
2013-01-08 02:11:00,27.9,24.8,30.31,West,278,2.0,3.0,88,0.00,,FEW060,0.00,VWS V14.01,2013-01-08 07:11:00,
2013-01-08 02:12:00,28.0,24.9,30.30,WSW,245,3.0,3.0,88,0.00,,FEW060,0.00,VWS V14.01,2013-01-08 07:12:00,
2013-01-08 02:13:00,28.0,24.9,30.30,SW,228,0.0,3.0,88,0.00,,FEW060,0.00,VWS V14.01,2013-01-08 07:13:00,
2013-01-08 02:14:00,28.0,24.9,30.30,West,269,1.0,2.0,88,0.00,,CLR,0.00,VWS V14.01,2013-01-08 07:14:00,
2013-01-08 02:15:00,28.0,24.9,30.30,West,269,1.0,2.0,88,0.00,,FEW060,0.00,VWS V14.01,2013-01-08 07:15:00,
2013-01-08 02:16:00,28.1,25.0,30.30,South,171,1.0,8.0,88,0.00,,FEW060,0.00,VWS V14.01,2013-01-08 07:16:00,
2013-01-08 02:17:00,28.1,25.0,30.30,WSW,245,1.0,2.0,88,0.00,,FEW060,0.00,VWS V14.01,2013-01-08 07:17:00,
2013-01-08 02:18:00,28.1,25.0,30.30,WSW,250,4.0,4.0,88,0.00,,FEW060,0.00,VWS V14.01,2013-01-08 07:18:00,
2013-01-08 02:19:00,28.1,25.0,30.30,WSW,246,2.0,2.0,88,0.00,,CLR,0.00,VWS V14.01,2013-01-08 07:19:00,
2013-01-08 02:20:00,28.1,25.0,30.30,WSW,246,2.0,2.0,88,0.00,,FEW060,0.00,VWS V14.01,2013-01-08 07:20:00,
2013-01-08 02:21:00,28.2,25.1,30.30,West,277,3.0,3.0,88,0.00,,FEW060,0.00,VWS V14.01,2013-01-08 07:21:00,
2013-01-08 02:22:00,28.2,25.1,30.30,SSW,212,1.0,3.0,88,0.00,,FEW060,0.00,VWS V14.01,2013-01-08 07:22:00,
2013-01-08 02:23:00,28.2,25.1,30.30,SW,233,0.0,3.0,88,0.00,,FEW060,0.00,VWS V14.01,2013-01-08 07:23:00,
2013-01-08 02:24:00,28.1,25.0,30.30,West,262,3.0,3.0,88,0.00,,CLR,0.00,VWS V14.01,2013-01-08 07:24:00,
2013-01-08 02:25:00,28.1,25.0,30.30,West,262,3.0,3.0,88,0.00,,FEW060,0.00,VWS V14.01,2013-01-08 07:25:00,
2013-01-08 02:26:00,28.2,25.1,30.30,SW,225,0.0,5.0,88,0.00,,FEW060,0.00,VWS V14.01,2013-01-08 07:26:00,
2013-01-08 02:27:00,28.2,25.1,30.30,SE,145,5.0,5.0,88,0.00,,FEW060,0.00,VWS V14.01,2013-01-08 07:27:00,
2013-01-08 02:28:00,28.2,25.1,30.30,West,269,2.0,4.0,88,0.00,,FEW060,0.00,VWS V14.01,2013-01-08 07:28:00,
2013-01-08 02:29:00,28.2,25.1,30.30,West,259,1.0,2.0,88,0.00,,CLR,0.00,VWS V14.01,2013-01-08 07:29:00,
2013-01-08 02:30:00,28.2,25.1,30.30,West,259,1.0,2.0,88,0.00,,FEW060,0.00,VWS V14.01,2013-01-08 07:30:00,
2013-01-08 02:31:00,28.2,25.1,30.30,West,264,1.0,1.0,88,0.00,,FEW060,0.00,VWS V14.01,2013-01-08 07:31:00,
2013-01-08 02:32:00,28.2,25.1,30.30,WSW,243,2.0,3.0,88,0.00,,FEW060,0.00,VWS V14.01,2013-01-08 07:32:00,
2013-01-08 02:33:00,28.3,25.2,30.30,WSW,255,3.0,7.0,88,0.00,,FEW060,0.00,VWS V14.01,2013-01-08 07:33:00,
2013-01-08 02:34:00,28.3,25.2,30.30,WSW,245,1.0,2.0,88,0.00,,CLR,0.00,VWS V14.01,2013-01-08 07:34:00,
2013-01-08 02:35:00,28.3,25.2,30.30,WSW,245,1.0,2.0,88,0.00,,FEW060,0.00,VWS V14.01,2013-01-08 07:35:00,
2013-01-08 02:36:00,28.3,25.2,30.30,WSW,243,1.0,2.0,88,0.00,,FEW060,0.00,VWS V14.01,2013-01-08 07:36:00,
2013-01-08 02:37:00,28.3,25.2,30.30,WSW,243,1.0,2.0,88,0.00,,FEW060,0.00,VWS V14.01,2013-01-08 07:37:00,
2013-01-08 02:38:00,28.3,25.2,30.30,West,263,2.0,3.0,88,0.00,,FEW060,0.00,VWS V14.01,2013-01-08 07:38:00,
2013-01-08 02:39:00,28.4,25.3,30.29,WSW,256,1.0,3.0,88,0.00,,CLR,0.00,VWS V14.01,2013-01-08 07:39:00,
2013-01-08 02:40:00,28.4,25.3,30.29,WSW,256,1.0,3.0,88,0.00,,FEW060,0.00,VWS V14.01,2013-01-08 07:40:00,
2013-01-08 02:41:00,28.4,25.3,30.29,WSW,246,1.0,2.0,88,0.00,,FEW060,0.00,VWS V14.01,2013-01-08 07:41:00,
2013-01-08 02:42:00,28.4,25.3,30.30,SSE,148,2.0,2.0,88,0.00,,FEW060,0.00,VWS V14.01,2013-01-08 07:42:00,
2013-01-08 02:43:00,28.4,25.3,30.29,ENE,71,1.0,2.0,88,0.00,,FEW060,0.00,VWS V14.01,2013-01-08 07:43:00,
2013-01-08 02:44:00,28.3,25.2,30.29,WSW,243,0.0,0.0,88,0.00,,CLR,0.00,VWS V14.01,2013-01-08 07:44:00,
2013-01-08 02:45:00,28.3,25.2,30.29,WSW,243,0.0,0.0,88,0.00,,FEW060,0.00,VWS V14.01,2013-01-08 07:45:00,
2013-01-08 02:46:00,28.3,25.2,30.29,WSW,256,2.0,3.0,88,0.00,,FEW060,0.00,VWS V14.01,2013-01-08 07:46:00,
2013-01-08 02:47:00,28.3,25.2,30.29,SW,224,4.0,4.0,88,0.00,,FEW060,0.00,VWS V14.01,2013-01-08 07:47:00,
2013-01-08 02:48:00,28.3,25.2,30.29,WSW,240,2.0,4.0,88,0.00,,FEW060,0.00,VWS V14.01,2013-01-08 07:48:00,
2013-01-08 02:49:00,28.3,25.2,30.29,SSW,205,2.0,2.0,88,0.00,,CLR,0.00,VWS V14.01,2013-01-08 07:49:00,
2013-01-08 02:50:00,28.3,25.2,30.29,SSW,205,2.0,2.0,88,0.00,,FEW060,0.00,VWS V14.01,2013-01-08 07:50:00,
2013-01-08 02:51:00,28.3,25.2,30.29,West,259,2.0,2.0,88,0.00,,FEW060,0.00,VWS V14.01,2013-01-08 07:51:00,
2013-01-08 02:52:00,28.3,25.2,30.29,WSW,240,1.0,3.0,88,0.00,,FEW060,0.00,VWS V14.01,2013-01-08 07:52:00,
2013-01-08 02:53:00,28.3,25.2,30.29,WSW,253,1.0,2.0,88,0.00,,FEW060,0.00,VWS V14.01,2013-01-08 07:53:00,
2013-01-08 02:54:00,28.3,25.2,30.29,SW,215,1.0,3.0,88,0.00,,CLR,0.00,VWS V14.01,2013-01-08 07:54:00,
2013-01-08 02:55:00,28.3,25.2,30.29,SW,215,1.0,3.0,88,0.00,,FEW060,0.00,VWS V14.01,2013-01-08 07:55:00,
2013-01-08 02:56:00,28.3,25.2,30.29,SW,215,1.0,2.0,88,0.00,,FEW060,0.00,VWS V14.01,2013-01-08 07:56:00,
2013-01-08 02:57:00,28.3,25.2,30.29,WSW,245,2.0,3.0,88,0.00,,FEW060,0.00,VWS V14.01,2013-01-08 07:57:00,
2013-01-08 02:58:00,28.2,25.1,30.29,SSW,197,0.0,3.0,88,0.00,,FEW060,0.00,VWS V14.01,2013-01-08 07:58:00,
2013-01-08 02:59:00,28.2,25.1,30.29,SSW,200,0.0,3.0,88,0.00,,CLR,0.00,VWS V14.01,2013-01-08 07:59:00,
2013-01-08 03:00:00,28.2,25.1,30.29,SSW,200,0.0,3.0,88,0.00,,FEW060,0.00,VWS V14.01,2013-01-08 08:00:00,
2013-01-08 03:01:00,28.2,25.1,30.29,West,271,1.0,6.0,88,0.00,,FEW060,0.00,VWS V14.01,2013-01-08 08:01:00,
2013-01-08 03:02:00,28.2,25.1,30.29,WSW,255,0.0,1.0,88,0.00,,FEW060,0.00,VWS V14.01,2013-01-08 08:02:00,
2013-01-08 03:03:00,28.2,25.1,30.29,WSW,243,0.0,2.0,88,0.00,,FEW060,0.00,VWS V14.01,2013-01-08 08:03:00,
2013-01-08 03:04:00,28.2,25.1,30.29,SW,229,1.0,4.0,88,0.00,,CLR,0.00,VWS V14.01,2013-01-08 08:04:00,
2013-01-08 03:05:00,28.2,25.1,30.29,SW,229,1.0,4.0,88,0.00,,FEW060,0.00,VWS V14.01,2013-01-08 08:05:00,
2013-01-08 03:06:00,28.2,25.1,30.29,WSW,253,0.0,2.0,88,0.00,,FEW060,0.00,VWS V14.01,2013-01-08 08:06:00,
2013-01-08 03:07:00,28.2,25.1,30.29,West,262,1.0,2.0,88,0.00,,FEW060,0.00,VWS V14.01,2013-01-08 08:07:00,
2013-01-08 03:08:00,28.2,25.1,30.29,West,259,1.0,4.0,88,0.00,,FEW060,0.00,VWS V14.01,2013-01-08 08:08:00,
2013-01-08 03:09:00,28.2,25.1,30.29,SW,215,2.0,3.0,88,0.00,,CLR,0.00,VWS V14.01,2013-01-08 08:09:00,
2013-01-08 03:10:00,28.2,25.1,30.29,SW,215,2.0,3.0,88,0.00,,FEW060,0.00,VWS V14.01,2013-01-08 08:10:00,
2013-01-08 03:11:00,28.2,25.1,30.29,WSW,240,2.0,2.0,88,0.00,,FEW060,0.00,VWS V14.01,2013-01-08 08:11:00,
2013-01-08 03:12:00,28.2,25.1,30.29,SW,236,2.0,5.0,88,0.00,,FEW060,0.00,VWS V14.01,2013-01-08 08:12:00,
2013-01-08 03:13:00,28.2,25.1,30.29,WNW,284,0.0,3.0,88,0.00,,FEW060,0.00,VWS V14.01,2013-01-08 08:13:00,
2013-01-08 03:14:00,28.2,25.1,30.29,WSW,256,3.0,3.0,88,0.00,,CLR,0.00,VWS V14.01,2013-01-08 08:14:00,
2013-01-08 03:15:00,28.2,25.1,30.29,WSW,256,3.0,3.0,88,0.00,,FEW060,0.00,VWS V14.01,2013-01-08 08:15:00,
2013-01-08 03:16:00,28.3,25.2,30.29,SW,235,2.0,3.0,88,0.00,,FEW060,0.00,VWS V14.01,2013-01-08 08:16:00,
2013-01-08 03:17:00,28.3,25.2,30.29,West,259,2.0,2.0,88,0.00,,FEW060,0.00,VWS V14.01,2013-01-08 08:17:00,
2013-01-08 03:18:00,28.3,25.2,30.29,WSW,255,1.0,2.0,88,0.00,,FEW060,0.00,VWS V14.01,2013-01-08 08:18:00,
2013-01-08 03:19:00,28.2,25.1,30.29,West,262,2.0,2.0,88,0.00,,CLR,0.00,VWS V14.01,2013-01-08 08:19:00,
2013-01-08 03:20:00,28.2,25.1,30.29,West,262,2.0,2.0,88,0.00,,FEW060,0.00,VWS V14.01,2013-01-08 08:20:00,
2013-01-08 03:21:00,28.2,25.1,30.29,WSW,240,1.0,3.0,88,0.00,,FEW060,0.00,VWS V14.01,2013-01-08 08:21:00,
2013-01-08 03:22:00,28.2,25.1,30.29,WSW,241,1.0,2.0,88,0.00,,FEW060,0.00,VWS V14.01,2013-01-08 08:22:00,
2013-01-08 03:23:00,28.1,25.0,30.29,West,264,2.0,2.0,88,0.00,,FEW060,0.00,VWS V14.01,2013-01-08 08:23:00,
2013-01-08 03:24:00,28.1,25.0,30.29,West,259,1.0,2.0,88,0.00,,CLR,0.00,VWS V14.01,2013-01-08 08:24:00,
2013-01-08 03:25:00,28.1,25.0,30.29,West,259,1.0,2.0,88,0.00,,FEW060,0.00,VWS V14.01,2013-01-08 08:25:00,
2013-01-08 03:26:00,28.0,24.9,30.29,SW,229,3.0,3.0,88,0.00,,FEW060,0.00,VWS V14.01,2013-01-08 08:26:00,
2013-01-08 03:27:00,28.1,25.0,30.29,West,263,1.0,5.0,88,0.00,,FEW060,0.00,VWS V14.01,2013-01-08 08:27:00,
2013-01-08 03:28:00,28.1,25.0,30.29,South,181,1.0,4.0,88,0.00,,FEW060,0.00,VWS V14.01,2013-01-08 08:28:00,
2013-01-08 03:29:00,28.1,25.0,30.29,SW,222,0.0,4.0,88,0.00,,CLR,0.00,VWS V14.01,2013-01-08 08:29:00,
2013-01-08 03:30:00,28.1,25.0,30.29,SW,222,0.0,4.0,88,0.00,,FEW060,0.00,VWS V14.01,2013-01-08 08:30:00,
2013-01-08 03:31:00,28.1,25.0,30.29,West,262,2.0,2.0,88,0.00,,FEW060,0.00,VWS V14.01,2013-01-08 08:31:00,
2013-01-08 03:32:00,28.1,25.0,30.29,West,262,2.0,5.0,88,0.00,,FEW060,0.00,VWS V14.01,2013-01-08 08:32:00,
2013-01-08 03:33:00,28.1,25.0,30.29,WSW,255,1.0,2.0,88,0.00,,FEW060,0.00,VWS V14.01,2013-01-08 08:33:00,
2013-01-08 03:34:00,28.1,25.0,30.29,WSW,248,3.0,4.0,88,0.00,,CLR,0.00,VWS V14.01,2013-01-08 08:34:00,
2013-01-08 03:35:00,28.1,25.0,30.29,WSW,248,3.0,4.0,88,0.00,,FEW060,0.00,VWS V14.01,2013-01-08 08:35:00,
2013-01-08 03:36:00,28.1,25.0,30.29,West,270,1.0,3.0,88,0.00,,FEW060,0.00,VWS V14.01,2013-01-08 08:36:00,
2013-01-08 03:37:00,28.2,25.1,30.29,West,263,2.0,2.0,88,0.00,,FEW060,0.00,VWS V14.01,2013-01-08 08:37:00,
2013-01-08 03:38:00,28.1,25.0,30.29,West,262,4.0,6.0,88,0.00,,FEW060,0.00,VWS V14.01,2013-01-08 08:38:00,
2013-01-08 03:39:00,28.1,25.0,30.29,WSW,257,3.0,4.0,88,0.00,,CLR,0.00,VWS V14.01,2013-01-08 08:39:00,
2013-01-08 03:40:00,28.1,25.0,30.29,WSW,257,3.0,4.0,88,0.00,,FEW060,0.00,VWS V14.01,2013-01-08 08:40:00,
2013-01-08 03:41:00,28.1,25.0,30.29,West,267,0.0,3.0,88,0.00,,FEW060,0.00,VWS V14.01,2013-01-08 08:41:00,
2013-01-08 03:42:00,28.1,25.0,30.28,WSW,250,2.0,4.0,88,0.00,,FEW060,0.00,VWS V14.01,2013-01-08 08:42:00,
2013-01-08 03:43:00,28.1,25.0,30.28,WSW,240,1.0,2.0,88,0.00,,FEW060,0.00,VWS V14.01,2013-01-08 08:43:00,
2013-01-08 03:44:00,28.1,25.0,30.28,West,262,2.0,2.0,88,0.00,,CLR,0.00,VWS V14.01,2013-01-08 08:44:00,
2013-01-08 03:45:00,28.1,25.0,30.28,West,262,2.0,2.0,88,0.00,,FEW060,0.00,VWS V14.01,2013-01-08 08:45:00,
2013-01-08 03:46:00,28.0,24.9,30.28,WSW,256,3.0,3.0,88,0.00,,FEW060,0.00,VWS V14.01,2013-01-08 08:46:00,
2013-01-08 03:47:00,28.0,24.9,30.28,WSW,253,1.0,4.0,88,0.00,,FEW060,0.00,VWS V14.01,2013-01-08 08:47:00,
2013-01-08 03:48:00,28.0,24.9,30.28,West,259,1.0,3.0,88,0.00,,FEW060,0.00,VWS V14.01,2013-01-08 08:48:00,
2013-01-08 03:49:00,28.0,24.9,30.28,WSW,253,0.0,2.0,88,0.00,,CLR,0.00,VWS V14.01,2013-01-08 08:49:00,
2013-01-08 03:50:00,28.0,24.9,30.28,WSW,253,0.0,2.0,88,0.00,,FEW060,0.00,VWS V14.01,2013-01-08 08:50:00,
2013-01-08 03:51:00,28.0,24.9,30.28,WSW,243,0.0,3.0,88,0.00,,FEW060,0.00,VWS V14.01,2013-01-08 08:51:00,
2013-01-08 03:52:00,28.0,24.9,30.28,WSW,240,2.0,3.0,88,0.00,,FEW060,0.00,VWS V14.01,2013-01-08 08:52:00,
2013-01-08 03:53:00,28.0,24.9,30.28,WSW,253,1.0,2.0,88,0.00,,FEW060,0.00,VWS V14.01,2013-01-08 08:53:00,
2013-01-08 03:54:00,27.9,24.8,30.28,WSW,257,1.0,2.0,88,0.00,,CLR,0.00,VWS V14.01,2013-01-08 08:54:00,
2013-01-08 03:55:00,27.9,24.8,30.28,WSW,257,1.0,2.0,88,0.00,,FEW060,0.00,VWS V14.01,2013-01-08 08:55:00,
2013-01-08 03:56:00,27.9,24.8,30.28,WSW,245,1.0,1.0,88,0.00,,FEW060,0.00,VWS V14.01,2013-01-08 08:56:00,
2013-01-08 03:57:00,27.8,24.7,30.28,West,274,1.0,2.0,88,0.00,,FEW060,0.00,VWS V14.01,2013-01-08 08:57:00,
2013-01-08 03:58:00,27.8,24.7,30.28,WSW,250,2.0,2.0,88,0.00,,FEW060,0.00,VWS V14.01,2013-01-08 08:58:00,
2013-01-08 03:59:00,27.8,24.7,30.27,SW,228,2.0,3.0,88,0.00,,CLR,0.00,VWS V14.01,2013-01-08 08:59:00,
2013-01-08 04:00:00,27.8,24.7,30.27,SW,228,2.0,3.0,88,0.00,,FEW060,0.00,VWS V14.01,2013-01-08 09:00:00,
2013-01-08 04:01:00,27.8,24.7,30.27,WNW,292,1.0,2.0,88,0.00,,FEW060,0.00,VWS V14.01,2013-01-08 09:01:00,
2013-01-08 04:02:00,27.8,24.7,30.27,WSW,248,3.0,6.0,88,0.00,,FEW060,0.00,VWS V14.01,2013-01-08 09:02:00,
2013-01-08 04:03:00,27.9,24.8,30.27,West,271,0.0,3.0,88,0.00,,FEW060,0.00,VWS V14.01,2013-01-08 09:03:00,
2013-01-08 04:04:00,27.8,24.7,30.27,West,264,2.0,3.0,88,0.00,,CLR,0.00,VWS V14.01,2013-01-08 09:04:00,
2013-01-08 04:05:00,27.8,24.7,30.27,West,264,2.0,3.0,88,0.00,,FEW060,0.00,VWS V14.01,2013-01-08 09:05:00,
2013-01-08 04:06:00,27.8,24.7,30.27,West,263,2.0,4.0,88,0.00,,FEW060,0.00,VWS V14.01,2013-01-08 09:06:00,
2013-01-08 04:07:00,27.9,24.8,30.27,WSW,238,1.0,3.0,88,0.00,,FEW060,0.00,VWS V14.01,2013-01-08 09:07:00,
2013-01-08 04:08:00,27.8,24.7,30.27,WSW,238,1.0,2.0,88,0.00,,FEW060,0.00,VWS V14.01,2013-01-08 09:08:00,
2013-01-08 04:09:00,27.8,24.7,30.27,WSW,240,1.0,2.0,88,0.00,,CLR,0.00,VWS V14.01,2013-01-08 09:09:00,
2013-01-08 04:10:00,27.8,24.7,30.27,WSW,240,1.0,2.0,88,0.00,,FEW060,0.00,VWS V14.01,2013-01-08 09:10:00,
2013-01-08 04:11:00,27.8,24.7,30.27,South,181,2.0,5.0,88,0.00,,FEW060,0.00,VWS V14.01,2013-01-08 09:11:00,
2013-01-08 04:12:00,27.8,24.7,30.27,SW,233,0.0,4.0,88,0.00,,FEW060,0.00,VWS V14.01,2013-01-08 09:12:00,
2013-01-08 04:13:00,27.8,24.7,30.27,West,266,0.0,3.0,88,0.00,,FEW060,0.00,VWS V14.01,2013-01-08 09:13:00,
2013-01-08 04:14:00,27.8,24.7,30.27,WNW,287,1.0,2.0,88,0.00,,CLR,0.00,VWS V14.01,2013-01-08 09:14:00,
2013-01-08 04:15:00,27.8,24.7,30.27,WNW,287,1.0,2.0,88,0.00,,FEW060,0.00,VWS V14.01,2013-01-08 09:15:00,
2013-01-08 04:16:00,27.8,24.7,30.27,West,269,0.0,1.0,88,0.00,,FEW060,0.00,VWS V14.01,2013-01-08 09:16:00,
2013-01-08 04:17:00,27.7,24.6,30.27,West,260,0.0,1.0,88,0.00,,FEW060,0.00,VWS V14.01,2013-01-08 09:17:00,
2013-01-08 04:18:00,27.7,24.6,30.27,SW,214,0.0,1.0,88,0.00,,FEW060,0.00,VWS V14.01,2013-01-08 09:18:00,
2013-01-08 04:19:00,27.7,24.6,30.27,SW,231,1.0,2.0,88,0.00,,CLR,0.00,VWS V14.01,2013-01-08 09:19:00,
2013-01-08 04:20:00,27.7,24.6,30.27,SW,231,1.0,2.0,88,0.00,,FEW060,0.00,VWS V14.01,2013-01-08 09:20:00,
2013-01-08 04:21:00,27.6,24.5,30.27,West,260,2.0,2.0,88,0.00,,FEW060,0.00,VWS V14.01,2013-01-08 09:21:00,
2013-01-08 04:22:00,27.6,24.5,30.27,WSW,252,1.0,2.0,88,0.00,,FEW060,0.00,VWS V14.01,2013-01-08 09:22:00,
2013-01-08 04:23:00,27.6,24.5,30.27,WSW,246,0.0,4.0,88,0.00,,FEW060,0.00,VWS V14.01,2013-01-08 09:23:00,
2013-01-08 04:24:00,27.6,24.5,30.27,WSW,255,3.0,4.0,88,0.00,,CLR,0.00,VWS V14.01,2013-01-08 09:24:00,
2013-01-08 04:25:00,27.6,24.5,30.27,WSW,255,3.0,4.0,88,0.00,,FEW060,0.00,VWS V14.01,2013-01-08 09:25:00,
2013-01-08 04:26:00,27.7,24.6,30.27,WSW,252,2.0,3.0,88,0.00,,FEW060,0.00,VWS V14.01,2013-01-08 09:26:00,
2013-01-08 04:27:00,27.7,24.6,30.27,SW,221,1.0,2.0,88,0.00,,FEW060,0.00,VWS V14.01,2013-01-08 09:27:00,
2013-01-08 04:28:00,27.6,24.5,30.27,SW,218,1.0,2.0,88,0.00,,FEW060,0.00,VWS V14.01,2013-01-08 09:28:00,
2013-01-08 04:29:00,27.7,24.6,30.26,WSW,249,0.0,2.0,88,0.00,,CLR,0.00,VWS V14.01,2013-01-08 09:29:00,
2013-01-08 04:30:00,27.7,24.6,30.26,WSW,249,0.0,2.0,88,0.00,,FEW060,0.00,VWS V14.01,2013-01-08 09:30:00,
2013-01-08 04:31:00,27.7,24.6,30.26,WSW,238,2.0,4.0,88,0.00,,FEW060,0.00,VWS V14.01,2013-01-08 09:31:00,
2013-01-08 04:32:00,27.7,24.6,30.26,WNW,290,1.0,2.0,88,0.00,,FEW060,0.00,VWS V14.01,2013-01-08 09:32:00,
2013-01-08 04:33:00,27.6,24.5,30.27,WSW,252,1.0,1.0,88,0.00,,FEW060,0.00,VWS V14.01,2013-01-08 09:33:00,
2013-01-08 04:34:00,27.6,24.5,30.26,SSW,207,1.0,2.0,88,0.00,,CLR,0.00,VWS V14.01,2013-01-08 09:34:00,
2013-01-08 04:35:00,27.6,24.5,30.26,SSW,207,1.0,2.0,88,0.00,,FEW060,0.00,VWS V14.01,2013-01-08 09:35:00,
2013-01-08 04:36:00,27.6,24.5,30.27,WSW,257,0.0,2.0,88,0.00,,FEW060,0.00,VWS V14.01,2013-01-08 09:36:00,
2013-01-08 04:37:00,27.6,24.5,30.27,South,176,1.0,1.0,88,0.00,,FEW060,0.00,VWS V14.01,2013-01-08 09:37:00,
2013-01-08 04:38:00,27.6,24.5,30.27,SSW,195,2.0,2.0,88,0.00,,FEW060,0.00,VWS V14.01,2013-01-08 09:38:00,
2013-01-08 04:39:00,27.5,24.4,30.27,West,259,1.0,1.0,88,0.00,,CLR,0.00,VWS V14.01,2013-01-08 09:39:00,
2013-01-08 04:40:00,27.5,24.4,30.27,West,259,1.0,1.0,88,0.00,,FEW060,0.00,VWS V14.01,2013-01-08 09:40:00,
2013-01-08 04:41:00,27.6,24.5,30.27,West,259,0.0,3.0,88,0.00,,FEW060,0.00,VWS V14.01,2013-01-08 09:41:00,
2013-01-08 04:42:00,27.6,24.5,30.27,West,264,0.0,1.0,88,0.00,,FEW060,0.00,VWS V14.01,2013-01-08 09:42:00,
2013-01-08 04:43:00,27.6,24.5,30.27,SW,228,1.0,1.0,88,0.00,,FEW060,0.00,VWS V14.01,2013-01-08 09:43:00,
2013-01-08 04:44:00,27.5,24.4,30.27,West,259,1.0,1.0,88,0.00,,CLR,0.00,VWS V14.01,2013-01-08 09:44:00,
2013-01-08 04:45:00,27.5,24.4,30.27,West,259,1.0,1.0,88,0.00,,FEW060,0.00,VWS V14.01,2013-01-08 09:45:00,
2013-01-08 04:46:00,27.5,24.4,30.27,West,259,0.0,1.0,88,0.00,,FEW060,0.00,VWS V14.01,2013-01-08 09:46:00,
2013-01-08 04:47:00,27.5,24.4,30.27,WSW,247,1.0,1.0,88,0.00,,FEW060,0.00,VWS V14.01,2013-01-08 09:47:00,
2013-01-08 04:48:00,27.5,24.4,30.26,West,262,0.0,2.0,88,0.00,,FEW060,0.00,VWS V14.01,2013-01-08 09:48:00,
2013-01-08 04:49:00,27.5,24.4,30.27,West,269,1.0,1.0,88,0.00,,CLR,0.00,VWS V14.01,2013-01-08 09:49:00,
2013-01-08 04:50:00,27.5,24.4,30.27,West,269,1.0,1.0,88,0.00,,FEW060,0.00,VWS V14.01,2013-01-08 09:50:00,
2013-01-08 04:51:00,27.5,24.4,30.27,West,263,1.0,1.0,88,0.00,,FEW060,0.00,VWS V14.01,2013-01-08 09:51:00,
2013-01-08 04:52:00,27.4,24.3,30.27,West,263,0.0,1.0,88,0.00,,FEW060,0.00,VWS V14.01,2013-01-08 09:52:00,
2013-01-08 04:53:00,27.4,24.3,30.27,West,264,0.0,1.0,88,0.00,,FEW060,0.00,VWS V14.01,2013-01-08 09:53:00,
2013-01-08 04:54:00,27.3,24.2,30.27,WSW,257,0.0,1.0,88,0.00,,CLR,0.00,VWS V14.01,2013-01-08 09:54:00,
2013-01-08 04:55:00,27.3,24.2,30.27,WSW,257,0.0,1.0,88,0.00,,FEW060,0.00,VWS V14.01,2013-01-08 09:55:00,
2013-01-08 04:56:00,27.3,24.2,30.27,West,259,0.0,1.0,88,0.00,,FEW060,0.00,VWS V14.01,2013-01-08 09:56:00,
2013-01-08 04:57:00,27.3,24.2,30.27,WSW,257,1.0,1.0,88,0.00,,FEW060,0.00,VWS V14.01,2013-01-08 09:57:00,
2013-01-08 04:58:00,27.3,24.2,30.27,West,260,0.0,1.0,88,0.00,,FEW060,0.00,VWS V14.01,2013-01-08 09:58:00,
2013-01-08 04:59:00,27.3,24.2,30.27,West,262,1.0,1.0,88,0.00,,CLR,0.00,VWS V14.01,2013-01-08 09:59:00,
2013-01-08 05:00:00,27.3,24.2,30.27,West,262,1.0,1.0,88,0.00,,FEW060,0.00,VWS V14.01,2013-01-08 10:00:00,
2013-01-08 05:02:00,27.2,24.1,30.27,West,262,0.0,1.0,88,0.00,,FEW060,0.00,VWS V14.01,2013-01-08 10:02:00,
2013-01-08 05:03:00,27.2,24.1,30.27,West,259,0.0,2.0,88,0.00,,FEW060,0.00,VWS V14.01,2013-01-08 10:03:00,
2013-01-08 05:04:00,27.3,24.2,30.26,West,267,0.0,1.0,88,0.00,,CLR,0.00,VWS V14.01,2013-01-08 10:04:00,
2013-01-08 05:05:00,27.3,24.2,30.26,West,267,0.0,1.0,88,0.00,,FEW060,0.00,VWS V14.01,2013-01-08 10:05:00,
2013-01-08 05:06:00,27.2,24.1,30.26,West,259,1.0,1.0,88,0.00,,FEW060,0.00,VWS V14.01,2013-01-08 10:06:00,
2013-01-08 05:07:00,27.2,24.1,30.27,West,260,0.0,1.0,88,0.00,,FEW060,0.00,VWS V14.01,2013-01-08 10:07:00,
2013-01-08 05:08:00,27.2,24.1,30.26,West,260,1.0,1.0,88,0.00,,FEW060,0.00,VWS V14.01,2013-01-08 10:08:00,
2013-01-08 05:09:00,27.1,24.0,30.27,West,260,0.0,1.0,88,0.00,,CLR,0.00,VWS V14.01,2013-01-08 10:09:00,
2013-01-08 05:10:00,27.1,24.0,30.27,West,260,0.0,1.0,88,0.00,,FEW060,0.00,VWS V14.01,2013-01-08 10:10:00,
2013-01-08 05:11:00,27.1,24.0,30.27,West,259,1.0,2.0,88,0.00,,FEW060,0.00,VWS V14.01,2013-01-08 10:11:00,
2013-01-08 05:12:00,27.1,24.0,30.27,West,274,1.0,1.0,88,0.00,,FEW060,0.00,VWS V14.01,2013-01-08 10:12:00,
2013-01-08 05:13:00,27.1,24.0,30.27,West,274,0.0,1.0,88,0.00,,FEW060,0.00,VWS V14.01,2013-01-08 10:13:00,
2013-01-08 05:14:00,27.1,24.0,30.27,West,261,0.0,1.0,88,0.00,,CLR,0.00,VWS V14.01,2013-01-08 10:14:00,
2013-01-08 05:15:00,27.1,24.0,30.27,West,261,0.0,1.0,88,0.00,,FEW060,0.00,VWS V14.01,2013-01-08 10:15:00,
2013-01-08 05:16:00,27.0,23.9,30.27,WSW,256,0.0,1.0,88,0.00,,FEW060,0.00,VWS V14.01,2013-01-08 10:16:00,
2013-01-08 05:17:00,27.0,23.9,30.26,WSW,255,0.0,0.0,88,0.00,,FEW060,0.00,VWS V14.01,2013-01-08 10:17:00,
2013-01-08 05:18:00,26.9,23.8,30.26,WSW,248,0.0,1.0,88,0.00,,FEW060,0.00,VWS V14.01,2013-01-08 10:18:00,
2013-01-08 05:19:00,26.9,23.8,30.27,WSW,238,0.0,0.0,88,0.00,,CLR,0.00,VWS V14.01,2013-01-08 10:19:00,
2013-01-08 05:20:00,26.9,23.8,30.26,WSW,238,0.0,0.0,88,0.00,,FEW060,0.00,VWS V14.01,2013-01-08 10:20:00,
2013-01-08 05:21:00,26.9,23.8,30.27,WSW,249,0.0,0.0,88,0.00,,FEW060,0.00,VWS V14.01,2013-01-08 10:21:00,
2013-01-08 05:22:00,26.8,23.7,30.27,West,269,0.0,1.0,88,0.00,,FEW060,0.00,VWS V14.01,2013-01-08 10:22:00,
2013-01-08 05:23:00,26.8,23.7,30.26,West,268,0.0,0.0,88,0.00,,FEW060,0.00,VWS V14.01,2013-01-08 10:23:00,
2013-01-08 05:24:00,26.7,23.6,30.26,West,269,0.0,0.0,88,0.00,,CLR,0.00,VWS V14.01,2013-01-08 10:24:00,
2013-01-08 05:25:00,26.7,23.6,30.26,West,269,0.0,0.0,88,0.00,,FEW060,0.00,VWS V14.01,2013-01-08 10:25:00,
2013-01-08 05:26:00,26.7,23.6,30.26,West,269,0.0,0.0,88,0.00,,FEW060,0.00,VWS V14.01,2013-01-08 10:26:00,
2013-01-08 05:27:00,26.6,23.5,30.26,West,264,0.0,1.0,88,0.00,,FEW060,0.00,VWS V14.01,2013-01-08 10:27:00,
2013-01-08 05:28:00,26.6,23.5,30.26,West,264,0.0,0.0,88,0.00,,FEW060,0.00,VWS V14.01,2013-01-08 10:28:00,
2013-01-08 05:29:00,26.5,23.4,30.26,West,266,0.0,0.0,88,0.00,,CLR,0.00,VWS V14.01,2013-01-08 10:29:00,
2013-01-08 05:30:00,26.5,23.4,30.26,West,266,0.0,0.0,88,0.00,,FEW060,0.00,VWS V14.01,2013-01-08 10:30:00,
2013-01-08 05:31:00,26.4,23.3,30.26,West,264,0.0,1.0,88,0.00,,FEW060,0.00,VWS V14.01,2013-01-08 10:31:00,
2013-01-08 05:32:00,26.4,23.3,30.26,West,264,0.0,0.0,88,0.00,,FEW060,0.00,VWS V14.01,2013-01-08 10:32:00,
2013-01-08 05:33:00,26.4,23.3,30.26,West,264,0.0,1.0,88,0.00,,FEW060,0.00,VWS V14.01,2013-01-08 10:33:00,
2013-01-08 05:34:00,26.4,23.3,30.26,West,263,1.0,1.0,88,0.00,,CLR,0.00,VWS V14.01,2013-01-08 10:34:00,
2013-01-08 05:35:00,26.4,23.3,30.26,West,263,1.0,1.0,88,0.00,,FEW060,0.00,VWS V14.01,2013-01-08 10:35:00,
2013-01-08 05:36:00,26.3,23.2,30.26,WSW,252,0.0,1.0,88,0.00,,FEW060,0.00,VWS V14.01,2013-01-08 10:36:00,
2013-01-08 05:37:00,26.3,23.2,30.26,WSW,249,1.0,1.0,88,0.00,,FEW060,0.00,VWS V14.01,2013-01-08 10:37:00,
2013-01-08 05:38:00,26.4,23.3,30.26,SSW,203,0.0,1.0,88,0.00,,FEW060,0.00,VWS V14.01,2013-01-08 10:38:00,
2013-01-08 05:39:00,26.5,23.4,30.26,SW,229,1.0,1.0,88,0.00,,CLR,0.00,VWS V14.01,2013-01-08 10:39:00,
2013-01-08 05:40:00,26.5,23.4,30.26,SW,229,1.0,1.0,88,0.00,,FEW060,0.00,VWS V14.01,2013-01-08 10:40:00,
2013-01-08 05:41:00,26.5,23.4,30.26,WSW,252,1.0,1.0,88,0.00,,FEW060,0.00,VWS V14.01,2013-01-08 10:41:00,
2013-01-08 05:42:00,26.5,23.4,30.26,WSW,255,0.0,1.0,88,0.00,,FEW060,0.00,VWS V14.01,2013-01-08 10:42:00,
2013-01-08 05:43:00,26.5,23.4,30.26,WSW,240,0.0,1.0,88,0.00,,FEW060,0.00,VWS V14.01,2013-01-08 10:43:00,
2013-01-08 05:44:00,26.5,23.4,30.26,WSW,240,0.0,0.0,88,0.00,,CLR,0.00,VWS V14.01,2013-01-08 10:44:00,
2013-01-08 05:45:00,26.5,23.4,30.26,WSW,240,0.0,0.0,88,0.00,,FEW060,0.00,VWS V14.01,2013-01-08 10:45:00,
2013-01-08 05:46:00,26.5,23.4,30.26,WSW,240,0.0,0.0,88,0.00,,FEW060,0.00,VWS V14.01,2013-01-08 10:46:00,
2013-01-08 05:47:00,26.5,23.4,30.26,WSW,240,0.0,1.0,88,0.00,,FEW060,0.00,VWS V14.01,2013-01-08 10:47:00,
2013-01-08 05:48:00,26.5,23.4,30.26,WSW,240,0.0,0.0,88,0.00,,FEW060,0.00,VWS V14.01,2013-01-08 10:48:00,
2013-01-08 05:49:00,26.4,23.3,30.26,WSW,240,0.0,1.0,88,0.00,,CLR,0.00,VWS V14.01,2013-01-08 10:49:00,
2013-01-08 05:50:00,26.4,23.3,30.26,WSW,240,0.0,1.0,88,0.00,,FEW060,0.00,VWS V14.01,2013-01-08 10:50:00,
2013-01-08 05:51:00,26.4,23.3,30.26,WSW,240,0.0,0.0,88,0.00,,FEW060,0.00,VWS V14.01,2013-01-08 10:51:00,
2013-01-08 05:53:00,26.4,23.1,30.26,WSW,240,0.0,0.0,87,0.00,,FEW060,0.00,VWS V14.01,2013-01-08 10:53:00,
2013-01-08 05:54:00,26.4,23.3,30.26,WSW,246,1.0,1.0,88,0.00,,CLR,0.00,VWS V14.01,2013-01-08 10:54:00,
2013-01-08 05:55:00,26.4,23.3,30.26,WSW,246,1.0,1.0,88,0.00,,FEW060,0.00,VWS V14.01,2013-01-08 10:55:00,
2013-01-08 05:56:00,26.5,23.4,30.27,SW,214,1.0,2.0,88,0.00,,FEW060,0.00,VWS V14.01,2013-01-08 10:56:00,
2013-01-08 05:57:00,26.5,23.4,30.26,SW,214,0.0,1.0,88,0.00,,FEW060,0.00,VWS V14.01,2013-01-08 10:57:00,
2013-01-08 05:58:00,26.6,23.5,30.26,WSW,245,0.0,0.0,88,0.00,,FEW060,0.00,VWS V14.01,2013-01-08 10:58:00,
2013-01-08 05:59:00,26.6,23.3,30.26,WSW,253,0.0,2.0,87,0.00,,CLR,0.00,VWS V14.01,2013-01-08 10:59:00,
2013-01-08 06:00:00,26.6,23.3,30.26,WSW,253,0.0,2.0,87,0.00,,FEW060,0.00,VWS V14.01,2013-01-08 11:00:00,
2013-01-08 06:01:00,26.6,23.3,30.26,SW,224,0.0,1.0,87,0.00,,FEW060,0.00,VWS V14.01,2013-01-08 11:01:00,
2013-01-08 06:03:00,26.6,23.3,30.26,WSW,245,0.0,1.0,87,0.00,,FEW060,0.00,VWS V14.01,2013-01-08 11:03:00,
2013-01-08 06:04:00,26.6,23.3,30.26,WSW,245,1.0,1.0,87,0.00,,CLR,0.00,VWS V14.01,2013-01-08 11:04:00,
2013-01-08 06:05:00,26.6,23.3,30.26,WSW,245,1.0,1.0,87,0.00,,FEW060,0.00,VWS V14.01,2013-01-08 11:05:00,
2013-01-08 06:06:00,26.6,23.3,30.26,WSW,243,0.0,1.0,87,0.00,,FEW060,0.00,VWS V14.01,2013-01-08 11:06:00,
2013-01-08 06:07:00,26.6,23.3,30.26,WSW,245,0.0,0.0,87,0.00,,FEW060,0.00,VWS V14.01,2013-01-08 11:07:00,
2013-01-08 06:08:00,26.6,23.3,30.26,WSW,238,1.0,1.0,87,0.00,,FEW060,0.00,VWS V14.01,2013-01-08 11:08:00,
2013-01-08 06:09:00,26.6,23.3,30.26,WSW,242,1.0,1.0,87,0.00,,CLR,0.00,VWS V14.01,2013-01-08 11:09:00,
2013-01-08 06:10:00,26.6,23.3,30.26,WSW,242,1.0,1.0,87,0.00,,FEW060,0.00,VWS V14.01,2013-01-08 11:10:00,
2013-01-08 06:11:00,26.6,23.3,30.26,SW,218,0.0,2.0,87,0.00,,FEW060,0.00,VWS V14.01,2013-01-08 11:11:00,
2013-01-08 06:12:00,26.6,23.3,30.26,WSW,253,0.0,1.0,87,0.00,,FEW060,0.00,VWS V14.01,2013-01-08 11:12:00,
2013-01-08 06:13:00,26.6,23.3,30.26,SW,231,0.0,1.0,87,0.00,,FEW060,0.00,VWS V14.01,2013-01-08 11:13:00,
2013-01-08 06:14:00,26.7,23.4,30.26,WSW,257,1.0,1.0,87,0.00,,CLR,0.00,VWS V14.01,2013-01-08 11:14:00,
2013-01-08 06:15:00,26.7,23.4,30.26,WSW,257,1.0,1.0,87,0.00,,FEW060,0.00,VWS V14.01,2013-01-08 11:15:00,
2013-01-08 06:16:00,26.7,23.4,30.26,WSW,253,1.0,1.0,87,0.00,,FEW060,0.00,VWS V14.01,2013-01-08 11:16:00,
2013-01-08 06:17:00,26.7,23.4,30.26,SW,231,0.0,1.0,87,0.00,,FEW060,0.00,VWS V14.01,2013-01-08 11:17:00,
2013-01-08 06:18:00,26.7,23.4,30.26,WSW,238,1.0,2.0,87,0.00,,FEW060,0.00,VWS V14.01,2013-01-08 11:18:00,
2013-01-08 06:19:00,26.7,23.4,30.26,SSE,163,1.0,2.0,87,0.00,,CLR,0.00,VWS V14.01,2013-01-08 11:19:00,
2013-01-08 06:20:00,26.7,23.4,30.26,SSE,163,1.0,2.0,87,0.00,,FEW060,0.00,VWS V14.01,2013-01-08 11:20:00,
2013-01-08 06:21:00,26.7,23.4,30.26,SW,219,1.0,1.0,87,0.00,,FEW060,0.00,VWS V14.01,2013-01-08 11:21:00,
2013-01-08 06:22:00,26.7,23.4,30.26,SW,236,1.0,1.0,87,0.00,,FEW060,0.00,VWS V14.01,2013-01-08 11:22:00,
2013-01-08 06:23:00,26.8,23.5,30.26,WSW,243,0.0,2.0,87,0.00,,FEW060,0.00,VWS V14.01,2013-01-08 11:23:00,
2013-01-08 06:24:00,26.8,23.5,30.26,WSW,238,1.0,1.0,87,0.00,,CLR,0.00,VWS V14.01,2013-01-08 11:24:00,
2013-01-08 06:25:00,26.8,23.5,30.26,WSW,238,1.0,1.0,87,0.00,,FEW060,0.00,VWS V14.01,2013-01-08 11:25:00,
2013-01-08 06:26:00,26.8,23.5,30.26,WSW,238,0.0,1.0,87,0.00,,FEW060,0.00,VWS V14.01,2013-01-08 11:26:00,
2013-01-08 06:27:00,26.9,23.6,30.26,WSW,238,0.0,1.0,87,0.00,,FEW060,0.00,VWS V14.01,2013-01-08 11:27:00,
2013-01-08 06:28:00,26.9,23.6,30.26,WSW,246,1.0,1.0,87,0.00,,FEW060,0.00,VWS V14.01,2013-01-08 11:28:00,
2013-01-08 06:29:00,26.9,23.6,30.26,SW,217,0.0,0.0,87,0.00,,CLR,0.00,VWS V14.01,2013-01-08 11:29:00,
2013-01-08 06:30:00,26.9,23.6,30.26,SW,217,0.0,0.0,87,0.00,,FEW060,0.00,VWS V14.01,2013-01-08 11:30:00,
2013-01-08 06:31:00,26.8,23.5,30.26,SW,217,0.0,0.0,87,0.00,,FEW060,0.00,VWS V14.01,2013-01-08 11:31:00,
2013-01-08 06:32:00,26.9,23.6,30.26,WSW,240,0.0,1.0,87,0.00,,FEW060,0.00,VWS V14.01,2013-01-08 11:32:00,
2013-01-08 06:33:00,26.9,23.6,30.26,WSW,240,0.0,0.0,87,0.00,,FEW060,0.00,VWS V14.01,2013-01-08 11:33:00,
2013-01-08 06:34:00,26.8,23.5,30.26,WSW,240,0.0,0.0,87,0.00,,CLR,0.00,VWS V14.01,2013-01-08 11:34:00,
2013-01-08 06:35:00,26.8,23.5,30.26,WSW,240,0.0,0.0,87,0.00,,FEW060,0.00,VWS V14.01,2013-01-08 11:35:00,
2013-01-08 06:36:00,26.8,23.5,30.26,WSW,240,0.0,0.0,87,0.00,,FEW060,0.00,VWS V14.01,2013-01-08 11:36:00,
2013-01-08 06:37:00,26.8,23.5,30.26,WSW,240,0.0,0.0,87,0.00,,FEW060,0.00,VWS V14.01,2013-01-08 11:37:00,
2013-01-08 06:38:00,26.8,23.5,30.26,WSW,240,0.0,0.0,87,0.00,,FEW060,0.00,VWS V14.01,2013-01-08 11:38:00,
2013-01-08 06:39:00,26.8,23.5,30.26,WSW,241,0.0,0.0,87,0.00,,CLR,0.00,VWS V14.01,2013-01-08 11:39:00,
2013-01-08 06:40:00,26.8,23.5,30.26,WSW,241,0.0,0.0,87,0.00,,FEW060,0.00,VWS V14.01,2013-01-08 11:40:00,
2013-01-08 06:41:00,26.8,23.5,30.26,WSW,240,0.0,1.0,87,0.00,,FEW060,0.00,VWS V14.01,2013-01-08 11:41:00,
2013-01-08 06:42:00,26.7,23.4,30.26,WSW,240,0.0,0.0,87,0.00,,FEW060,0.00,VWS V14.01,2013-01-08 11:42:00,
2013-01-08 06:43:00,26.7,23.4,30.26,WSW,240,0.0,1.0,87,0.00,,FEW060,0.00,VWS V14.01,2013-01-08 11:43:00,
2013-01-08 06:44:00,26.7,23.4,30.26,WSW,240,0.0,0.0,87,0.00,,CLR,0.00,VWS V14.01,2013-01-08 11:44:00,
2013-01-08 06:45:00,26.7,23.4,30.26,WSW,240,0.0,0.0,87,0.00,,FEW060,0.00,VWS V14.01,2013-01-08 11:45:00,
2013-01-08 06:46:00,26.7,23.1,30.26,WSW,240,0.0,0.0,86,0.00,,FEW060,0.00,VWS V14.01,2013-01-08 11:46:00,
2013-01-08 06:47:00,26.6,23.0,30.26,WSW,240,0.0,0.0,86,0.00,,FEW060,0.00,VWS V14.01,2013-01-08 11:47:00,
2013-01-08 06:48:00,26.6,23.0,30.26,WSW,240,0.0,0.0,86,0.00,,FEW060,0.00,VWS V14.01,2013-01-08 11:48:00,
2013-01-08 06:49:00,26.6,23.3,30.26,WSW,240,0.0,0.0,87,0.00,,CLR,0.00,VWS V14.01,2013-01-08 11:49:00,
2013-01-08 06:50:00,26.6,23.3,30.26,WSW,240,0.0,0.0,87,0.00,,FEW060,0.00,VWS V14.01,2013-01-08 11:50:00,
2013-01-08 06:51:00,26.5,23.2,30.26,WSW,240,0.0,0.0,87,0.00,,FEW060,0.00,VWS V14.01,2013-01-08 11:51:00,
2013-01-08 06:52:00,26.5,22.9,30.26,WSW,240,0.0,0.0,86,0.00,,FEW060,0.00,VWS V14.01,2013-01-08 11:52:00,
2013-01-08 06:53:00,26.5,22.9,30.26,WSW,240,0.0,0.0,86,0.00,,FEW060,0.00,VWS V14.01,2013-01-08 11:53:00,
2013-01-08 06:54:00,26.3,22.7,30.26,WSW,240,0.0,1.0,86,0.00,,CLR,0.00,VWS V14.01,2013-01-08 11:54:00,
2013-01-08 06:55:00,26.3,22.7,30.26,WSW,240,0.0,1.0,86,0.00,,FEW060,0.00,VWS V14.01,2013-01-08 11:55:00,
2013-01-08 06:56:00,26.2,22.6,30.26,WSW,240,0.0,0.0,86,0.00,,FEW060,0.00,VWS V14.01,2013-01-08 11:56:00,
2013-01-08 06:57:00,26.2,22.9,30.26,WSW,240,0.0,0.0,87,0.00,,FEW060,0.00,VWS V14.01,2013-01-08 11:57:00,
2013-01-08 06:58:00,26.2,22.9,30.27,WSW,240,0.0,0.0,87,0.00,,FEW060,0.00,VWS V14.01,2013-01-08 11:58:00,
2013-01-08 06:59:00,26.1,22.8,30.27,WSW,240,0.0,0.0,87,0.00,,CLR,0.00,VWS V14.01,2013-01-08 11:59:00,
2013-01-08 07:00:00,26.1,22.8,30.27,WSW,240,0.0,0.0,87,0.00,,FEW060,0.00,VWS V14.01,2013-01-08 12:00:00,
2013-01-08 07:01:00,26.1,22.8,30.27,WSW,240,0.0,0.0,87,0.00,,FEW060,0.00,VWS V14.01,2013-01-08 12:01:00,
2013-01-08 07:02:00,26.0,22.7,30.26,WSW,241,0.0,0.0,87,0.00,,FEW060,0.00,VWS V14.01,2013-01-08 12:02:00,
2013-01-08 07:03:00,25.9,22.6,30.26,WSW,240,0.0,0.0,87,0.00,,FEW060,0.00,VWS V14.01,2013-01-08 12:03:00,
2013-01-08 07:04:00,25.9,22.6,30.26,WSW,240,0.0,0.0,87,0.00,,CLR,0.00,VWS V14.01,2013-01-08 12:04:00,
2013-01-08 07:05:00,25.9,22.6,30.26,WSW,240,0.0,0.0,87,0.00,,FEW060,0.00,VWS V14.01,2013-01-08 12:05:00,
2013-01-08 07:06:00,25.8,22.5,30.26,WSW,240,0.0,0.0,87,0.00,,FEW060,0.00,VWS V14.01,2013-01-08 12:06:00,
2013-01-08 07:07:00,25.7,22.4,30.26,WSW,240,0.0,0.0,87,0.00,,FEW060,0.00,VWS V14.01,2013-01-08 12:07:00,
2013-01-08 07:08:00,25.7,22.4,30.26,WSW,240,0.0,0.0,87,0.00,,FEW060,0.00,VWS V14.01,2013-01-08 12:08:00,
2013-01-08 07:09:00,25.5,22.2,30.27,WSW,240,0.0,0.0,87,0.00,,CLR,0.00,VWS V14.01,2013-01-08 12:09:00,
2013-01-08 07:10:00,25.5,22.2,30.27,WSW,240,0.0,0.0,87,0.00,,FEW060,0.00,VWS V14.01,2013-01-08 12:10:00,
2013-01-08 07:11:00,25.5,22.2,30.27,WSW,240,0.0,1.0,87,0.00,,FEW060,0.00,VWS V14.01,2013-01-08 12:11:00,
2013-01-08 07:12:00,25.5,22.2,30.27,WSW,240,0.0,1.0,87,0.00,,FEW060,0.00,VWS V14.01,2013-01-08 12:12:00,
2013-01-08 07:13:00,25.4,22.1,30.27,WSW,240,0.0,0.0,87,0.00,,FEW060,0.00,VWS V14.01,2013-01-08 12:13:00,
2013-01-08 07:14:00,25.4,22.1,30.27,WSW,240,0.0,0.0,87,0.00,,CLR,0.00,VWS V14.01,2013-01-08 12:14:00,
2013-01-08 07:15:00,25.4,22.1,30.27,WSW,240,0.0,0.0,87,0.00,,FEW060,0.00,VWS V14.01,2013-01-08 12:15:00,
2013-01-08 07:16:00,25.4,22.4,30.27,WSW,240,0.0,0.0,88,0.00,,FEW060,0.00,VWS V14.01,2013-01-08 12:16:00,
2013-01-08 07:17:00,25.4,22.4,30.27,WNW,291,1.0,1.0,88,0.00,,FEW060,0.00,VWS V14.01,2013-01-08 12:17:00,
2013-01-08 07:18:00,25.4,22.4,30.27,WNW,291,0.0,1.0,88,0.00,,FEW060,0.00,VWS V14.01,2013-01-08 12:18:00,
2013-01-08 07:19:00,25.4,22.4,30.27,WNW,291,0.0,1.0,88,0.00,,CLR,0.00,VWS V14.01,2013-01-08 12:19:00,
2013-01-08 07:20:00,25.4,22.4,30.27,WNW,291,0.0,1.0,88,0.00,,FEW060,0.00,VWS V14.01,2013-01-08 12:20:00,
2013-01-08 07:21:00,25.3,22.2,30.27,WNW,291,0.0,0.0,88,0.00,,FEW060,0.00,VWS V14.01,2013-01-08 12:21:00,
2013-01-08 07:22:00,25.3,22.2,30.27,WNW,291,0.0,0.0,88,0.00,,FEW060,0.00,VWS V14.01,2013-01-08 12:22:00,
2013-01-08 07:23:00,25.3,22.2,30.27,WNW,291,0.0,0.0,88,0.00,,FEW060,0.00,VWS V14.01,2013-01-08 12:23:00,
2013-01-08 07:24:00,25.2,22.1,30.28,WNW,291,0.0,0.0,88,0.00,,CLR,0.00,VWS V14.01,2013-01-08 12:24:00,
2013-01-08 07:25:00,25.2,22.1,30.28,WNW,291,0.0,0.0,88,0.00,,FEW060,0.00,VWS V14.01,2013-01-08 12:25:00,
2013-01-08 07:26:00,25.1,22.0,30.28,WNW,291,0.0,0.0,88,0.00,,FEW060,0.00,VWS V14.01,2013-01-08 12:26:00,
2013-01-08 07:27:00,25.1,22.0,30.28,WNW,291,0.0,0.0,88,0.00,,FEW060,0.00,VWS V14.01,2013-01-08 12:27:00,
2013-01-08 07:28:00,25.1,22.0,30.28,WNW,291,0.0,0.0,88,0.00,,FEW060,0.00,VWS V14.01,2013-01-08 12:28:00,
2013-01-08 07:29:00,25.2,22.1,30.28,WNW,291,0.0,0.0,88,0.00,,CLR,0.00,VWS V14.01,2013-01-08 12:29:00,
2013-01-08 07:30:00,25.2,22.1,30.28,WNW,291,0.0,0.0,88,0.00,,FEW060,0.00,VWS V14.01,2013-01-08 12:30:00,
2013-01-08 07:31:00,25.2,22.1,30.28,WNW,291,0.0,0.0,88,0.00,,FEW060,0.00,VWS V14.01,2013-01-08 12:31:00,
2013-01-08 07:32:00,25.2,22.1,30.28,WNW,291,0.0,0.0,88,0.00,,FEW060,0.00,VWS V14.01,2013-01-08 12:32:00,
2013-01-08 07:33:00,25.2,22.1,30.28,WNW,291,0.0,0.0,88,0.00,,FEW060,0.00,VWS V14.01,2013-01-08 12:33:00,
2013-01-08 07:34:00,25.2,22.1,30.28,WNW,291,0.0,0.0,88,0.00,,CLR,0.00,VWS V14.01,2013-01-08 12:34:00,
2013-01-08 07:35:00,25.2,22.1,30.28,WNW,291,0.0,0.0,88,0.00,,FEW060,0.00,VWS V14.01,2013-01-08 12:35:00,
2013-01-08 07:36:00,25.2,22.1,30.28,WNW,291,0.0,0.0,88,0.00,,FEW060,0.00,VWS V14.01,2013-01-08 12:36:00,
2013-01-08 07:38:00,25.2,22.1,30.28,WNW,291,0.0,0.0,88,0.00,,FEW060,0.00,VWS V14.01,2013-01-08 12:38:00,
2013-01-08 07:39:00,25.2,22.1,30.28,WNW,291,0.0,0.0,88,0.00,,CLR,0.00,VWS V14.01,2013-01-08 12:39:00,
2013-01-08 07:40:00,25.2,22.1,30.28,WNW,291,0.0,0.0,88,0.00,,FEW060,0.00,VWS V14.01,2013-01-08 12:40:00,
2013-01-08 07:41:00,25.2,22.1,30.28,WNW,291,0.0,0.0,88,0.00,,FEW060,0.00,VWS V14.01,2013-01-08 12:41:00,
2013-01-08 07:42:00,25.2,22.1,30.28,WNW,291,0.0,0.0,88,0.00,,FEW060,0.00,VWS V14.01,2013-01-08 12:42:00,
2013-01-08 07:43:00,25.2,22.1,30.28,WNW,291,0.0,0.0,88,0.00,,FEW060,0.00,VWS V14.01,2013-01-08 12:43:00,
2013-01-08 07:44:00,25.2,22.1,30.28,WNW,291,0.0,0.0,88,0.00,,CLR,0.00,VWS V14.01,2013-01-08 12:44:00,
2013-01-08 07:45:00,25.2,22.1,30.28,WNW,291,0.0,0.0,88,0.00,,FEW060,0.00,VWS V14.01,2013-01-08 12:45:00,
2013-01-08 07:46:00,25.2,22.1,30.28,WNW,291,0.0,0.0,88,0.00,,FEW060,0.00,VWS V14.01,2013-01-08 12:46:00,
2013-01-08 07:47:00,25.3,22.2,30.28,WNW,291,0.0,0.0,88,0.00,,FEW060,0.00,VWS V14.01,2013-01-08 12:47:00,
2013-01-08 07:48:00,25.3,22.2,30.28,WNW,291,0.0,0.0,88,0.00,,FEW060,0.00,VWS V14.01,2013-01-08 12:48:00,
2013-01-08 07:49:00,25.3,22.2,30.28,WNW,291,0.0,0.0,88,0.00,,CLR,0.00,VWS V14.01,2013-01-08 12:49:00,
2013-01-08 07:50:00,25.3,22.2,30.28,WNW,291,0.0,0.0,88,0.00,,FEW060,0.00,VWS V14.01,2013-01-08 12:50:00,
2013-01-08 07:51:00,25.4,22.4,30.28,WNW,291,0.0,0.0,88,0.00,,FEW060,0.00,VWS V14.01,2013-01-08 12:51:00,
2013-01-08 07:52:00,25.4,22.4,30.28,WNW,291,0.0,0.0,88,0.00,,FEW060,0.00,VWS V14.01,2013-01-08 12:52:00,
2013-01-08 07:53:00,25.5,22.5,30.28,WNW,291,0.0,0.0,88,0.00,,FEW060,0.00,VWS V14.01,2013-01-08 12:53:00,
2013-01-08 07:54:00,25.6,22.5,30.28,WNW,291,0.0,0.0,88,0.00,,CLR,0.00,VWS V14.01,2013-01-08 12:54:00,
2013-01-08 07:55:00,25.6,22.5,30.28,WNW,291,0.0,0.0,88,0.00,,FEW060,0.00,VWS V14.01,2013-01-08 12:55:00,
2013-01-08 07:56:00,25.6,22.5,30.28,WNW,291,0.0,0.0,88,0.00,,FEW060,0.00,VWS V14.01,2013-01-08 12:56:00,
2013-01-08 07:57:00,25.7,22.6,30.28,SW,236,1.0,2.0,88,0.00,,FEW060,0.00,VWS V14.01,2013-01-08 12:57:00,
2013-01-08 07:58:00,25.8,22.7,30.28,SW,224,0.0,1.0,88,0.00,,FEW060,0.00,VWS V14.01,2013-01-08 12:58:00,
2013-01-08 07:59:00,25.9,22.8,30.28,West,259,1.0,1.0,88,0.00,,CLR,0.00,VWS V14.01,2013-01-08 12:59:00,
2013-01-08 08:00:00,25.9,22.8,30.28,West,259,1.0,1.0,88,0.00,,FEW060,0.00,VWS V14.01,2013-01-08 13:00:00,
2013-01-08 08:01:00,26.0,22.9,30.28,SW,229,2.0,2.0,88,0.00,,FEW060,0.00,VWS V14.01,2013-01-08 13:01:00,
2013-01-08 08:02:00,26.1,23.0,30.28,WSW,243,1.0,2.0,88,0.00,,FEW060,0.00,VWS V14.01,2013-01-08 13:02:00,
2013-01-08 08:03:00,26.2,23.1,30.28,West,271,0.0,2.0,88,0.00,,FEW060,0.00,VWS V14.01,2013-01-08 13:03:00,
2013-01-08 08:04:00,26.4,23.3,30.28,WSW,250,1.0,1.0,88,0.00,,CLR,0.00,VWS V14.01,2013-01-08 13:04:00,
2013-01-08 08:05:00,26.4,23.3,30.28,WSW,250,1.0,1.0,88,0.00,,FEW060,0.00,VWS V14.01,2013-01-08 13:05:00,
2013-01-08 08:06:00,26.5,23.4,30.28,WSW,250,1.0,2.0,88,0.00,,FEW060,0.00,VWS V14.01,2013-01-08 13:06:00,
2013-01-08 08:07:00,26.6,23.3,30.28,WSW,256,1.0,2.0,87,0.00,,FEW060,0.00,VWS V14.01,2013-01-08 13:07:00,
2013-01-08 08:08:00,26.7,23.4,30.28,SW,226,1.0,2.0,87,0.00,,FEW060,0.00,VWS V14.01,2013-01-08 13:08:00,
2013-01-08 08:09:00,26.9,23.6,30.28,WSW,245,2.0,2.0,87,0.00,,CLR,0.00,VWS V14.01,2013-01-08 13:09:00,
2013-01-08 08:10:00,26.9,23.6,30.28,WSW,245,2.0,2.0,87,0.00,,FEW060,0.00,VWS V14.01,2013-01-08 13:10:00,
2013-01-08 08:11:00,27.0,23.6,30.28,West,273,1.0,2.0,87,0.00,,FEW060,0.00,VWS V14.01,2013-01-08 13:11:00,
2013-01-08 08:12:00,27.1,23.8,30.28,WSW,256,0.0,1.0,87,0.00,,FEW060,0.00,VWS V14.01,2013-01-08 13:12:00,
2013-01-08 08:13:00,27.3,23.7,30.28,West,259,0.0,1.0,86,0.00,,FEW060,0.00,VWS V14.01,2013-01-08 13:13:00,
2013-01-08 08:14:00,27.6,24.0,30.28,West,266,2.0,3.0,86,0.00,,CLR,0.00,VWS V14.01,2013-01-08 13:14:00,
2013-01-08 08:15:00,27.6,24.0,30.28,West,266,2.0,3.0,86,0.00,,FEW060,0.00,VWS V14.01,2013-01-08 13:15:00,
2013-01-08 08:16:00,27.7,24.1,30.28,SW,215,1.0,6.0,86,0.00,,FEW060,0.00,VWS V14.01,2013-01-08 13:16:00,
2013-01-08 08:17:00,27.8,24.2,30.28,WSW,250,3.0,3.0,86,0.00,,FEW060,0.00,VWS V14.01,2013-01-08 13:17:00,
2013-01-08 08:18:00,27.9,24.0,30.28,WSW,252,1.0,3.0,85,0.00,,FEW060,0.00,VWS V14.01,2013-01-08 13:18:00,
2013-01-08 08:19:00,28.1,24.2,30.28,WSW,249,0.0,2.0,85,0.00,,CLR,0.00,VWS V14.01,2013-01-08 13:19:00,
2013-01-08 08:20:00,28.1,24.2,30.28,WSW,249,0.0,2.0,85,0.00,,FEW060,0.00,VWS V14.01,2013-01-08 13:20:00,
2013-01-08 08:21:00,28.3,24.4,30.28,WSW,253,6.0,6.0,85,0.00,,FEW060,0.00,VWS V14.01,2013-01-08 13:21:00,
2013-01-08 08:22:00,28.3,24.4,30.28,WSW,245,1.0,6.0,85,0.00,,FEW060,0.00,VWS V14.01,2013-01-08 13:22:00,
2013-01-08 08:23:00,28.4,24.2,30.28,WSW,256,2.0,2.0,84,0.00,,FEW060,0.00,VWS V14.01,2013-01-08 13:23:00,
2013-01-08 08:24:00,28.6,24.4,30.28,WSW,243,6.0,7.0,84,0.00,,CLR,0.00,VWS V14.01,2013-01-08 13:24:00,
2013-01-08 08:25:00,28.6,24.4,30.28,WSW,243,6.0,7.0,84,0.00,,FEW060,0.00,VWS V14.01,2013-01-08 13:25:00,
2013-01-08 08:26:00,28.6,24.1,30.28,WSW,238,4.0,6.0,83,0.00,,FEW060,0.00,VWS V14.01,2013-01-08 13:26:00,
2013-01-08 08:27:00,28.6,24.1,30.28,East,96,1.0,5.0,83,0.00,,FEW060,0.00,VWS V14.01,2013-01-08 13:27:00,
2013-01-08 08:28:00,28.7,24.2,30.28,WSW,249,2.0,4.0,83,0.00,,FEW060,0.00,VWS V14.01,2013-01-08 13:28:00,
2013-01-08 08:29:00,28.8,24.3,30.28,West,271,1.0,3.0,83,0.00,,CLR,0.00,VWS V14.01,2013-01-08 13:29:00,
2013-01-08 08:30:00,28.8,24.3,30.28,West,271,1.0,3.0,83,0.00,,FEW060,0.00,VWS V14.01,2013-01-08 13:30:00,
2013-01-08 08:31:00,28.9,24.4,30.28,SSW,210,0.0,4.0,83,0.00,,FEW060,0.00,VWS V14.01,2013-01-08 13:31:00,
2013-01-08 08:32:00,28.9,24.4,30.28,SW,235,1.0,3.0,83,0.00,,FEW060,0.00,VWS V14.01,2013-01-08 13:32:00,
2013-01-08 08:33:00,29.0,24.5,30.28,West,269,3.0,5.0,83,0.00,,FEW060,0.00,VWS V14.01,2013-01-08 13:33:00,
2013-01-08 08:34:00,29.1,24.6,30.28,West,260,2.0,5.0,83,0.00,,SCT250,0.00,VWS V14.01,2013-01-08 13:34:00,
2013-01-08 08:35:00,29.1,24.6,30.28,West,260,2.0,5.0,83,0.00,,FEW060,0.00,VWS V14.01,2013-01-08 13:35:00,
2013-01-08 08:36:00,29.1,24.6,30.28,SSW,212,1.0,2.0,83,0.00,,FEW060,0.00,VWS V14.01,2013-01-08 13:36:00,
2013-01-08 08:37:00,29.2,24.7,30.28,WNW,290,1.0,3.0,83,0.00,,FEW060,0.00,VWS V14.01,2013-01-08 13:37:00,
2013-01-08 08:38:00,29.2,24.7,30.28,WSW,250,1.0,3.0,83,0.00,,FEW060,0.00,VWS V14.01,2013-01-08 13:38:00,
2013-01-08 08:39:00,29.4,24.9,30.28,WSW,250,1.0,4.0,83,0.00,,SCT250,0.00,VWS V14.01,2013-01-08 13:39:00,
2013-01-08 08:40:00,29.4,24.9,30.28,WSW,250,1.0,4.0,83,0.00,,FEW060,0.00,VWS V14.01,2013-01-08 13:40:00,
2013-01-08 08:41:00,29.5,25.0,30.28,West,259,0.0,2.0,83,0.00,,FEW060,0.00,VWS V14.01,2013-01-08 13:41:00,
2013-01-08 08:42:00,29.5,25.0,30.27,West,266,0.0,1.0,83,0.00,,FEW060,0.00,VWS V14.01,2013-01-08 13:42:00,
2013-01-08 08:43:00,29.6,25.1,30.27,WSW,238,6.0,6.0,83,0.00,,FEW060,0.00,VWS V14.01,2013-01-08 13:43:00,
2013-01-08 08:44:00,29.7,25.2,30.28,SW,225,1.0,1.0,83,0.00,,SCT250,0.00,VWS V14.01,2013-01-08 13:44:00,
2013-01-08 08:45:00,29.7,25.2,30.28,SW,225,1.0,1.0,83,0.00,,FEW060,0.00,VWS V14.01,2013-01-08 13:45:00,
2013-01-08 08:46:00,29.8,25.3,30.28,West,259,1.0,7.0,83,0.00,,FEW060,0.00,VWS V14.01,2013-01-08 13:46:00,
2013-01-08 08:47:00,29.8,25.0,30.27,SW,219,4.0,4.0,82,0.00,,FEW060,0.00,VWS V14.01,2013-01-08 13:47:00,
2013-01-08 08:48:00,29.8,25.0,30.28,WSW,250,0.0,6.0,82,0.00,,FEW060,0.00,VWS V14.01,2013-01-08 13:48:00,
2013-01-08 08:49:00,30.0,25.2,30.28,WNW,287,4.0,4.0,82,0.00,,SCT250,0.00,VWS V14.01,2013-01-08 13:49:00,
2013-01-08 08:50:00,30.0,25.2,30.28,WNW,287,4.0,4.0,82,0.00,,FEW060,0.00,VWS V14.01,2013-01-08 13:50:00,
2013-01-08 08:51:00,30.0,25.2,30.28,SW,219,5.0,5.0,82,0.00,,FEW060,0.00,VWS V14.01,2013-01-08 13:51:00,
2013-01-08 08:52:00,30.1,25.3,30.28,ESE,103,2.0,5.0,82,0.00,,FEW060,0.00,VWS V14.01,2013-01-08 13:52:00,
2013-01-08 08:53:00,30.2,25.4,30.28,West,274,0.0,3.0,82,0.00,,FEW060,0.00,VWS V14.01,2013-01-08 13:53:00,
2013-01-08 08:54:00,30.3,25.5,30.28,WSW,250,1.0,2.0,82,0.00,,SCT250,0.00,VWS V14.01,2013-01-08 13:54:00,
2013-01-08 08:55:00,30.3,25.5,30.28,WSW,250,1.0,2.0,82,0.00,,FEW060,0.00,VWS V14.01,2013-01-08 13:55:00,
2013-01-08 08:56:00,30.4,25.6,30.28,West,263,3.0,3.0,82,0.00,,FEW060,0.00,VWS V14.01,2013-01-08 13:56:00,
2013-01-08 08:57:00,30.5,25.7,30.28,WSW,252,4.0,4.0,82,0.00,,FEW060,0.00,VWS V14.01,2013-01-08 13:57:00,
2013-01-08 08:58:00,30.5,25.4,30.28,WSW,245,4.0,4.0,81,0.00,,FEW060,0.00,VWS V14.01,2013-01-08 13:58:00,
2013-01-08 08:59:00,30.7,25.6,30.28,West,262,2.0,8.0,81,0.00,,SCT250,0.00,VWS V14.01,2013-01-08 13:59:00,
2013-01-08 09:00:00,30.7,25.6,30.28,West,262,2.0,8.0,81,0.00,,FEW060,0.00,VWS V14.01,2013-01-08 14:00:00,
2013-01-08 09:01:00,30.8,25.7,30.28,West,278,2.0,3.0,81,0.00,,FEW060,0.00,VWS V14.01,2013-01-08 14:01:00,
2013-01-08 09:02:00,30.9,25.8,30.28,West,264,3.0,3.0,81,0.00,,FEW060,0.00,VWS V14.01,2013-01-08 14:02:00,
2013-01-08 09:03:00,31.0,25.9,30.28,WSW,252,2.0,5.0,81,0.00,,FEW060,0.00,VWS V14.01,2013-01-08 14:03:00,
2013-01-08 09:04:00,31.3,25.9,30.28,SSW,205,4.0,6.0,80,0.00,,SCT250,0.00,VWS V14.01,2013-01-08 14:04:00,
2013-01-08 09:05:00,31.3,25.9,30.28,SSW,205,4.0,6.0,80,0.00,,FEW060,0.00,VWS V14.01,2013-01-08 14:05:00,
2013-01-08 09:06:00,31.4,26.0,30.28,West,266,1.0,5.0,80,0.00,,FEW060,0.00,VWS V14.01,2013-01-08 14:06:00,
2013-01-08 09:07:00,31.5,26.0,30.28,West,281,3.0,4.0,80,0.00,,FEW060,0.00,VWS V14.01,2013-01-08 14:07:00,
2013-01-08 09:08:00,31.6,26.1,30.27,WSW,243,3.0,3.0,80,0.00,,FEW060,0.00,VWS V14.01,2013-01-08 14:08:00,
2013-01-08 09:09:00,31.8,26.0,30.27,West,271,2.0,10.0,79,0.00,,SCT250,0.00,VWS V14.01,2013-01-08 14:09:00,
2013-01-08 09:10:00,31.8,26.0,30.27,West,271,2.0,10.0,79,0.00,,FEW060,0.00,VWS V14.01,2013-01-08 14:10:00,
2013-01-08 09:11:00,31.9,26.1,30.27,WNW,302,1.0,4.0,79,0.00,,FEW060,0.00,VWS V14.01,2013-01-08 14:11:00,
2013-01-08 09:12:00,32.0,26.2,30.27,SSE,158,2.0,4.0,79,0.00,,FEW060,0.00,VWS V14.01,2013-01-08 14:12:00,
2013-01-08 09:13:00,32.1,26.3,30.27,South,180,1.0,4.0,79,0.00,,FEW060,0.00,VWS V14.01,2013-01-08 14:13:00,
2013-01-08 09:14:00,32.3,26.5,30.27,West,273,1.0,5.0,79,0.00,,SCT250,0.00,VWS V14.01,2013-01-08 14:14:00,
2013-01-08 09:15:00,32.3,26.5,30.27,West,273,1.0,5.0,79,0.00,,FEW060,0.00,VWS V14.01,2013-01-08 14:15:00,
2013-01-08 09:16:00,32.4,26.3,30.27,West,267,2.0,6.0,78,0.00,,FEW060,0.00,VWS V14.01,2013-01-08 14:16:00,
2013-01-08 09:17:00,32.4,26.3,30.27,WSW,250,1.0,3.0,78,0.00,,FEW060,0.00,VWS V14.01,2013-01-08 14:17:00,
2013-01-08 09:18:00,32.4,26.3,30.27,SW,233,2.0,3.0,78,0.00,,FEW060,0.00,VWS V14.01,2013-01-08 14:18:00,
2013-01-08 09:19:00,32.5,26.1,30.27,West,260,2.0,6.0,77,0.00,,SCT250,0.00,VWS V14.01,2013-01-08 14:19:00,
2013-01-08 09:20:00,32.5,26.1,30.27,West,260,2.0,6.0,77,0.00,,FEW060,0.00,VWS V14.01,2013-01-08 14:20:00,
2013-01-08 09:21:00,32.6,26.2,30.28,West,259,2.0,5.0,77,0.00,,FEW060,0.00,VWS V14.01,2013-01-08 14:21:00,
2013-01-08 09:22:00,32.7,26.3,30.28,West,265,4.0,6.0,77,0.00,,FEW060,0.00,VWS V14.01,2013-01-08 14:22:00,
2013-01-08 09:23:00,32.7,26.3,30.28,West,267,3.0,5.0,77,0.00,,FEW060,0.00,VWS V14.01,2013-01-08 14:23:00,
2013-01-08 09:24:00,32.8,26.4,30.27,WSW,256,2.0,5.0,77,0.00,,SCT250,0.00,VWS V14.01,2013-01-08 14:24:00,
2013-01-08 09:25:00,32.8,26.4,30.27,WSW,256,2.0,5.0,77,0.00,,FEW060,0.00,VWS V14.01,2013-01-08 14:25:00,
2013-01-08 09:26:00,32.9,26.5,30.28,WSW,252,4.0,4.0,77,0.00,,FEW060,0.00,VWS V14.01,2013-01-08 14:26:00,
2013-01-08 09:27:00,33.0,26.6,30.27,WNW,284,2.0,5.0,77,0.00,,FEW060,0.00,VWS V14.01,2013-01-08 14:27:00,
2013-01-08 09:28:00,33.1,26.7,30.27,WNW,285,3.0,5.0,77,0.00,,FEW060,0.00,VWS V14.01,2013-01-08 14:28:00,
2013-01-08 09:29:00,33.2,26.5,30.27,West,270,3.0,6.0,76,0.00,,SCT250,0.00,VWS V14.01,2013-01-08 14:29:00,
2013-01-08 09:30:00,33.2,26.5,30.27,West,270,3.0,6.0,76,0.00,,FEW060,0.00,VWS V14.01,2013-01-08 14:30:00,
2013-01-08 09:31:00,33.3,26.6,30.27,West,275,6.0,8.0,76,0.00,,FEW060,0.00,VWS V14.01,2013-01-08 14:31:00,
2013-01-08 09:32:00,33.3,26.6,30.27,West,277,2.0,6.0,76,0.00,,FEW060,0.00,VWS V14.01,2013-01-08 14:32:00,
2013-01-08 09:33:00,33.4,26.7,30.27,SW,228,4.0,8.0,76,0.00,,FEW060,0.00,VWS V14.01,2013-01-08 14:33:00,
2013-01-08 09:34:00,33.6,26.5,30.27,WSW,255,3.0,5.0,75,0.00,,SCT250,0.00,VWS V14.01,2013-01-08 14:34:00,
2013-01-08 09:35:00,33.6,26.5,30.27,WSW,255,3.0,5.0,75,0.00,,FEW060,0.00,VWS V14.01,2013-01-08 14:35:00,
2013-01-08 09:36:00,33.6,26.5,30.27,WSW,243,4.0,6.0,75,0.00,,FEW060,0.00,VWS V14.01,2013-01-08 14:36:00,
2013-01-08 09:37:00,33.7,26.6,30.27,WSW,238,3.0,5.0,75,0.00,,FEW060,0.00,VWS V14.01,2013-01-08 14:37:00,
2013-01-08 09:38:00,33.8,26.7,30.27,WSW,243,3.0,5.0,75,0.00,,FEW060,0.00,VWS V14.01,2013-01-08 14:38:00,
2013-01-08 09:39:00,34.0,26.9,30.27,SW,236,1.0,5.0,75,0.00,,BKN250,0.00,VWS V14.01,2013-01-08 14:39:00,
2013-01-08 09:40:00,34.0,26.9,30.27,SW,236,1.0,5.0,75,0.00,,FEW060,0.00,VWS V14.01,2013-01-08 14:40:00,
2013-01-08 09:41:00,34.1,27.0,30.27,West,271,1.0,5.0,75,0.00,,FEW060,0.00,VWS V14.01,2013-01-08 14:41:00,
2013-01-08 09:42:00,34.2,27.1,30.27,SW,229,3.0,5.0,75,0.00,,FEW060,0.00,VWS V14.01,2013-01-08 14:42:00,
2013-01-08 09:43:00,34.3,27.2,30.27,West,259,1.0,5.0,75,0.00,,FEW060,0.00,VWS V14.01,2013-01-08 14:43:00,
2013-01-08 09:44:00,34.6,27.5,30.27,WNW,287,4.0,4.0,75,0.00,,BKN250,0.00,VWS V14.01,2013-01-08 14:44:00,
2013-01-08 09:45:00,34.5,27.4,30.27,SSW,204,3.0,5.0,75,0.00,,FEW060,0.00,VWS V14.01,2013-01-08 14:45:00,
2013-01-08 09:46:00,34.7,27.3,30.27,WSW,238,3.0,4.0,74,0.00,,FEW060,0.00,VWS V14.01,2013-01-08 14:46:00,
2013-01-08 09:47:00,34.8,27.4,30.27,SSW,197,3.0,6.0,74,0.00,,FEW060,0.00,VWS V14.01,2013-01-08 14:47:00,
2013-01-08 09:48:00,34.9,27.5,30.26,West,271,1.0,4.0,74,0.00,,FEW060,0.00,VWS V14.01,2013-01-08 14:48:00,
2013-01-08 09:49:00,35.1,27.7,30.26,WSW,243,4.0,5.0,74,0.00,,BKN250,0.00,VWS V14.01,2013-01-08 14:49:00,
2013-01-08 09:50:00,35.1,27.7,30.26,WSW,243,4.0,5.0,74,0.00,,FEW060,0.00,VWS V14.01,2013-01-08 14:50:00,
2013-01-08 09:51:00,35.3,27.5,30.26,WSW,253,7.0,10.0,73,0.00,,FEW060,0.00,VWS V14.01,2013-01-08 14:51:00,
2013-01-08 09:52:00,35.3,27.2,30.26,West,273,2.0,7.0,72,0.00,,FEW060,0.00,VWS V14.01,2013-01-08 14:52:00,
2013-01-08 09:53:00,35.3,27.5,30.26,West,262,3.0,6.0,73,0.00,,FEW060,0.00,VWS V14.01,2013-01-08 14:53:00,
2013-01-08 09:54:00,35.5,27.4,30.26,West,259,4.0,5.0,72,0.00,,BKN250,0.00,VWS V14.01,2013-01-08 14:54:00,
2013-01-08 09:55:00,35.5,27.4,30.26,West,259,4.0,5.0,72,0.00,,FEW060,0.00,VWS V14.01,2013-01-08 14:55:00,
2013-01-08 09:56:00,35.7,27.6,30.26,SW,236,3.0,6.0,72,0.00,,FEW060,0.00,VWS V14.01,2013-01-08 14:56:00,
2013-01-08 09:58:00,35.9,27.8,30.26,WNW,291,3.0,6.0,72,0.00,,FEW060,0.00,VWS V14.01,2013-01-08 14:58:00,
2013-01-08 09:59:00,36.0,27.5,30.26,SW,231,7.0,10.0,71,0.00,,BKN250,0.00,VWS V14.01,2013-01-08 14:59:00,
2013-01-08 10:00:00,36.0,27.5,30.26,SW,231,7.0,10.0,71,0.00,,FEW060,0.00,VWS V14.01,2013-01-08 15:00:00,
2013-01-08 10:01:00,36.0,27.5,30.26,West,262,1.0,6.0,71,0.00,,FEW060,0.00,VWS V14.01,2013-01-08 15:01:00,
2013-01-08 10:02:00,36.1,27.6,30.26,West,271,4.0,4.0,71,0.00,,FEW060,0.00,VWS V14.01,2013-01-08 15:02:00,
2013-01-08 10:03:00,36.2,27.7,30.26,West,264,3.0,7.0,71,0.00,,FEW060,0.00,VWS V14.01,2013-01-08 15:03:00,
2013-01-08 10:04:00,36.4,27.6,30.26,WSW,247,3.0,7.0,70,0.00,,BKN250,0.00,VWS V14.01,2013-01-08 15:04:00,
2013-01-08 10:05:00,36.4,27.6,30.26,WSW,247,3.0,7.0,70,0.00,,FEW060,0.00,VWS V14.01,2013-01-08 15:05:00,
2013-01-08 10:06:00,36.4,27.6,30.26,West,268,4.0,4.0,70,0.00,,FEW060,0.00,VWS V14.01,2013-01-08 15:06:00,
2013-01-08 10:07:00,36.5,27.7,30.26,SW,231,4.0,5.0,70,0.00,,FEW060,0.00,VWS V14.01,2013-01-08 15:07:00,
2013-01-08 10:08:00,36.6,27.8,30.26,WSW,243,0.0,5.0,70,0.00,,FEW060,0.00,VWS V14.01,2013-01-08 15:08:00,
2013-01-08 10:09:00,36.8,28.0,30.26,NW,310,3.0,8.0,70,0.00,,BKN250,0.00,VWS V14.01,2013-01-08 15:09:00,
2013-01-08 10:10:00,36.8,28.0,30.26,NW,310,3.0,8.0,70,0.00,,FEW060,0.00,VWS V14.01,2013-01-08 15:10:00,
2013-01-08 10:11:00,36.9,27.7,30.25,NW,307,3.0,7.0,69,0.00,,FEW060,0.00,VWS V14.01,2013-01-08 15:11:00,
2013-01-08 10:12:00,36.9,27.7,30.25,WSW,238,1.0,6.0,69,0.00,,FEW060,0.00,VWS V14.01,2013-01-08 15:12:00,
2013-01-08 10:13:00,36.9,27.7,30.25,West,271,2.0,4.0,69,0.00,,FEW060,0.00,VWS V14.01,2013-01-08 15:13:00,
2013-01-08 10:14:00,37.1,28.2,30.25,West,262,2.0,4.0,70,0.00,,BKN250,0.00,VWS V14.01,2013-01-08 15:14:00,
2013-01-08 10:15:00,37.1,28.2,30.25,West,262,2.0,4.0,70,0.00,,FEW060,0.00,VWS V14.01,2013-01-08 15:15:00,
2013-01-08 10:16:00,37.1,27.9,30.26,WSW,257,2.0,4.0,69,0.00,,FEW060,0.00,VWS V14.01,2013-01-08 15:16:00,
2013-01-08 10:17:00,37.2,27.6,30.25,WNW,284,3.0,7.0,68,0.00,,FEW060,0.00,VWS V14.01,2013-01-08 15:17:00,
2013-01-08 10:18:00,37.2,27.6,30.26,West,273,3.0,4.0,68,0.00,,FEW060,0.00,VWS V14.01,2013-01-08 15:18:00,
2013-01-08 10:19:00,37.3,28.1,30.25,West,275,2.0,3.0,69,0.00,,BKN250,0.00,VWS V14.01,2013-01-08 15:19:00,
2013-01-08 10:20:00,37.3,28.1,30.25,West,275,2.0,3.0,69,0.00,,FEW060,0.00,VWS V14.01,2013-01-08 15:20:00,
2013-01-08 10:22:00,37.3,27.7,30.26,West,267,0.0,4.0,68,0.00,,FEW060,0.00,VWS V14.01,2013-01-08 15:22:00,
2013-01-08 10:23:00,37.4,28.2,30.25,WSW,250,3.0,5.0,69,0.00,,FEW060,0.00,VWS V14.01,2013-01-08 15:23:00,
2013-01-08 10:24:00,37.4,27.8,30.25,West,276,6.0,6.0,68,0.00,,BKN250,0.00,VWS V14.01,2013-01-08 15:24:00,
2013-01-08 10:25:00,37.4,27.8,30.25,West,276,6.0,6.0,68,0.00,,FEW060,0.00,VWS V14.01,2013-01-08 15:25:00,
2013-01-08 10:26:00,37.5,27.9,30.25,West,259,2.0,6.0,68,0.00,,FEW060,0.00,VWS V14.01,2013-01-08 15:26:00,
2013-01-08 10:27:00,37.5,27.9,30.25,West,274,3.0,4.0,68,0.00,,FEW060,0.00,VWS V14.01,2013-01-08 15:27:00,
2013-01-08 10:28:00,37.5,27.6,30.25,WSW,256,3.0,8.0,67,0.00,,FEW060,0.00,VWS V14.01,2013-01-08 15:28:00,
2013-01-08 10:29:00,37.7,28.1,30.25,West,266,1.0,3.0,68,0.00,,BKN250,0.00,VWS V14.01,2013-01-08 15:29:00,
2013-01-08 10:30:00,37.7,28.1,30.25,West,266,1.0,3.0,68,0.00,,FEW060,0.00,VWS V14.01,2013-01-08 15:30:00,
2013-01-08 10:31:00,37.8,28.2,30.25,WSW,246,2.0,7.0,68,0.00,,FEW060,0.00,VWS V14.01,2013-01-08 15:31:00,
2013-01-08 10:32:00,37.9,28.3,30.25,WSW,243,6.0,6.0,68,0.00,,FEW060,0.00,VWS V14.01,2013-01-08 15:32:00,
2013-01-08 10:33:00,38.0,28.0,30.25,NNW,340,0.0,6.0,67,0.00,,FEW060,0.00,VWS V14.01,2013-01-08 15:33:00,
2013-01-08 10:34:00,38.2,28.2,30.25,SW,219,4.0,7.0,67,0.00,,BKN250,0.00,VWS V14.01,2013-01-08 15:34:00,
2013-01-08 10:35:00,38.2,28.2,30.25,SW,219,4.0,7.0,67,0.00,,FEW060,0.00,VWS V14.01,2013-01-08 15:35:00,
2013-01-08 10:36:00,38.3,28.0,30.25,WSW,253,4.0,6.0,66,0.00,,FEW060,0.00,VWS V14.01,2013-01-08 15:36:00,
2013-01-08 10:37:00,38.4,28.4,30.24,WSW,240,1.0,4.0,67,0.00,,FEW060,0.00,VWS V14.01,2013-01-08 15:37:00,
2013-01-08 10:38:00,38.5,28.5,30.24,SW,231,4.0,5.0,67,0.00,,FEW060,0.00,VWS V14.01,2013-01-08 15:38:00,
2013-01-08 10:39:00,38.6,28.2,30.25,NNW,345,1.0,6.0,66,0.00,,BKN250,0.00,VWS V14.01,2013-01-08 15:39:00,
2013-01-08 10:40:00,38.6,28.2,30.24,NNW,345,1.0,6.0,66,0.00,,FEW060,0.00,VWS V14.01,2013-01-08 15:40:00,
2013-01-08 10:41:00,38.7,28.3,30.24,WSW,246,1.0,4.0,66,0.00,,FEW060,0.00,VWS V14.01,2013-01-08 15:41:00,
2013-01-08 10:42:00,38.8,28.4,30.24,SSW,204,2.0,5.0,66,0.00,,FEW060,0.00,VWS V14.01,2013-01-08 15:42:00,
2013-01-08 10:43:00,38.9,28.1,30.24,NNE,30,1.0,6.0,65,0.00,,FEW060,0.00,VWS V14.01,2013-01-08 15:43:00,
2013-01-08 10:44:00,39.1,28.0,30.24,WSW,250,2.0,5.0,64,0.00,,BKN250,0.00,VWS V14.01,2013-01-08 15:44:00,
2013-01-08 10:45:00,39.1,28.0,30.24,WSW,250,2.0,5.0,64,0.00,,FEW060,0.00,VWS V14.01,2013-01-08 15:45:00,
2013-01-08 10:46:00,39.2,28.4,30.24,West,266,4.0,5.0,65,0.00,,FEW060,0.00,VWS V14.01,2013-01-08 15:46:00,
2013-01-08 10:47:00,39.3,28.2,30.24,SSW,210,4.0,6.0,64,0.00,,FEW060,0.00,VWS V14.01,2013-01-08 15:47:00,
2013-01-08 10:48:00,39.3,28.2,30.24,West,278,4.0,4.0,64,0.00,,FEW060,0.00,VWS V14.01,2013-01-08 15:48:00,
2013-01-08 10:49:00,39.5,28.4,30.24,SW,236,7.0,7.0,64,0.00,,BKN250,0.00,VWS V14.01,2013-01-08 15:49:00,
2013-01-08 10:50:00,39.5,28.4,30.24,SW,233,4.0,6.0,64,0.00,,FEW060,0.00,VWS V14.01,2013-01-08 15:50:00,
2013-01-08 10:51:00,39.5,28.0,30.24,West,268,1.0,7.0,63,0.00,,FEW060,0.00,VWS V14.01,2013-01-08 15:51:00,
2013-01-08 10:52:00,39.6,28.1,30.24,SW,231,2.0,7.0,63,0.00,,FEW060,0.00,VWS V14.01,2013-01-08 15:52:00,
2013-01-08 10:53:00,39.6,28.1,30.24,West,263,3.0,7.0,63,0.00,,FEW060,0.00,VWS V14.01,2013-01-08 15:53:00,
2013-01-08 10:54:00,39.7,28.1,30.24,West,269,2.0,4.0,63,0.00,,BKN250,0.00,VWS V14.01,2013-01-08 15:54:00,
2013-01-08 10:55:00,39.7,28.1,30.24,WNW,287,4.0,7.0,63,0.00,,FEW060,0.00,VWS V14.01,2013-01-08 15:55:00,
2013-01-08 10:56:00,39.7,27.8,30.24,WSW,248,2.0,4.0,62,0.00,,FEW060,0.00,VWS V14.01,2013-01-08 15:56:00,
2013-01-08 10:57:00,39.8,27.9,30.24,West,261,3.0,4.0,62,0.00,,FEW060,0.00,VWS V14.01,2013-01-08 15:57:00,
2013-01-08 10:58:00,39.9,28.0,30.24,WSW,246,4.0,4.0,62,0.00,,FEW060,0.00,VWS V14.01,2013-01-08 15:58:00,
2013-01-08 10:59:00,40.0,28.0,30.24,West,268,2.0,2.0,62,0.00,,BKN250,0.00,VWS V14.01,2013-01-08 15:59:00,
2013-01-08 11:00:00,40.0,28.0,30.24,WSW,238,0.0,3.0,62,0.00,,FEW060,0.00,VWS V14.01,2013-01-08 16:00:00,
2013-01-08 11:01:00,40.1,28.5,30.24,SSW,210,3.0,5.0,63,0.00,,FEW060,0.00,VWS V14.01,2013-01-08 16:01:00,
2013-01-08 11:02:00,40.2,28.2,30.24,WSW,256,2.0,4.0,62,0.00,,FEW060,0.00,VWS V14.01,2013-01-08 16:02:00,
2013-01-08 11:03:00,40.2,27.8,30.24,WSW,256,1.0,5.0,61,0.00,,FEW060,0.00,VWS V14.01,2013-01-08 16:03:00,
2013-01-08 11:04:00,40.4,28.0,30.24,WNW,283,6.0,9.0,61,0.00,,BKN250,0.00,VWS V14.01,2013-01-08 16:04:00,
2013-01-08 11:05:00,40.4,28.0,30.24,WSW,255,5.0,5.0,61,0.00,,FEW060,0.00,VWS V14.01,2013-01-08 16:05:00,
2013-01-08 11:06:00,40.4,27.6,30.24,SW,229,2.0,9.0,60,0.00,,FEW060,0.00,VWS V14.01,2013-01-08 16:06:00,
2013-01-08 11:07:00,40.5,27.7,30.24,WSW,256,3.0,6.0,60,0.00,,FEW060,0.00,VWS V14.01,2013-01-08 16:07:00,
2013-01-08 11:08:00,40.5,27.7,30.24,West,266,1.0,3.0,60,0.00,,FEW060,0.00,VWS V14.01,2013-01-08 16:08:00,
2013-01-08 11:09:00,40.6,27.8,30.24,NNW,333,3.0,8.0,60,0.00,,BKN250,0.00,VWS V14.01,2013-01-08 16:09:00,
2013-01-08 11:10:00,40.6,27.8,30.24,West,262,8.0,8.0,60,0.00,,FEW060,0.00,VWS V14.01,2013-01-08 16:10:00,
2013-01-08 11:11:00,40.6,27.8,30.24,WNW,300,2.0,8.0,60,0.00,,FEW060,0.00,VWS V14.01,2013-01-08 16:11:00,
2013-01-08 11:12:00,40.6,27.8,30.24,West,265,5.0,7.0,60,0.00,,FEW060,0.00,VWS V14.01,2013-01-08 16:12:00,
2013-01-08 11:13:00,40.7,27.9,30.24,WSW,243,5.0,5.0,60,0.00,,FEW060,0.00,VWS V14.01,2013-01-08 16:13:00,
2013-01-08 11:14:00,40.8,28.0,30.24,SSW,202,2.0,3.0,60,0.00,,BKN250,0.00,VWS V14.01,2013-01-08 16:14:00,
2013-01-08 11:15:00,40.8,28.0,30.24,West,271,3.0,3.0,60,0.00,,FEW060,0.00,VWS V14.01,2013-01-08 16:15:00,
2013-01-08 11:16:00,40.9,28.1,30.24,WSW,253,3.0,4.0,60,0.00,,FEW060,0.00,VWS V14.01,2013-01-08 16:16:00,
2013-01-08 11:17:00,40.9,28.1,30.24,North,357,2.0,3.0,60,0.00,,FEW060,0.00,VWS V14.01,2013-01-08 16:17:00,
2013-01-08 11:18:00,41.0,27.8,30.24,WSW,253,3.0,5.0,59,0.00,,FEW060,0.00,VWS V14.01,2013-01-08 16:18:00,
2013-01-08 11:19:00,41.1,27.5,30.24,WNW,288,1.0,3.0,58,0.00,,BKN250,0.00,VWS V14.01,2013-01-08 16:19:00,
2013-01-08 11:20:00,41.1,27.9,30.24,WSW,255,3.0,8.0,59,0.00,,FEW060,0.00,VWS V14.01,2013-01-08 16:20:00,
2013-01-08 11:21:00,41.2,28.0,30.24,WNW,285,0.0,3.0,59,0.00,,FEW060,0.00,VWS V14.01,2013-01-08 16:21:00,
2013-01-08 11:22:00,41.3,28.1,30.24,SW,226,2.0,2.0,59,0.00,,FEW060,0.00,VWS V14.01,2013-01-08 16:22:00,
2013-01-08 11:23:00,41.4,27.8,30.23,SW,230,3.0,7.0,58,0.00,,FEW060,0.00,VWS V14.01,2013-01-08 16:23:00,
2013-01-08 11:24:00,41.5,27.8,30.23,WSW,240,1.0,1.0,58,0.00,,BKN250,0.00,VWS V14.01,2013-01-08 16:24:00,
2013-01-08 11:25:00,41.5,27.8,30.23,SW,236,0.0,1.0,58,0.00,,FEW060,0.00,VWS V14.01,2013-01-08 16:25:00,
2013-01-08 11:26:00,41.6,27.9,30.23,West,266,0.0,2.0,58,0.00,,FEW060,0.00,VWS V14.01,2013-01-08 16:26:00,
2013-01-08 11:27:00,41.7,27.6,30.23,West,278,3.0,3.0,57,0.00,,FEW060,0.00,VWS V14.01,2013-01-08 16:27:00,
2013-01-08 11:28:00,41.8,27.7,30.23,West,281,1.0,5.0,57,0.00,,FEW060,0.00,VWS V14.01,2013-01-08 16:28:00,
2013-01-08 11:29:00,41.8,27.7,30.23,WSW,250,0.0,3.0,57,0.00,,FEW060,0.00,VWS V14.01,2013-01-08 16:29:00,
2013-01-08 11:30:00,41.8,27.3,30.23,West,278,4.0,6.0,56,0.00,,BKN250,0.00,VWS V14.01,2013-01-08 16:30:00,
2013-01-08 11:31:00,41.8,27.3,30.23,West,271,4.0,6.0,56,0.00,,FEW060,0.00,VWS V14.01,2013-01-08 16:31:00,
2013-01-08 11:32:00,41.7,27.2,30.23,WSW,238,1.0,6.0,56,0.00,,FEW060,0.00,VWS V14.01,2013-01-08 16:32:00,
2013-01-08 11:33:00,41.7,27.6,30.23,North,349,1.0,4.0,57,0.00,,FEW060,0.00,VWS V14.01,2013-01-08 16:33:00,
2013-01-08 11:34:00,41.8,27.7,30.23,SSE,158,3.0,3.0,57,0.00,,FEW060,0.00,VWS V14.01,2013-01-08 16:34:00,
2013-01-08 11:35:00,41.9,27.4,30.23,South,191,4.0,6.0,56,0.00,,BKN250,0.00,VWS V14.01,2013-01-08 16:35:00,
2013-01-08 11:36:00,41.9,27.4,30.23,WNW,300,4.0,6.0,56,0.00,,FEW060,0.00,VWS V14.01,2013-01-08 16:36:00,
2013-01-08 11:37:00,41.9,27.4,30.23,West,270,3.0,4.0,56,0.00,,FEW060,0.00,VWS V14.01,2013-01-08 16:37:00,
2013-01-08 11:38:00,41.9,27.4,30.23,WSW,256,2.0,5.0,56,0.00,,FEW060,0.00,VWS V14.01,2013-01-08 16:38:00,
2013-01-08 11:39:00,42.1,27.5,30.23,WSW,249,4.0,5.0,56,0.00,,FEW060,0.00,VWS V14.01,2013-01-08 16:39:00,
2013-01-08 11:40:00,42.2,27.2,30.23,WSW,238,4.0,5.0,55,0.00,,BKN250,0.00,VWS V14.01,2013-01-08 16:40:00,
2013-01-08 11:41:00,42.2,27.2,30.23,SSW,212,2.0,5.0,55,0.00,,FEW060,0.00,VWS V14.01,2013-01-08 16:41:00,
2013-01-08 11:42:00,42.3,27.3,30.23,West,271,1.0,4.0,55,0.00,,FEW060,0.00,VWS V14.01,2013-01-08 16:42:00,
2013-01-08 11:43:00,42.4,27.4,30.23,NW,309,5.0,5.0,55,0.00,,FEW060,0.00,VWS V14.01,2013-01-08 16:43:00,
2013-01-08 11:44:00,42.5,27.5,30.22,WNW,282,3.0,5.0,55,0.00,,FEW060,0.00,VWS V14.01,2013-01-08 16:44:00,
2013-01-08 11:45:00,42.6,27.1,30.23,West,265,2.0,6.0,54,0.00,,BKN250,0.00,VWS V14.01,2013-01-08 16:45:00,
2013-01-08 11:46:00,42.6,27.1,30.23,West,265,2.0,6.0,54,0.00,,FEW060,0.00,VWS V14.01,2013-01-08 16:46:00,
2013-01-08 11:47:00,42.6,27.1,30.22,NE,46,3.0,6.0,54,0.00,,FEW060,0.00,VWS V14.01,2013-01-08 16:47:00,
2013-01-08 11:48:00,42.5,27.0,30.22,West,264,2.0,7.0,54,0.00,,FEW060,0.00,VWS V14.01,2013-01-08 16:48:00,
2013-01-08 11:49:00,42.5,27.0,30.22,West,266,3.0,5.0,54,0.00,,FEW060,0.00,VWS V14.01,2013-01-08 16:49:00,
2013-01-08 11:50:00,42.4,27.0,30.22,SSW,198,1.0,4.0,54,0.00,,BKN250,0.00,VWS V14.01,2013-01-08 16:50:00,
2013-01-08 11:51:00,42.4,27.0,30.22,SSW,198,1.0,4.0,54,0.00,,FEW060,0.00,VWS V14.01,2013-01-08 16:51:00,
2013-01-08 11:52:00,42.3,26.9,30.22,SW,217,2.0,4.0,54,0.00,,FEW060,0.00,VWS V14.01,2013-01-08 16:52:00,
2013-01-08 11:53:00,42.3,27.3,30.22,NW,310,3.0,7.0,55,0.00,,FEW060,0.00,VWS V14.01,2013-01-08 16:53:00,
2013-01-08 11:54:00,42.3,26.9,30.22,WSW,243,3.0,4.0,54,0.00,,FEW060,0.00,VWS V14.01,2013-01-08 16:54:00,
2013-01-08 11:55:00,42.4,27.0,30.22,West,259,4.0,5.0,54,0.00,,BKN250,0.00,VWS V14.01,2013-01-08 16:55:00,
2013-01-08 11:56:00,42.4,27.0,30.22,West,259,4.0,5.0,54,0.00,,FEW060,0.00,VWS V14.01,2013-01-08 16:56:00,
2013-01-08 11:57:00,42.4,27.0,30.23,North,8,2.0,6.0,54,0.00,,FEW060,0.00,VWS V14.01,2013-01-08 16:57:00,
2013-01-08 11:58:00,42.4,27.0,30.22,South,187,2.0,3.0,54,0.00,,FEW060,0.00,VWS V14.01,2013-01-08 16:58:00,
2013-01-08 11:59:00,42.4,27.0,30.22,West,259,5.0,7.0,54,0.00,,FEW060,0.00,VWS V14.01,2013-01-08 16:59:00,
2013-01-08 12:00:00,42.4,27.0,30.22,West,272,3.0,4.0,54,0.00,,BKN250,0.00,VWS V14.01,2013-01-08 17:00:00,
2013-01-08 12:02:00,42.4,27.0,30.22,WNW,284,3.0,5.0,54,0.00,,FEW060,0.00,VWS V14.01,2013-01-08 17:02:00,
2013-01-08 12:03:00,42.5,27.0,30.22,WNW,285,3.0,3.0,54,0.00,,FEW060,0.00,VWS V14.01,2013-01-08 17:03:00,
2013-01-08 12:05:00,42.7,27.2,30.22,West,260,6.0,7.0,54,0.00,,BKN250,0.00,VWS V14.01,2013-01-08 17:05:00,
2013-01-08 12:06:00,42.7,27.2,30.22,West,260,6.0,7.0,54,0.00,,FEW060,0.00,VWS V14.01,2013-01-08 17:06:00,
2013-01-08 12:07:00,42.8,27.3,30.22,West,259,3.0,6.0,54,0.00,,FEW060,0.00,VWS V14.01,2013-01-08 17:07:00,
2013-01-08 12:08:00,42.8,27.3,30.21,WSW,238,2.0,5.0,54,0.00,,FEW060,0.00,VWS V14.01,2013-01-08 17:08:00,
2013-01-08 12:09:00,42.8,26.9,30.22,West,267,3.0,4.0,53,0.00,,FEW060,0.00,VWS V14.01,2013-01-08 17:09:00,
2013-01-08 12:10:00,42.9,27.0,30.22,WNW,287,1.0,4.0,53,0.00,,BKN250,0.00,VWS V14.01,2013-01-08 17:10:00,
2013-01-08 12:11:00,42.9,27.0,30.22,WNW,287,1.0,4.0,53,0.00,,FEW060,0.00,VWS V14.01,2013-01-08 17:11:00,
2013-01-08 12:12:00,43.0,27.5,30.22,WNW,298,4.0,5.0,54,0.00,,FEW060,0.00,VWS V14.01,2013-01-08 17:12:00,
2013-01-08 12:13:00,43.0,27.5,30.22,West,260,3.0,4.0,54,0.00,,FEW060,0.00,VWS V14.01,2013-01-08 17:13:00,
2013-01-08 12:14:00,43.1,27.6,30.22,SW,217,1.0,3.0,54,0.00,,FEW060,0.00,VWS V14.01,2013-01-08 17:14:00,
2013-01-08 12:15:00,43.2,27.2,30.21,West,278,3.0,4.0,53,0.00,,BKN250,0.00,VWS V14.01,2013-01-08 17:15:00,
2013-01-08 12:16:00,43.2,27.2,30.21,West,264,4.0,8.0,53,0.00,,FEW060,0.00,VWS V14.01,2013-01-08 17:16:00,
2013-01-08 12:17:00,43.2,27.2,30.21,SSW,201,1.0,6.0,53,0.00,,FEW060,0.00,VWS V14.01,2013-01-08 17:17:00,
2013-01-08 12:18:00,43.2,27.2,30.21,West,263,2.0,3.0,53,0.00,,FEW060,0.00,VWS V14.01,2013-01-08 17:18:00,
2013-01-08 12:19:00,43.2,27.2,30.21,West,264,2.0,4.0,53,0.00,,FEW060,0.00,VWS V14.01,2013-01-08 17:19:00,
2013-01-08 12:20:00,43.2,27.2,30.21,West,277,3.0,3.0,53,0.00,,BKN250,0.00,VWS V14.01,2013-01-08 17:20:00,
2013-01-08 12:21:00,43.2,27.2,30.21,West,278,3.0,6.0,53,0.00,,FEW060,0.00,VWS V14.01,2013-01-08 17:21:00,
2013-01-08 12:22:00,43.2,27.7,30.21,WNW,287,1.0,3.0,54,0.00,,FEW060,0.00,VWS V14.01,2013-01-08 17:22:00,
2013-01-08 12:23:00,43.3,27.3,30.21,WSW,240,2.0,3.0,53,0.00,,FEW060,0.00,VWS V14.01,2013-01-08 17:23:00,
2013-01-08 12:24:00,43.3,27.3,30.21,West,277,4.0,8.0,53,0.00,,FEW060,0.00,VWS V14.01,2013-01-08 17:24:00,
2013-01-08 12:25:00,43.3,27.3,30.21,WNW,288,1.0,5.0,53,0.00,,BKN250,0.00,VWS V14.01,2013-01-08 17:25:00,
2013-01-08 12:26:00,43.3,27.3,30.21,WNW,288,1.0,5.0,53,0.00,,FEW060,0.00,VWS V14.01,2013-01-08 17:26:00,
2013-01-08 12:27:00,43.3,27.3,30.21,SW,223,4.0,6.0,53,0.00,,FEW060,0.00,VWS V14.01,2013-01-08 17:27:00,
2013-01-08 12:28:00,43.3,26.9,30.21,West,267,2.0,4.0,52,0.00,,FEW060,0.00,VWS V14.01,2013-01-08 17:28:00,
2013-01-08 12:29:00,43.3,27.3,30.21,WSW,247,1.0,4.0,53,0.00,,FEW060,0.00,VWS V14.01,2013-01-08 17:29:00,
2013-01-08 12:30:00,43.3,26.9,30.21,West,273,3.0,7.0,52,0.00,,BKN250,0.00,VWS V14.01,2013-01-08 17:30:00,
2013-01-08 12:31:00,43.3,26.9,30.21,West,273,3.0,7.0,52,0.00,,FEW060,0.00,VWS V14.01,2013-01-08 17:31:00,
2013-01-08 12:32:00,43.3,26.9,30.21,WNW,284,2.0,4.0,52,0.00,,FEW060,0.00,VWS V14.01,2013-01-08 17:32:00,
2013-01-08 12:33:00,43.3,26.9,30.21,West,276,2.0,6.0,52,0.00,,FEW060,0.00,VWS V14.01,2013-01-08 17:33:00,
2013-01-08 12:34:00,43.4,27.0,30.21,SW,233,2.0,3.0,52,0.00,,FEW060,0.00,VWS V14.01,2013-01-08 17:34:00,
2013-01-08 12:35:00,43.4,27.0,30.21,West,273,2.0,5.0,52,0.00,,BKN250,0.00,VWS V14.01,2013-01-08 17:35:00,
2013-01-08 12:36:00,43.4,27.0,30.21,West,273,2.0,5.0,52,0.00,,FEW060,0.00,VWS V14.01,2013-01-08 17:36:00,
2013-01-08 12:37:00,43.4,27.0,30.21,West,276,1.0,2.0,52,0.00,,FEW060,0.00,VWS V14.01,2013-01-08 17:37:00,
2013-01-08 12:38:00,43.4,27.0,30.21,West,266,3.0,4.0,52,0.00,,FEW060,0.00,VWS V14.01,2013-01-08 17:38:00,
2013-01-08 12:39:00,43.5,27.1,30.21,SW,226,1.0,5.0,52,0.00,,FEW060,0.00,VWS V14.01,2013-01-08 17:39:00,
2013-01-08 12:40:00,43.5,27.1,30.21,West,271,4.0,5.0,52,0.00,,BKN250,0.00,VWS V14.01,2013-01-08 17:40:00,
2013-01-08 12:41:00,43.5,27.1,30.21,West,271,4.0,5.0,52,0.00,,FEW060,0.00,VWS V14.01,2013-01-08 17:41:00,
2013-01-08 12:42:00,43.5,26.6,30.21,WSW,249,2.0,4.0,51,0.00,,FEW060,0.00,VWS V14.01,2013-01-08 17:42:00,
2013-01-08 12:43:00,43.5,27.1,30.21,West,271,7.0,7.0,52,0.00,,FEW060,0.00,VWS V14.01,2013-01-08 17:43:00,
2013-01-08 12:44:00,43.5,26.6,30.21,WSW,253,3.0,7.0,51,0.00,,FEW060,0.00,VWS V14.01,2013-01-08 17:44:00,
2013-01-08 12:45:00,43.5,26.6,30.21,SSW,210,3.0,6.0,51,0.00,,BKN250,0.00,VWS V14.01,2013-01-08 17:45:00,
2013-01-08 12:46:00,43.5,26.6,30.21,SSW,210,3.0,6.0,51,0.00,,FEW060,0.00,VWS V14.01,2013-01-08 17:46:00,
2013-01-08 12:47:00,43.5,26.6,30.21,West,277,5.0,7.0,51,0.00,,SCT060,0.00,VWS V14.01,2013-01-08 17:47:00,
2013-01-08 12:48:00,43.5,26.6,30.21,West,265,3.0,5.0,51,0.00,,SCT060,0.00,VWS V14.01,2013-01-08 17:48:00,
2013-01-08 12:49:00,43.4,26.5,30.21,NW,309,3.0,5.0,51,0.00,,SCT060,0.00,VWS V14.01,2013-01-08 17:49:00,
2013-01-08 12:50:00,43.4,27.0,30.21,WSW,253,4.0,5.0,52,0.00,,BKN250,0.00,VWS V14.01,2013-01-08 17:50:00,
2013-01-08 12:51:00,43.4,27.0,30.21,WSW,253,4.0,5.0,52,0.00,,SCT060,0.00,VWS V14.01,2013-01-08 17:51:00,
2013-01-08 12:52:00,43.5,26.6,30.21,West,281,2.0,4.0,51,0.00,,SCT060,0.00,VWS V14.01,2013-01-08 17:52:00,
2013-01-08 12:53:00,43.5,26.6,30.21,WSW,238,2.0,5.0,51,0.00,,SCT060,0.00,VWS V14.01,2013-01-08 17:53:00,
2013-01-08 12:54:00,43.5,27.1,30.21,WNW,297,2.0,3.0,52,0.00,,SCT060,0.00,VWS V14.01,2013-01-08 17:54:00,
2013-01-08 12:55:00,43.6,27.1,30.21,WSW,255,6.0,6.0,52,0.00,,BKN250,0.00,VWS V14.01,2013-01-08 17:55:00,
2013-01-08 12:56:00,43.6,27.1,30.21,WSW,255,6.0,6.0,52,0.00,,SCT060,0.00,VWS V14.01,2013-01-08 17:56:00,
2013-01-08 12:57:00,43.6,26.7,30.20,WSW,255,4.0,6.0,51,0.00,,SCT060,0.00,VWS V14.01,2013-01-08 17:57:00,
2013-01-08 12:58:00,43.6,26.7,30.20,SW,215,2.0,5.0,51,0.00,,SCT060,0.00,VWS V14.01,2013-01-08 17:58:00,
2013-01-08 12:59:00,43.7,26.8,30.20,West,266,1.0,2.0,51,0.00,,SCT060,0.00,VWS V14.01,2013-01-08 17:59:00,
2013-01-08 13:00:00,43.8,26.9,30.20,NW,309,1.0,3.0,51,0.00,,BKN250,0.00,VWS V14.01,2013-01-08 18:00:00,
2013-01-08 13:01:00,43.8,26.9,30.20,NW,309,1.0,3.0,51,0.00,,SCT060,0.00,VWS V14.01,2013-01-08 18:01:00,
2013-01-08 13:02:00,43.9,27.0,30.20,West,271,4.0,6.0,51,0.00,,SCT060,0.00,VWS V14.01,2013-01-08 18:02:00,
2013-01-08 13:03:00,43.9,26.5,30.20,SW,214,7.0,9.0,50,0.00,,SCT060,0.00,VWS V14.01,2013-01-08 18:03:00,
2013-01-08 13:04:00,43.9,26.5,30.20,WSW,256,3.0,7.0,50,0.00,,SCT060,0.00,VWS V14.01,2013-01-08 18:04:00,
2013-01-08 13:05:00,43.9,27.0,30.20,NNW,333,2.0,6.0,51,0.00,,BKN250,0.00,VWS V14.01,2013-01-08 18:05:00,
2013-01-08 13:06:00,43.9,27.0,30.20,NNW,333,2.0,6.0,51,0.00,,SCT060,0.00,VWS V14.01,2013-01-08 18:06:00,
2013-01-08 13:07:00,43.9,27.0,30.20,West,270,3.0,3.0,51,0.00,,SCT060,0.00,VWS V14.01,2013-01-08 18:07:00,
2013-01-08 13:08:00,44.0,26.6,30.20,West,266,7.0,7.0,50,0.00,,SCT060,0.00,VWS V14.01,2013-01-08 18:08:00,
2013-01-08 13:09:00,44.0,26.6,30.20,WSW,246,5.0,8.0,50,0.00,,SCT060,0.00,VWS V14.01,2013-01-08 18:09:00,
2013-01-08 13:10:00,44.1,26.7,30.20,West,274,2.0,6.0,50,0.00,,BKN250,0.00,VWS V14.01,2013-01-08 18:10:00,
2013-01-08 13:11:00,44.1,26.7,30.20,West,274,2.0,6.0,50,0.00,,SCT060,0.00,VWS V14.01,2013-01-08 18:11:00,
2013-01-08 13:12:00,44.1,26.7,30.20,South,174,3.0,5.0,50,0.00,,SCT060,0.00,VWS V14.01,2013-01-08 18:12:00,
2013-01-08 13:13:00,44.2,26.8,30.20,West,281,3.0,6.0,50,0.00,,SCT060,0.00,VWS V14.01,2013-01-08 18:13:00,
2013-01-08 13:14:00,44.2,26.8,30.20,WSW,256,6.0,7.0,50,0.00,,SCT060,0.00,VWS V14.01,2013-01-08 18:14:00,
2013-01-08 13:15:00,44.3,26.9,30.20,West,260,4.0,6.0,50,0.00,,BKN250,0.00,VWS V14.01,2013-01-08 18:15:00,
2013-01-08 13:16:00,44.3,26.9,30.20,West,260,4.0,6.0,50,0.00,,SCT060,0.00,VWS V14.01,2013-01-08 18:16:00,
2013-01-08 13:17:00,44.3,26.9,30.20,WNW,290,2.0,5.0,50,0.00,,SCT060,0.00,VWS V14.01,2013-01-08 18:17:00,
2013-01-08 13:18:00,44.4,26.9,30.20,WSW,238,6.0,6.0,50,0.00,,SCT060,0.00,VWS V14.01,2013-01-08 18:18:00,
2013-01-08 13:19:00,44.4,26.9,30.20,WNW,284,3.0,6.0,50,0.00,,SCT060,0.00,VWS V14.01,2013-01-08 18:19:00,
2013-01-08 13:20:00,44.5,27.0,30.20,West,268,1.0,4.0,50,0.00,,BKN250,0.00,VWS V14.01,2013-01-08 18:20:00,
2013-01-08 13:21:00,44.5,27.0,30.20,West,268,1.0,4.0,50,0.00,,SCT060,0.00,VWS V14.01,2013-01-08 18:21:00,
2013-01-08 13:22:00,44.6,27.1,30.20,West,273,3.0,5.0,50,0.00,,SCT060,0.00,VWS V14.01,2013-01-08 18:22:00,
2013-01-08 13:23:00,44.6,26.6,30.20,North,9,4.0,6.0,49,0.00,,SCT060,0.00,VWS V14.01,2013-01-08 18:23:00,
2013-01-08 13:24:00,44.6,26.6,30.20,WNW,284,2.0,6.0,49,0.00,,SCT060,0.00,VWS V14.01,2013-01-08 18:24:00,
2013-01-08 13:25:00,44.6,26.6,30.20,SW,232,5.0,9.0,49,0.00,,BKN250,0.00,VWS V14.01,2013-01-08 18:25:00,
2013-01-08 13:26:00,44.6,26.6,30.20,SW,232,5.0,9.0,49,0.00,,SCT060,0.00,VWS V14.01,2013-01-08 18:26:00,
2013-01-08 13:27:00,44.6,26.6,30.20,WSW,256,5.0,7.0,49,0.00,,SCT060,0.00,VWS V14.01,2013-01-08 18:27:00,
2013-01-08 13:28:00,44.6,26.6,30.20,WSW,256,3.0,5.0,49,0.00,,SCT060,0.00,VWS V14.01,2013-01-08 18:28:00,
2013-01-08 13:29:00,44.6,27.1,30.20,West,269,1.0,4.0,50,0.00,,SCT060,0.00,VWS V14.01,2013-01-08 18:29:00,
2013-01-08 13:30:00,44.7,26.7,30.20,West,264,3.0,5.0,49,0.00,,BKN250,0.00,VWS V14.01,2013-01-08 18:30:00,
2013-01-08 13:31:00,44.7,26.7,30.20,West,264,3.0,5.0,49,0.00,,SCT060,0.00,VWS V14.01,2013-01-08 18:31:00,
2013-01-08 13:32:00,44.7,26.7,30.20,WSW,256,2.0,5.0,49,0.00,,SCT060,0.00,VWS V14.01,2013-01-08 18:32:00,
2013-01-08 13:33:00,44.8,26.8,30.20,WNW,285,3.0,4.0,49,0.00,,SCT060,0.00,VWS V14.01,2013-01-08 18:33:00,
2013-01-08 13:34:00,44.7,26.7,30.20,SW,226,3.0,3.0,49,0.00,,SCT060,0.00,VWS V14.01,2013-01-08 18:34:00,
2013-01-08 13:35:00,44.8,27.3,30.20,SSW,207,2.0,3.0,50,0.00,,BKN250,0.00,VWS V14.01,2013-01-08 18:35:00,
2013-01-08 13:36:00,44.8,27.3,30.20,SSW,207,2.0,3.0,50,0.00,,SCT060,0.00,VWS V14.01,2013-01-08 18:36:00,
2013-01-08 13:37:00,44.9,26.9,30.20,West,264,2.0,4.0,49,0.00,,SCT060,0.00,VWS V14.01,2013-01-08 18:37:00,
2013-01-08 13:38:00,44.9,26.9,30.20,West,270,2.0,5.0,49,0.00,,SCT060,0.00,VWS V14.01,2013-01-08 18:38:00,
2013-01-08 13:40:00,44.9,26.9,30.20,WSW,256,3.0,5.0,49,0.00,,BKN250,0.00,VWS V14.01,2013-01-08 18:40:00,
2013-01-08 13:41:00,44.9,26.9,30.20,WSW,256,3.0,5.0,49,0.00,,SCT060,0.00,VWS V14.01,2013-01-08 18:41:00,
2013-01-08 13:42:00,44.9,26.9,30.20,WSW,255,2.0,3.0,49,0.00,,SCT060,0.00,VWS V14.01,2013-01-08 18:42:00,
2013-01-08 13:43:00,45.0,27.0,30.20,East,96,2.0,3.0,49,0.00,,SCT060,0.00,VWS V14.01,2013-01-08 18:43:00,
2013-01-08 13:44:00,45.0,27.0,30.20,WSW,250,3.0,3.0,49,0.00,,SCT060,0.00,VWS V14.01,2013-01-08 18:44:00,
2013-01-08 13:45:00,45.1,27.1,30.20,WSW,253,4.0,5.0,49,0.00,,BKN250,0.00,VWS V14.01,2013-01-08 18:45:00,
2013-01-08 13:46:00,45.1,27.1,30.20,WSW,253,4.0,5.0,49,0.00,,SCT060,0.00,VWS V14.01,2013-01-08 18:46:00,
2013-01-08 13:47:00,45.1,27.1,30.20,WNW,285,3.0,5.0,49,0.00,,SCT060,0.00,VWS V14.01,2013-01-08 18:47:00,
2013-01-08 13:48:00,45.1,27.1,30.20,WSW,246,3.0,4.0,49,0.00,,SCT060,0.00,VWS V14.01,2013-01-08 18:48:00,
2013-01-08 13:49:00,45.1,27.1,30.20,West,263,2.0,3.0,49,0.00,,SCT060,0.00,VWS V14.01,2013-01-08 18:49:00,
2013-01-08 13:50:00,45.2,27.2,30.20,West,264,1.0,4.0,49,0.00,,BKN250,0.00,VWS V14.01,2013-01-08 18:50:00,
2013-01-08 13:51:00,45.2,27.2,30.20,West,264,1.0,4.0,49,0.00,,SCT060,0.00,VWS V14.01,2013-01-08 18:51:00,
2013-01-08 13:52:00,45.2,27.2,30.20,WSW,256,2.0,4.0,49,0.00,,SCT060,0.00,VWS V14.01,2013-01-08 18:52:00,
2013-01-08 13:53:00,45.2,27.2,30.20,WSW,258,0.0,3.0,49,0.00,,SCT060,0.00,VWS V14.01,2013-01-08 18:53:00,
2013-01-08 13:54:00,45.2,27.2,30.20,SW,228,3.0,4.0,49,0.00,,SCT060,0.00,VWS V14.01,2013-01-08 18:54:00,
2013-01-08 13:55:00,45.3,27.3,30.20,ENE,68,1.0,4.0,49,0.00,,BKN250,0.00,VWS V14.01,2013-01-08 18:55:00,
2013-01-08 13:56:00,45.3,27.3,30.20,ENE,68,1.0,4.0,49,0.00,,SCT060,0.00,VWS V14.01,2013-01-08 18:56:00,
2013-01-08 13:57:00,45.3,27.3,30.21,WSW,243,5.0,5.0,49,0.00,,SCT060,0.00,VWS V14.01,2013-01-08 18:57:00,
2013-01-08 13:58:00,45.3,26.8,30.21,WSW,239,4.0,5.0,48,0.00,,SCT060,0.00,VWS V14.01,2013-01-08 18:58:00,
2013-01-08 13:59:00,45.3,27.3,30.21,West,280,4.0,6.0,49,0.00,,SCT060,0.00,VWS V14.01,2013-01-08 18:59:00,
2013-01-08 14:00:00,45.2,26.7,30.20,West,266,2.0,9.0,48,0.00,,BKN250,0.00,VWS V14.01,2013-01-08 19:00:00,
2013-01-08 14:01:00,45.2,26.7,30.20,West,266,2.0,9.0,48,0.00,,SCT060,0.00,VWS V14.01,2013-01-08 19:01:00,
2013-01-08 14:02:00,45.2,27.2,30.20,SW,214,1.0,8.0,49,0.00,,SCT060,0.00,VWS V14.01,2013-01-08 19:02:00,
2013-01-08 14:03:00,45.2,27.2,30.20,NE,44,2.0,4.0,49,0.00,,SCT060,0.00,VWS V14.01,2013-01-08 19:03:00,
2013-01-08 14:04:00,45.2,27.2,30.20,NNW,330,3.0,7.0,49,0.00,,SCT060,0.00,VWS V14.01,2013-01-08 19:04:00,
2013-01-08 14:05:00,45.2,27.2,30.20,West,273,1.0,3.0,49,0.00,,BKN250,0.00,VWS V14.01,2013-01-08 19:05:00,
2013-01-08 14:06:00,45.2,27.2,30.20,West,273,1.0,3.0,49,0.00,,SCT060,0.00,VWS V14.01,2013-01-08 19:06:00,
2013-01-08 14:07:00,45.3,27.3,30.20,West,263,2.0,3.0,49,0.00,,SCT060,0.00,VWS V14.01,2013-01-08 19:07:00,
2013-01-08 14:08:00,45.3,27.3,30.21,West,277,1.0,4.0,49,0.00,,SCT060,0.00,VWS V14.01,2013-01-08 19:08:00,
2013-01-08 14:09:00,45.3,27.3,30.21,North,1,5.0,5.0,49,0.00,,SCT060,0.00,VWS V14.01,2013-01-08 19:09:00,
2013-01-08 14:10:00,45.2,27.2,30.21,WSW,256,3.0,3.0,49,0.00,,BKN250,0.00,VWS V14.01,2013-01-08 19:10:00,
2013-01-08 14:11:00,45.2,27.2,30.21,WSW,256,3.0,3.0,49,0.00,,SCT060,0.00,VWS V14.01,2013-01-08 19:11:00,
2013-01-08 14:12:00,45.2,27.2,30.21,West,274,7.0,7.0,49,0.00,,SCT060,0.00,VWS V14.01,2013-01-08 19:12:00,
2013-01-08 14:13:00,45.2,27.2,30.21,NNW,340,3.0,7.0,49,0.00,,SCT060,0.00,VWS V14.01,2013-01-08 19:13:00,
2013-01-08 14:14:00,45.2,26.7,30.21,SW,231,4.0,8.0,48,0.00,,SCT060,0.00,VWS V14.01,2013-01-08 19:14:00,
2013-01-08 14:15:00,45.1,27.1,30.21,WSW,255,2.0,8.0,49,0.00,,BKN250,0.00,VWS V14.01,2013-01-08 19:15:00,
2013-01-08 14:16:00,45.1,27.1,30.21,WSW,255,2.0,8.0,49,0.00,,SCT060,0.00,VWS V14.01,2013-01-08 19:16:00,
2013-01-08 14:17:00,45.1,26.6,30.21,WNW,282,4.0,7.0,48,0.00,,SCT060,0.00,VWS V14.01,2013-01-08 19:17:00,
2013-01-08 14:18:00,45.1,26.6,30.21,West,271,3.0,7.0,48,0.00,,SCT060,0.00,VWS V14.01,2013-01-08 19:18:00,
2013-01-08 14:19:00,45.1,27.1,30.21,WSW,238,2.0,5.0,49,0.00,,SCT060,0.00,VWS V14.01,2013-01-08 19:19:00,
2013-01-08 14:20:00,45.0,26.5,30.21,WSW,243,1.0,7.0,48,0.00,,BKN250,0.00,VWS V14.01,2013-01-08 19:20:00,
2013-01-08 14:21:00,45.0,26.5,30.21,WSW,243,1.0,7.0,48,0.00,,SCT060,0.00,VWS V14.01,2013-01-08 19:21:00,
2013-01-08 14:22:00,45.0,27.0,30.21,WSW,240,4.0,5.0,49,0.00,,SCT060,0.00,VWS V14.01,2013-01-08 19:22:00,
2013-01-08 14:23:00,45.0,27.0,30.21,SW,231,1.0,5.0,49,0.00,,SCT060,0.00,VWS V14.01,2013-01-08 19:23:00,
2013-01-08 14:24:00,45.0,27.0,30.21,West,264,1.0,4.0,49,0.00,,SCT060,0.00,VWS V14.01,2013-01-08 19:24:00,
2013-01-08 14:25:00,45.1,27.1,30.21,WSW,252,3.0,4.0,49,0.00,,BKN250,0.00,VWS V14.01,2013-01-08 19:25:00,
2013-01-08 14:26:00,45.1,27.1,30.21,WSW,252,3.0,4.0,49,0.00,,SCT060,0.00,VWS V14.01,2013-01-08 19:26:00,
2013-01-08 14:27:00,45.1,27.1,30.21,WSW,248,8.0,8.0,49,0.00,,SCT060,0.00,VWS V14.01,2013-01-08 19:27:00,
2013-01-08 14:28:00,45.1,27.1,30.21,WNW,297,3.0,8.0,49,0.00,,SCT060,0.00,VWS V14.01,2013-01-08 19:28:00,
2013-01-08 14:29:00,45.2,27.2,30.21,WSW,238,1.0,3.0,49,0.00,,SCT060,0.00,VWS V14.01,2013-01-08 19:29:00,
2013-01-08 14:30:00,45.3,27.3,30.21,West,273,2.0,3.0,49,0.00,,BKN250,0.00,VWS V14.01,2013-01-08 19:30:00,
2013-01-08 14:31:00,45.3,27.3,30.21,West,273,2.0,3.0,49,0.00,,SCT060,0.00,VWS V14.01,2013-01-08 19:31:00,
2013-01-08 14:32:00,45.4,27.4,30.21,West,277,1.0,3.0,49,0.00,,SCT060,0.00,VWS V14.01,2013-01-08 19:32:00,
2013-01-08 14:33:00,45.5,27.5,30.21,West,277,1.0,4.0,49,0.00,,SCT060,0.00,VWS V14.01,2013-01-08 19:33:00,
2013-01-08 14:34:00,45.5,27.0,30.21,West,264,3.0,3.0,48,0.00,,SCT060,0.00,VWS V14.01,2013-01-08 19:34:00,
2013-01-08 14:35:00,45.6,27.1,30.21,West,277,1.0,2.0,48,0.00,,BKN250,0.00,VWS V14.01,2013-01-08 19:35:00,
2013-01-08 14:36:00,45.6,27.1,30.21,West,277,1.0,2.0,48,0.00,,SCT060,0.00,VWS V14.01,2013-01-08 19:36:00,
2013-01-08 14:37:00,45.6,27.1,30.21,West,274,2.0,3.0,48,0.00,,SCT060,0.00,VWS V14.01,2013-01-08 19:37:00,
2013-01-08 14:38:00,45.7,27.1,30.21,WNW,283,2.0,4.0,48,0.00,,SCT060,0.00,VWS V14.01,2013-01-08 19:38:00,
2013-01-08 14:39:00,45.7,27.1,30.21,West,263,4.0,4.0,48,0.00,,SCT060,0.00,VWS V14.01,2013-01-08 19:39:00,
2013-01-08 14:40:00,45.6,27.1,30.21,WSW,249,1.0,7.0,48,0.00,,BKN250,0.00,VWS V14.01,2013-01-08 19:40:00,
2013-01-08 14:41:00,45.6,27.1,30.21,WSW,249,1.0,7.0,48,0.00,,SCT060,0.00,VWS V14.01,2013-01-08 19:41:00,
2013-01-08 14:42:00,45.6,27.1,30.21,WSW,243,4.0,4.0,48,0.00,,SCT060,0.00,VWS V14.01,2013-01-08 19:42:00,
2013-01-08 14:43:00,45.6,27.1,30.21,WSW,257,2.0,6.0,48,0.00,,SCT060,0.00,VWS V14.01,2013-01-08 19:43:00,
2013-01-08 14:44:00,45.7,27.1,30.21,West,273,3.0,5.0,48,0.00,,SCT060,0.00,VWS V14.01,2013-01-08 19:44:00,
2013-01-08 14:45:00,45.7,27.1,30.21,WSW,243,0.0,3.0,48,0.00,,BKN250,0.00,VWS V14.01,2013-01-08 19:45:00,
2013-01-08 14:46:00,45.7,27.1,30.21,SW,226,3.0,5.0,48,0.00,,SCT060,0.00,VWS V14.01,2013-01-08 19:46:00,
2013-01-08 14:47:00,45.7,27.1,30.21,WSW,240,0.0,3.0,48,0.00,,SCT060,0.00,VWS V14.01,2013-01-08 19:47:00,
2013-01-08 14:48:00,45.7,27.1,30.22,WSW,251,1.0,2.0,48,0.00,,SCT060,0.00,VWS V14.01,2013-01-08 19:48:00,
2013-01-08 14:49:00,45.8,27.2,30.22,West,268,2.0,3.0,48,0.00,,SCT060,0.00,VWS V14.01,2013-01-08 19:49:00,
2013-01-08 14:50:00,45.8,27.2,30.22,NW,311,2.0,2.0,48,0.00,,BKN250,0.00,VWS V14.01,2013-01-08 19:50:00,
2013-01-08 14:51:00,45.8,27.2,30.22,NNW,330,1.0,8.0,48,0.00,,SCT060,0.00,VWS V14.01,2013-01-08 19:51:00,
2013-01-08 14:52:00,45.8,27.2,30.22,West,276,2.0,4.0,48,0.00,,SCT060,0.00,VWS V14.01,2013-01-08 19:52:00,
2013-01-08 14:53:00,45.7,27.1,30.22,West,273,2.0,4.0,48,0.00,,SCT060,0.00,VWS V14.01,2013-01-08 19:53:00,
2013-01-08 14:54:00,45.7,27.1,30.22,West,276,1.0,5.0,48,0.00,,SCT060,0.00,VWS V14.01,2013-01-08 19:54:00,
2013-01-08 14:55:00,45.8,27.2,30.22,West,269,3.0,4.0,48,0.00,,BKN250,0.00,VWS V14.01,2013-01-08 19:55:00,
2013-01-08 14:56:00,45.8,27.2,30.22,WSW,254,2.0,3.0,48,0.00,,SCT060,0.00,VWS V14.01,2013-01-08 19:56:00,
2013-01-08 14:57:00,45.8,27.2,30.22,WNW,287,3.0,4.0,48,0.00,,SCT060,0.00,VWS V14.01,2013-01-08 19:57:00,
2013-01-08 14:58:00,45.9,27.3,30.22,WSW,250,1.0,5.0,48,0.00,,SCT060,0.00,VWS V14.01,2013-01-08 19:58:00,
2013-01-08 14:59:00,45.9,27.3,30.22,WSW,246,5.0,5.0,48,0.00,,SCT060,0.00,VWS V14.01,2013-01-08 19:59:00,
2013-01-08 15:00:00,45.9,27.3,30.22,WSW,257,4.0,6.0,48,0.00,,SCT060,0.00,VWS V14.01,2013-01-08 20:00:00,
2013-01-08 15:01:00,45.9,27.3,30.22,WNW,284,4.0,7.0,48,0.00,,BKN250,0.00,VWS V14.01,2013-01-08 20:01:00,
2013-01-08 15:02:00,45.9,27.3,30.22,West,259,2.0,7.0,48,0.00,,SCT060,0.00,VWS V14.01,2013-01-08 20:02:00,
2013-01-08 15:03:00,45.9,27.3,30.22,WSW,240,7.0,7.0,48,0.00,,SCT060,0.00,VWS V14.01,2013-01-08 20:03:00,
2013-01-08 15:04:00,45.8,27.2,30.22,SSE,150,2.0,9.0,48,0.00,,SCT060,0.00,VWS V14.01,2013-01-08 20:04:00,
2013-01-08 15:05:00,45.7,27.1,30.22,SW,229,5.0,9.0,48,0.00,,SCT060,0.00,VWS V14.01,2013-01-08 20:05:00,
2013-01-08 15:06:00,45.7,27.1,30.22,West,270,1.0,5.0,48,0.00,,BKN250,0.00,VWS V14.01,2013-01-08 20:06:00,
2013-01-08 15:07:00,45.7,27.1,30.22,West,270,1.0,5.0,48,0.00,,SCT060,0.00,VWS V14.01,2013-01-08 20:07:00,
2013-01-08 15:08:00,45.7,27.1,30.22,West,278,4.0,6.0,48,0.00,,SCT060,0.00,VWS V14.01,2013-01-08 20:08:00,
2013-01-08 15:09:00,45.7,27.1,30.22,West,271,4.0,5.0,48,0.00,,SCT060,0.00,VWS V14.01,2013-01-08 20:09:00,
2013-01-08 15:10:00,45.7,27.1,30.22,SW,217,4.0,6.0,48,0.00,,SCT060,0.00,VWS V14.01,2013-01-08 20:10:00,
2013-01-08 15:11:00,45.8,27.2,30.22,WSW,240,3.0,3.0,48,0.00,,BKN250,0.00,VWS V14.01,2013-01-08 20:11:00,
2013-01-08 15:12:00,45.8,27.2,30.22,WSW,240,3.0,3.0,48,0.00,,SCT060,0.00,VWS V14.01,2013-01-08 20:12:00,
2013-01-08 15:13:00,45.8,27.2,30.22,WSW,246,2.0,3.0,48,0.00,,SCT060,0.00,VWS V14.01,2013-01-08 20:13:00,
2013-01-08 15:14:00,45.8,27.2,30.22,WSW,238,10.0,10.0,48,0.00,,SCT060,0.00,VWS V14.01,2013-01-08 20:14:00,
2013-01-08 15:15:00,45.8,27.2,30.22,WSW,238,3.0,10.0,48,0.00,,SCT060,0.00,VWS V14.01,2013-01-08 20:15:00,
2013-01-08 15:16:00,45.8,27.2,30.22,West,259,3.0,5.0,48,0.00,,BKN250,0.00,VWS V14.01,2013-01-08 20:16:00,
2013-01-08 15:17:00,45.8,27.2,30.22,West,259,3.0,5.0,48,0.00,,SCT060,0.00,VWS V14.01,2013-01-08 20:17:00,
2013-01-08 15:18:00,45.7,27.1,30.22,WSW,250,2.0,4.0,48,0.00,,SCT060,0.00,VWS V14.01,2013-01-08 20:18:00,
2013-01-08 15:19:00,45.7,27.1,30.22,SW,230,3.0,3.0,48,0.00,,SCT060,0.00,VWS V14.01,2013-01-08 20:19:00,
2013-01-08 15:20:00,45.7,27.1,30.22,WSW,253,2.0,9.0,48,0.00,,SCT060,0.00,VWS V14.01,2013-01-08 20:20:00,
2013-01-08 15:21:00,45.6,27.6,30.22,West,280,1.0,3.0,49,0.00,,BKN250,0.00,VWS V14.01,2013-01-08 20:21:00,
2013-01-08 15:22:00,45.6,27.6,30.22,West,280,1.0,3.0,49,0.00,,SCT060,0.00,VWS V14.01,2013-01-08 20:22:00,
2013-01-08 15:23:00,45.5,27.5,30.22,NW,319,1.0,3.0,49,0.00,,SCT060,0.00,VWS V14.01,2013-01-08 20:23:00,
2013-01-08 15:24:00,45.5,27.5,30.22,WSW,243,5.0,6.0,49,0.00,,SCT060,0.00,VWS V14.01,2013-01-08 20:24:00,
2013-01-08 15:25:00,45.4,27.4,30.22,SW,236,3.0,5.0,49,0.00,,SCT060,0.00,VWS V14.01,2013-01-08 20:25:00,
2013-01-08 15:26:00,45.3,27.3,30.22,West,281,2.0,2.0,49,0.00,,BKN250,0.00,VWS V14.01,2013-01-08 20:26:00,
2013-01-08 15:27:00,45.3,27.3,30.22,West,281,2.0,2.0,49,0.00,,SCT060,0.00,VWS V14.01,2013-01-08 20:27:00,
2013-01-08 15:28:00,45.2,27.2,30.22,WSW,250,2.0,4.0,49,0.00,,SCT060,0.00,VWS V14.01,2013-01-08 20:28:00,
2013-01-08 15:29:00,45.1,27.1,30.22,SW,219,1.0,3.0,49,0.00,,SCT060,0.00,VWS V14.01,2013-01-08 20:29:00,
2013-01-08 15:30:00,45.1,27.6,30.22,WSW,250,5.0,5.0,50,0.00,,SCT060,0.00,VWS V14.01,2013-01-08 20:30:00,
2013-01-08 15:31:00,44.9,27.4,30.22,West,270,1.0,3.0,50,0.00,,BKN250,0.00,VWS V14.01,2013-01-08 20:31:00,
2013-01-08 15:32:00,44.9,27.4,30.22,West,270,1.0,3.0,50,0.00,,SCT060,0.00,VWS V14.01,2013-01-08 20:32:00,
2013-01-08 15:33:00,44.8,27.3,30.22,WSW,252,3.0,4.0,50,0.00,,SCT060,0.00,VWS V14.01,2013-01-08 20:33:00,
2013-01-08 15:34:00,44.8,27.3,30.22,WSW,257,5.0,8.0,50,0.00,,SCT060,0.00,VWS V14.01,2013-01-08 20:34:00,
2013-01-08 15:35:00,44.7,27.2,30.22,WSW,255,1.0,5.0,50,0.00,,SCT060,0.00,VWS V14.01,2013-01-08 20:35:00,
2013-01-08 15:36:00,44.6,27.1,30.22,West,261,2.0,2.0,50,0.00,,BKN250,0.00,VWS V14.01,2013-01-08 20:36:00,
2013-01-08 15:37:00,44.6,27.1,30.22,West,261,2.0,2.0,50,0.00,,SCT060,0.00,VWS V14.01,2013-01-08 20:37:00,
2013-01-08 15:38:00,44.6,27.1,30.23,WSW,242,2.0,3.0,50,0.00,,SCT060,0.00,VWS V14.01,2013-01-08 20:38:00,
2013-01-08 15:39:00,44.5,27.0,30.23,SW,233,2.0,8.0,50,0.00,,SCT060,0.00,VWS V14.01,2013-01-08 20:39:00,
2013-01-08 15:40:00,44.5,27.0,30.23,West,266,2.0,6.0,50,0.00,,SCT060,0.00,VWS V14.01,2013-01-08 20:40:00,
2013-01-08 15:41:00,44.4,26.9,30.23,West,259,0.0,4.0,50,0.00,,BKN250,0.00,VWS V14.01,2013-01-08 20:41:00,
2013-01-08 15:42:00,44.4,26.9,30.23,West,259,0.0,4.0,50,0.00,,SCT060,0.00,VWS V14.01,2013-01-08 20:42:00,
2013-01-08 15:43:00,44.3,27.3,30.23,WSW,248,7.0,9.0,51,0.00,,SCT060,0.00,VWS V14.01,2013-01-08 20:43:00,
2013-01-08 15:44:00,44.3,26.9,30.23,SW,222,7.0,7.0,50,0.00,,SCT060,0.00,VWS V14.01,2013-01-08 20:44:00,
2013-01-08 15:45:00,44.3,27.3,30.22,SW,228,1.0,7.0,51,0.00,,SCT060,0.00,VWS V14.01,2013-01-08 20:45:00,
2013-01-08 15:46:00,44.2,27.2,30.23,West,273,1.0,3.0,51,0.00,,BKN250,0.00,VWS V14.01,2013-01-08 20:46:00,
2013-01-08 15:47:00,44.2,27.2,30.23,West,273,1.0,3.0,51,0.00,,SCT060,0.00,VWS V14.01,2013-01-08 20:47:00,
2013-01-08 15:48:00,44.1,27.1,30.23,WSW,250,1.0,1.0,51,0.00,,SCT060,0.00,VWS V14.01,2013-01-08 20:48:00,
2013-01-08 15:49:00,44.1,27.1,30.23,West,274,3.0,5.0,51,0.00,,SCT060,0.00,VWS V14.01,2013-01-08 20:49:00,
2013-01-08 15:50:00,44.0,27.0,30.23,WSW,250,1.0,4.0,51,0.00,,SCT060,0.00,VWS V14.01,2013-01-08 20:50:00,
2013-01-08 15:51:00,43.9,27.4,30.23,SW,217,2.0,7.0,52,0.00,,BKN250,0.00,VWS V14.01,2013-01-08 20:51:00,
2013-01-08 15:52:00,43.9,27.4,30.23,SW,217,2.0,7.0,52,0.00,,SCT060,0.00,VWS V14.01,2013-01-08 20:52:00,
2013-01-08 15:53:00,43.9,27.4,30.23,WSW,249,4.0,7.0,52,0.00,,SCT060,0.00,VWS V14.01,2013-01-08 20:53:00,
2013-01-08 15:54:00,43.8,27.3,30.23,West,269,2.0,3.0,52,0.00,,SCT060,0.00,VWS V14.01,2013-01-08 20:54:00,
2013-01-08 15:56:00,43.6,27.1,30.23,West,277,2.0,6.0,52,0.00,,BKN250,0.00,VWS V14.01,2013-01-08 20:56:00,
2013-01-08 15:57:00,43.6,27.1,30.23,West,277,2.0,6.0,52,0.00,,SCT060,0.00,VWS V14.01,2013-01-08 20:57:00,
2013-01-08 15:58:00,43.6,27.1,30.23,WSW,256,2.0,5.0,52,0.00,,SCT060,0.00,VWS V14.01,2013-01-08 20:58:00,
2013-01-08 15:59:00,43.6,27.1,30.23,West,264,1.0,4.0,52,0.00,,SCT060,0.00,VWS V14.01,2013-01-08 20:59:00,
2013-01-08 16:01:00,43.5,27.1,30.23,West,263,2.0,2.0,52,0.00,,BKN250,0.00,VWS V14.01,2013-01-08 21:01:00,
2013-01-08 16:02:00,43.5,27.1,30.23,West,263,2.0,2.0,52,0.00,,SCT060,0.00,VWS V14.01,2013-01-08 21:02:00,
2013-01-08 16:03:00,43.4,27.0,30.23,ENE,77,1.0,2.0,52,0.00,,SCT060,0.00,VWS V14.01,2013-01-08 21:03:00,
2013-01-08 16:04:00,43.3,26.9,30.23,NNW,327,2.0,4.0,52,0.00,,SCT060,0.00,VWS V14.01,2013-01-08 21:04:00,
2013-01-08 16:05:00,43.3,26.9,30.23,West,273,0.0,3.0,52,0.00,,SCT060,0.00,VWS V14.01,2013-01-08 21:05:00,
2013-01-08 16:06:00,43.2,27.2,30.23,West,266,0.0,1.0,53,0.00,,BKN250,0.00,VWS V14.01,2013-01-08 21:06:00,
2013-01-08 16:07:00,43.2,27.2,30.23,West,266,0.0,1.0,53,0.00,,SCT060,0.00,VWS V14.01,2013-01-08 21:07:00,
2013-01-08 16:09:00,43.2,26.8,30.23,West,270,2.0,3.0,52,0.00,,SCT060,0.00,VWS V14.01,2013-01-08 21:09:00,
2013-01-08 16:10:00,43.1,27.1,30.23,WNW,283,1.0,2.0,53,0.00,,SCT060,0.00,VWS V14.01,2013-01-08 21:10:00,
2013-01-08 16:11:00,43.0,27.0,30.23,WSW,250,1.0,1.0,53,0.00,,BKN250,0.00,VWS V14.01,2013-01-08 21:11:00,
2013-01-08 16:12:00,43.0,27.1,30.23,WSW,250,1.0,2.0,53,0.00,,SCT060,0.00,VWS V14.01,2013-01-08 21:12:00,
2013-01-08 16:13:00,43.0,27.1,30.23,WSW,257,1.0,2.0,53,0.00,,SCT060,0.00,VWS V14.01,2013-01-08 21:13:00,
2013-01-08 16:14:00,42.9,27.0,30.23,WSW,237,1.0,2.0,53,0.00,,SCT060,0.00,VWS V14.01,2013-01-08 21:14:00,
2013-01-08 16:15:00,42.9,27.4,30.23,WSW,248,1.0,1.0,54,0.00,,SCT060,0.00,VWS V14.01,2013-01-08 21:15:00,
2013-01-08 16:16:00,42.7,27.2,30.23,SSW,194,3.0,3.0,54,0.00,,BKN250,0.00,VWS V14.01,2013-01-08 21:16:00,
2013-01-08 16:17:00,42.7,27.2,30.23,SSW,194,3.0,3.0,54,0.00,,SCT060,0.00,VWS V14.01,2013-01-08 21:17:00,
2013-01-08 16:18:00,42.7,27.2,30.23,SW,231,1.0,3.0,54,0.00,,SCT060,0.00,VWS V14.01,2013-01-08 21:18:00,
2013-01-08 16:19:00,42.6,27.1,30.23,SSW,203,1.0,3.0,54,0.00,,SCT060,0.00,VWS V14.01,2013-01-08 21:19:00,
2013-01-08 16:20:00,42.5,27.0,30.23,WSW,257,2.0,5.0,54,0.00,,SCT060,0.00,VWS V14.01,2013-01-08 21:20:00,
2013-01-08 16:21:00,42.4,27.0,30.24,SW,232,0.0,0.0,54,0.00,,BKN250,0.00,VWS V14.01,2013-01-08 21:21:00,
2013-01-08 16:22:00,42.4,27.0,30.23,SW,232,0.0,1.0,54,0.00,,SCT060,0.00,VWS V14.01,2013-01-08 21:22:00,
2013-01-08 16:23:00,42.4,27.0,30.24,WSW,251,3.0,7.0,54,0.00,,SCT060,0.00,VWS V14.01,2013-01-08 21:23:00,
2013-01-08 16:24:00,42.3,26.9,30.23,SW,221,1.0,3.0,54,0.00,,SCT060,0.00,VWS V14.01,2013-01-08 21:24:00,
2013-01-08 16:25:00,42.3,27.3,30.23,WSW,237,1.0,2.0,55,0.00,,SCT060,0.00,VWS V14.01,2013-01-08 21:25:00,
2013-01-08 16:26:00,42.2,27.2,30.23,WSW,256,2.0,3.0,55,0.00,,BKN250,0.00,VWS V14.01,2013-01-08 21:26:00,
2013-01-08 16:27:00,42.2,27.2,30.23,WSW,246,3.0,4.0,55,0.00,,SCT060,0.00,VWS V14.01,2013-01-08 21:27:00,
2013-01-08 16:28:00,42.2,26.8,30.23,WSW,253,1.0,3.0,54,0.00,,SCT060,0.00,VWS V14.01,2013-01-08 21:28:00,
2013-01-08 16:29:00,42.1,26.7,30.23,WSW,246,1.0,2.0,54,0.00,,SCT060,0.00,VWS V14.01,2013-01-08 21:29:00,
2013-01-08 16:30:00,42.1,27.1,30.24,South,188,4.0,6.0,55,0.00,,SCT060,0.00,VWS V14.01,2013-01-08 21:30:00,
2013-01-08 16:31:00,42.0,27.0,30.24,WSW,250,1.0,1.0,55,0.00,,BKN250,0.00,VWS V14.01,2013-01-08 21:31:00,
2013-01-08 16:32:00,42.0,27.0,30.24,SSE,148,1.0,2.0,55,0.00,,SCT060,0.00,VWS V14.01,2013-01-08 21:32:00,
2013-01-08 16:33:00,42.0,27.0,30.24,WSW,240,0.0,2.0,55,0.00,,SCT060,0.00,VWS V14.01,2013-01-08 21:33:00,
2013-01-08 16:34:00,41.9,26.9,30.24,WSW,253,1.0,3.0,55,0.00,,SCT060,0.00,VWS V14.01,2013-01-08 21:34:00,
2013-01-08 16:35:00,41.9,26.9,30.24,WSW,248,2.0,2.0,55,0.00,,SCT060,0.00,VWS V14.01,2013-01-08 21:35:00,
2013-01-08 16:36:00,41.7,27.2,30.24,SW,226,0.0,1.0,56,0.00,,BKN250,0.00,VWS V14.01,2013-01-08 21:36:00,
2013-01-08 16:37:00,41.7,27.2,30.24,SW,226,1.0,2.0,56,0.00,,SCT060,0.00,VWS V14.01,2013-01-08 21:37:00,
2013-01-08 16:38:00,41.6,27.1,30.24,WSW,258,0.0,1.0,56,0.00,,SCT060,0.00,VWS V14.01,2013-01-08 21:38:00,
2013-01-08 16:39:00,41.6,27.1,30.24,SW,231,0.0,2.0,56,0.00,,SCT060,0.00,VWS V14.01,2013-01-08 21:39:00,
2013-01-08 16:40:00,41.5,27.0,30.24,WSW,240,2.0,2.0,56,0.00,,SCT060,0.00,VWS V14.01,2013-01-08 21:40:00,
2013-01-08 16:41:00,41.4,27.3,30.24,WSW,250,1.0,2.0,57,0.00,,BKN250,0.00,VWS V14.01,2013-01-08 21:41:00,
2013-01-08 16:42:00,41.4,26.9,30.24,WSW,240,1.0,2.0,56,0.00,,SCT060,0.00,VWS V14.01,2013-01-08 21:42:00,
2013-01-08 16:43:00,41.3,27.2,30.24,SW,226,1.0,2.0,57,0.00,,SCT060,0.00,VWS V14.01,2013-01-08 21:43:00,
2013-01-08 16:44:00,41.2,27.1,30.24,WSW,240,0.0,2.0,57,0.00,,SCT060,0.00,VWS V14.01,2013-01-08 21:44:00,
2013-01-08 16:45:00,41.2,27.1,30.24,SW,231,0.0,0.0,57,0.00,,SCT060,0.00,VWS V14.01,2013-01-08 21:45:00,
2013-01-08 16:46:00,41.0,27.0,30.25,West,261,2.0,2.0,57,0.00,,BKN250,0.00,VWS V14.01,2013-01-08 21:46:00,
2013-01-08 16:47:00,41.0,27.0,30.24,South,191,0.0,0.0,57,0.00,,SCT060,0.00,VWS V14.01,2013-01-08 21:47:00,
2013-01-08 16:48:00,41.0,27.0,30.24,West,274,1.0,2.0,57,0.00,,SCT060,0.00,VWS V14.01,2013-01-08 21:48:00,
2013-01-08 16:49:00,41.0,27.0,30.25,West,266,0.0,2.0,57,0.00,,SCT060,0.00,VWS V14.01,2013-01-08 21:49:00,
2013-01-08 16:50:00,41.0,27.0,30.25,WSW,253,0.0,1.0,57,0.00,,SCT060,0.00,VWS V14.01,2013-01-08 21:50:00,
2013-01-08 16:51:00,40.9,26.9,30.25,WSW,240,0.0,1.0,57,0.00,,BKN250,0.00,VWS V14.01,2013-01-08 21:51:00,
2013-01-08 16:52:00,40.9,26.9,30.25,WSW,249,0.0,1.0,57,0.00,,SCT060,0.00,VWS V14.01,2013-01-08 21:52:00,
2013-01-08 16:53:00,40.8,26.8,30.25,WSW,240,0.0,1.0,57,0.00,,SCT060,0.00,VWS V14.01,2013-01-08 21:53:00,
2013-01-08 16:54:00,40.8,27.2,30.25,WSW,243,1.0,1.0,58,0.00,,SCT060,0.00,VWS V14.01,2013-01-08 21:54:00,
2013-01-08 16:55:00,40.7,27.1,30.25,WSW,257,0.0,1.0,58,0.00,,SCT060,0.00,VWS V14.01,2013-01-08 21:55:00,
2013-01-08 16:56:00,40.5,26.9,30.25,WSW,255,0.0,0.0,58,0.00,,BKN250,0.00,VWS V14.01,2013-01-08 21:56:00,
2013-01-08 16:57:00,40.6,27.0,30.25,WSW,255,0.0,0.0,58,0.00,,SCT060,0.00,VWS V14.01,2013-01-08 21:57:00,
2013-01-08 16:58:00,40.5,26.9,30.25,WSW,255,0.0,0.0,58,0.00,,SCT060,0.00,VWS V14.01,2013-01-08 21:58:00,
2013-01-08 16:59:00,40.4,26.8,30.25,West,259,1.0,1.0,58,0.00,,SCT060,0.00,VWS V14.01,2013-01-08 21:59:00,
2013-01-08 17:00:00,40.3,27.1,30.24,WSW,248,1.0,1.0,59,0.00,,SCT060,0.00,VWS V14.01,2013-01-08 22:00:00,
2013-01-08 17:01:00,40.1,26.9,30.25,WSW,245,0.0,1.0,59,0.00,,BKN250,0.00,VWS V14.01,2013-01-08 22:01:00,
2013-01-08 17:02:00,40.2,27.0,30.25,WSW,245,1.0,1.0,59,0.00,,SCT060,0.00,VWS V14.01,2013-01-08 22:02:00,
2013-01-08 17:03:00,40.1,26.9,30.25,WSW,245,0.0,1.0,59,0.00,,SCT060,0.00,VWS V14.01,2013-01-08 22:03:00,
2013-01-08 17:04:00,40.1,26.9,30.24,WSW,243,0.0,1.0,59,0.00,,SCT060,0.00,VWS V14.01,2013-01-08 22:04:00,
2013-01-08 17:05:00,40.0,26.8,30.25,WSW,246,0.0,1.0,59,0.00,,SCT060,0.00,VWS V14.01,2013-01-08 22:05:00,
2013-01-08 17:06:00,39.9,26.8,30.25,WSW,240,0.0,1.0,59,0.00,,BKN250,0.00,VWS V14.01,2013-01-08 22:06:00,
2013-01-08 17:07:00,39.9,26.8,30.25,WSW,240,1.0,1.0,59,0.00,,SCT060,0.00,VWS V14.01,2013-01-08 22:07:00,
2013-01-08 17:08:00,39.9,27.2,30.25,WSW,240,0.0,1.0,60,0.00,,SCT060,0.00,VWS V14.01,2013-01-08 22:08:00,
2013-01-08 17:09:00,39.8,27.1,30.25,WSW,240,0.0,1.0,60,0.00,,SCT060,0.00,VWS V14.01,2013-01-08 22:09:00,
2013-01-08 17:10:00,39.7,27.0,30.25,WSW,240,0.0,0.0,60,0.00,,SCT060,0.00,VWS V14.01,2013-01-08 22:10:00,
2013-01-08 17:11:00,39.6,26.9,30.25,WSW,243,0.0,1.0,60,0.00,,BKN250,0.00,VWS V14.01,2013-01-08 22:11:00,
2013-01-08 17:12:00,39.6,26.9,30.25,WSW,243,1.0,1.0,60,0.00,,SCT060,0.00,VWS V14.01,2013-01-08 22:12:00,
2013-01-08 17:13:00,39.6,26.9,30.25,WSW,243,0.0,1.0,60,0.00,,SCT060,0.00,VWS V14.01,2013-01-08 22:13:00,
2013-01-08 17:14:00,39.6,26.9,30.25,WSW,243,0.0,1.0,60,0.00,,SCT060,0.00,VWS V14.01,2013-01-08 22:14:00,
2013-01-08 17:15:00,39.5,26.8,30.25,WSW,243,0.0,0.0,60,0.00,,SCT060,0.00,VWS V14.01,2013-01-08 22:15:00,
2013-01-08 17:16:00,39.5,26.8,30.25,WSW,243,0.0,0.0,60,0.00,,SCT060,0.00,VWS V14.01,2013-01-08 22:16:00,
2013-01-08 17:17:00,39.4,26.7,30.25,WSW,243,0.0,0.0,60,0.00,,BKN250,0.00,VWS V14.01,2013-01-08 22:17:00,
2013-01-08 17:18:00,39.4,27.1,30.25,WSW,243,0.0,0.0,61,0.00,,SCT060,0.00,VWS V14.01,2013-01-08 22:18:00,
2013-01-08 17:19:00,39.3,27.0,30.25,WSW,243,0.0,0.0,61,0.00,,SCT060,0.00,VWS V14.01,2013-01-08 22:19:00,
2013-01-08 17:20:00,39.2,26.9,30.25,WSW,243,0.0,0.0,61,0.00,,SCT060,0.00,VWS V14.01,2013-01-08 22:20:00,
2013-01-08 17:21:00,39.1,26.8,30.25,WSW,243,0.0,1.0,61,0.00,,SCT060,0.00,VWS V14.01,2013-01-08 22:21:00,
2013-01-08 17:22:00,39.0,26.7,30.25,WSW,246,0.0,1.0,61,0.00,,BKN250,0.00,VWS V14.01,2013-01-08 22:22:00,
2013-01-08 17:23:00,39.0,26.7,30.25,WSW,246,0.0,1.0,61,0.00,,SCT060,0.00,VWS V14.01,2013-01-08 22:23:00,
2013-01-08 17:24:00,38.9,27.0,30.26,WSW,246,0.0,1.0,62,0.00,,SCT060,0.00,VWS V14.01,2013-01-08 22:24:00,
2013-01-08 17:25:00,38.8,26.9,30.26,WSW,245,0.0,0.0,62,0.00,,SCT060,0.00,VWS V14.01,2013-01-08 22:25:00,
2013-01-08 17:27:00,38.6,26.7,30.25,WSW,246,0.0,0.0,62,0.00,,BKN250,0.00,VWS V14.01,2013-01-08 22:27:00,
2013-01-08 17:28:00,38.6,26.7,30.26,WSW,246,0.0,0.0,62,0.00,,SCT060,0.00,VWS V14.01,2013-01-08 22:28:00,
2013-01-08 17:29:00,38.5,26.6,30.26,WSW,247,0.0,0.0,62,0.00,,SCT060,0.00,VWS V14.01,2013-01-08 22:29:00,
2013-01-08 17:30:00,38.5,27.0,30.26,WSW,246,0.0,0.0,63,0.00,,SCT060,0.00,VWS V14.01,2013-01-08 22:30:00,
2013-01-08 17:31:00,38.3,26.8,30.26,WSW,246,0.0,0.0,63,0.00,,SCT060,0.00,VWS V14.01,2013-01-08 22:31:00,
2013-01-08 17:32:00,38.1,26.6,30.26,WSW,246,0.0,0.0,63,0.00,,FEW250,0.00,VWS V14.01,2013-01-08 22:32:00,
2013-01-08 17:33:00,38.1,26.6,30.26,WSW,246,0.0,0.0,63,0.00,,SCT060,0.00,VWS V14.01,2013-01-08 22:33:00,
2013-01-08 17:34:00,37.9,26.4,30.26,WSW,246,0.0,1.0,63,0.00,,SCT060,0.00,VWS V14.01,2013-01-08 22:34:00,
2013-01-08 17:35:00,37.7,26.6,30.26,WSW,246,0.0,0.0,64,0.00,,SCT060,0.00,VWS V14.01,2013-01-08 22:35:00,
2013-01-08 17:36:00,37.6,26.9,30.26,WSW,246,0.0,0.0,65,0.00,,SCT060,0.00,VWS V14.01,2013-01-08 22:36:00,
2013-01-08 17:37:00,37.5,26.8,30.27,WSW,246,0.0,0.0,65,0.00,,FEW250,0.00,VWS V14.01,2013-01-08 22:37:00,
2013-01-08 17:38:00,37.5,26.8,30.27,WSW,246,0.0,0.0,65,0.00,,SCT060,0.00,VWS V14.01,2013-01-08 22:38:00,
2013-01-08 17:39:00,37.4,26.4,30.27,WSW,245,0.0,0.0,64,0.00,,SCT060,0.00,VWS V14.01,2013-01-08 22:39:00,
2013-01-08 17:40:00,37.4,26.4,30.27,WSW,246,0.0,0.0,64,0.00,,SCT060,0.00,VWS V14.01,2013-01-08 22:40:00,
2013-01-08 17:41:00,37.4,26.4,30.27,WSW,246,0.0,0.0,64,0.00,,SCT060,0.00,VWS V14.01,2013-01-08 22:41:00,
2013-01-08 17:42:00,37.3,26.6,30.27,WSW,246,0.0,0.0,65,0.00,,FEW250,0.00,VWS V14.01,2013-01-08 22:42:00,
2013-01-08 17:43:00,37.3,26.6,30.27,WSW,246,0.0,0.0,65,0.00,,SCT060,0.00,VWS V14.01,2013-01-08 22:43:00,
2013-01-08 17:44:00,37.3,26.2,30.27,WSW,246,0.0,0.0,64,0.00,,SCT060,0.00,VWS V14.01,2013-01-08 22:44:00,
2013-01-08 17:45:00,37.3,26.2,30.27,WSW,245,0.0,0.0,64,0.00,,SCT060,0.00,VWS V14.01,2013-01-08 22:45:00,
2013-01-08 17:46:00,37.2,26.2,30.27,WSW,248,0.0,0.0,64,0.00,,SCT060,0.00,VWS V14.01,2013-01-08 22:46:00,
2013-01-08 17:47:00,37.1,26.4,30.27,WSW,246,0.0,0.0,65,0.00,,FEW250,0.00,VWS V14.01,2013-01-08 22:47:00,
2013-01-08 17:48:00,37.1,26.4,30.27,WSW,246,0.0,0.0,65,0.00,,SCT060,0.00,VWS V14.01,2013-01-08 22:48:00,
2013-01-08 17:49:00,37.1,26.4,30.27,WSW,246,0.0,0.0,65,0.00,,SCT060,0.00,VWS V14.01,2013-01-08 22:49:00,
2013-01-08 17:50:00,37.1,26.8,30.27,WSW,246,0.0,0.0,66,0.00,,SCT060,0.00,VWS V14.01,2013-01-08 22:50:00,
2013-01-08 17:51:00,37.1,26.8,30.27,WSW,248,0.0,0.0,66,0.00,,SCT060,0.00,VWS V14.01,2013-01-08 22:51:00,
2013-01-08 17:52:00,37.2,26.9,30.27,WSW,248,0.0,0.0,66,0.00,,FEW250,0.00,VWS V14.01,2013-01-08 22:52:00,
2013-01-08 17:53:00,37.2,26.9,30.27,WSW,248,0.0,0.0,66,0.00,,SCT060,0.00,VWS V14.01,2013-01-08 22:53:00,
2013-01-08 17:54:00,37.1,26.8,30.27,WSW,245,0.0,0.0,66,0.00,,SCT060,0.00,VWS V14.01,2013-01-08 22:54:00,
2013-01-08 17:55:00,37.2,26.9,30.27,WSW,246,0.0,0.0,66,0.00,,SCT060,0.00,VWS V14.01,2013-01-08 22:55:00,
2013-01-08 17:56:00,37.1,26.8,30.27,WSW,246,0.0,0.0,66,0.00,,SCT060,0.00,VWS V14.01,2013-01-08 22:56:00,
2013-01-08 17:57:00,37.0,26.7,30.27,WSW,248,0.0,0.0,66,0.00,,FEW250,0.00,VWS V14.01,2013-01-08 22:57:00,
2013-01-08 17:58:00,37.0,26.7,30.27,WSW,248,0.0,0.0,66,0.00,,SCT060,0.00,VWS V14.01,2013-01-08 22:58:00,
2013-01-08 17:59:00,36.9,26.6,30.27,WSW,248,0.0,0.0,66,0.00,,SCT060,0.00,VWS V14.01,2013-01-08 22:59:00,
2013-01-08 18:00:00,36.9,26.6,30.27,WSW,248,0.0,0.0,66,0.00,,SCT060,0.00,VWS V14.01,2013-01-08 23:00:00,
2013-01-08 18:01:00,36.8,26.5,30.27,WSW,246,0.0,0.0,66,0.00,,SCT060,0.00,VWS V14.01,2013-01-08 23:01:00,
2013-01-08 18:02:00,36.7,26.4,30.27,WSW,248,0.0,0.0,66,0.00,,FEW250,0.00,VWS V14.01,2013-01-08 23:02:00,
2013-01-08 18:03:00,36.7,26.4,30.27,WSW,248,0.0,0.0,66,0.00,,SCT060,0.00,VWS V14.01,2013-01-08 23:03:00,
2013-01-08 18:04:00,36.7,26.8,30.27,WSW,248,0.0,0.0,67,0.00,,SCT060,0.00,VWS V14.01,2013-01-08 23:04:00,
2013-01-08 18:05:00,36.7,26.8,30.27,WSW,248,0.0,0.0,67,0.00,,SCT060,0.00,VWS V14.01,2013-01-08 23:05:00,
2013-01-08 18:06:00,36.6,26.7,30.27,WSW,248,0.0,0.0,67,0.00,,SCT060,0.00,VWS V14.01,2013-01-08 23:06:00,
2013-01-08 18:07:00,36.4,26.5,30.27,WSW,247,0.0,0.0,67,0.00,,FEW250,0.00,VWS V14.01,2013-01-08 23:07:00,
2013-01-08 18:08:00,36.4,26.5,30.27,WSW,247,0.0,0.0,67,0.00,,SCT060,0.00,VWS V14.01,2013-01-08 23:08:00,
2013-01-08 18:09:00,36.3,26.4,30.27,WSW,248,0.0,0.0,67,0.00,,SCT060,0.00,VWS V14.01,2013-01-08 23:09:00,
2013-01-08 18:11:00,36.0,26.5,30.28,WSW,248,0.0,0.0,68,0.00,,SCT060,0.00,VWS V14.01,2013-01-08 23:11:00,
2013-01-08 18:12:00,35.8,26.3,30.28,WSW,248,0.0,0.0,68,0.00,,FEW250,0.00,VWS V14.01,2013-01-08 23:12:00,
2013-01-08 18:13:00,35.8,26.3,30.28,WSW,248,0.0,0.0,68,0.00,,SCT060,0.00,VWS V14.01,2013-01-08 23:13:00,
2013-01-08 18:14:00,35.6,26.1,30.28,WSW,248,0.0,0.0,68,0.00,,SCT060,0.00,VWS V14.01,2013-01-08 23:14:00,
2013-01-08 18:15:00,35.5,26.4,30.28,WSW,248,0.0,0.0,69,0.00,,SCT060,0.00,VWS V14.01,2013-01-08 23:15:00,
2013-01-08 18:16:00,35.4,26.3,30.28,WSW,248,0.0,0.0,69,0.00,,SCT060,0.00,VWS V14.01,2013-01-08 23:16:00,
2013-01-08 18:17:00,35.3,26.5,30.28,WSW,248,0.0,0.0,70,0.00,,FEW250,0.00,VWS V14.01,2013-01-08 23:17:00,
2013-01-08 18:18:00,35.3,26.5,30.28,WSW,248,0.0,0.0,70,0.00,,SCT060,0.00,VWS V14.01,2013-01-08 23:18:00,
2013-01-08 18:19:00,35.2,26.4,30.28,WSW,248,0.0,0.0,70,0.00,,SCT060,0.00,VWS V14.01,2013-01-08 23:19:00,
2013-01-08 18:20:00,35.2,26.4,30.28,WSW,248,0.0,0.0,70,0.00,,SCT060,0.00,VWS V14.01,2013-01-08 23:20:00,
2013-01-08 18:21:00,35.1,26.3,30.28,WSW,247,0.0,0.0,70,0.00,,SCT060,0.00,VWS V14.01,2013-01-08 23:21:00,
2013-01-08 18:22:00,35.2,26.8,30.28,WSW,248,0.0,0.0,71,0.00,,FEW250,0.00,VWS V14.01,2013-01-08 23:22:00,
2013-01-08 18:23:00,35.2,26.8,30.28,WSW,248,0.0,0.0,71,0.00,,SCT060,0.00,VWS V14.01,2013-01-08 23:23:00,
2013-01-08 18:24:00,35.2,26.8,30.28,WSW,248,0.0,0.0,71,0.00,,SCT060,0.00,VWS V14.01,2013-01-08 23:24:00,
2013-01-08 18:25:00,35.3,26.9,30.28,WSW,248,0.0,0.0,71,0.00,,SCT060,0.00,VWS V14.01,2013-01-08 23:25:00,
2013-01-08 18:26:00,35.3,26.9,30.28,WSW,248,0.0,0.0,71,0.00,,SCT060,0.00,VWS V14.01,2013-01-08 23:26:00,
2013-01-08 18:27:00,35.3,26.9,30.28,WSW,248,0.0,0.0,71,0.00,,FEW250,0.00,VWS V14.01,2013-01-08 23:27:00,
2013-01-08 18:28:00,35.3,26.9,30.28,WSW,248,0.0,0.0,71,0.00,,SCT060,0.00,VWS V14.01,2013-01-08 23:28:00,
2013-01-08 18:29:00,35.2,26.8,30.28,WSW,248,0.0,0.0,71,0.00,,SCT060,0.00,VWS V14.01,2013-01-08 23:29:00,
2013-01-08 18:30:00,35.2,26.8,30.28,WSW,248,0.0,0.0,71,0.00,,SCT060,0.00,VWS V14.01,2013-01-08 23:30:00,
2013-01-08 18:31:00,35.1,26.7,30.28,WSW,248,0.0,0.0,71,0.00,,SCT060,0.00,VWS V14.01,2013-01-08 23:31:00,
2013-01-08 18:32:00,35.1,26.7,30.28,WSW,248,0.0,0.0,71,0.00,,FEW250,0.00,VWS V14.01,2013-01-08 23:32:00,
2013-01-08 18:33:00,35.1,26.7,30.28,WSW,248,0.0,0.0,71,0.00,,SCT060,0.00,VWS V14.01,2013-01-08 23:33:00,
2013-01-08 18:34:00,35.1,26.7,30.28,WSW,248,0.0,0.0,71,0.00,,SCT060,0.00,VWS V14.01,2013-01-08 23:34:00,
2013-01-08 18:35:00,35.0,26.6,30.28,WSW,248,0.0,0.0,71,0.00,,SCT060,0.00,VWS V14.01,2013-01-08 23:35:00,
2013-01-08 18:36:00,35.0,26.9,30.28,WSW,248,0.0,0.0,72,0.00,,SCT060,0.00,VWS V14.01,2013-01-08 23:36:00,
2013-01-08 18:37:00,34.9,26.8,30.29,WSW,243,0.0,0.0,72,0.00,,FEW250,0.00,VWS V14.01,2013-01-08 23:37:00,
2013-01-08 18:38:00,34.9,26.8,30.29,WSW,243,0.0,0.0,72,0.00,,SCT060,0.00,VWS V14.01,2013-01-08 23:38:00,
2013-01-08 18:39:00,34.9,26.5,30.28,WSW,250,1.0,1.0,71,0.00,,SCT060,0.00,VWS V14.01,2013-01-08 23:39:00,
2013-01-08 18:40:00,34.9,26.5,30.28,WSW,250,1.0,1.0,71,0.00,,SCT060,0.00,VWS V14.01,2013-01-08 23:40:00,
2013-01-08 18:41:00,34.9,26.5,30.28,WSW,250,0.0,1.0,71,0.00,,SCT060,0.00,VWS V14.01,2013-01-08 23:41:00,
2013-01-08 18:42:00,34.8,26.4,30.29,WSW,250,0.0,0.0,71,0.00,,FEW250,0.00,VWS V14.01,2013-01-08 23:42:00,
2013-01-08 18:43:00,34.8,26.4,30.29,WSW,250,0.0,0.0,71,0.00,,SCT060,0.00,VWS V14.01,2013-01-08 23:43:00,
2013-01-08 18:44:00,34.8,26.4,30.29,WSW,250,0.0,0.0,71,0.00,,SCT060,0.00,VWS V14.01,2013-01-08 23:44:00,
2013-01-08 18:46:00,34.8,26.4,30.29,WSW,250,0.0,1.0,71,0.00,,SCT060,0.00,VWS V14.01,2013-01-08 23:46:00,
2013-01-08 18:47:00,34.7,26.3,30.29,WSW,250,0.0,0.0,71,0.00,,FEW250,0.00,VWS V14.01,2013-01-08 23:47:00,
2013-01-08 18:48:00,34.7,26.3,30.29,WSW,250,0.0,0.0,71,0.00,,SCT060,0.00,VWS V14.01,2013-01-08 23:48:00,
2013-01-08 18:49:00,34.7,26.3,30.29,WSW,250,0.0,0.0,71,0.00,,SCT060,0.00,VWS V14.01,2013-01-08 23:49:00,
2013-01-08 18:50:00,34.7,26.3,30.29,WSW,250,0.0,0.0,71,0.00,,SCT060,0.00,VWS V14.01,2013-01-08 23:50:00,
2013-01-08 18:51:00,34.5,26.1,30.29,WSW,250,0.0,0.0,71,0.00,,SCT060,0.00,VWS V14.01,2013-01-08 23:51:00,
2013-01-08 18:52:00,34.4,26.0,30.29,WSW,250,0.0,0.0,71,0.00,,FEW250,0.00,VWS V14.01,2013-01-08 23:52:00,
2013-01-08 18:53:00,34.4,26.0,30.29,WSW,250,0.0,0.0,71,0.00,,SCT060,0.00,VWS V14.01,2013-01-08 23:53:00,
2013-01-08 18:54:00,34.4,26.3,30.29,WSW,250,0.0,0.0,72,0.00,,SCT060,0.00,VWS V14.01,2013-01-08 23:54:00,
2013-01-08 18:55:00,34.3,26.2,30.29,WSW,250,0.0,0.0,72,0.00,,SCT060,0.00,VWS V14.01,2013-01-08 23:55:00,
2013-01-08 18:56:00,34.4,26.3,30.29,WSW,250,0.0,1.0,72,0.00,,SCT060,0.00,VWS V14.01,2013-01-08 23:56:00,
2013-01-08 18:57:00,34.6,26.5,30.29,WSW,245,1.0,1.0,72,0.00,,FEW250,0.00,VWS V14.01,2013-01-08 23:57:00,
2013-01-08 18:58:00,34.6,26.5,30.29,WSW,245,1.0,1.0,72,0.00,,SCT060,0.00,VWS V14.01,2013-01-08 23:58:00,
2013-01-08 18:59:00,34.7,26.6,30.29,WSW,245,0.0,1.0,72,0.00,,SCT060,0.00,VWS V14.01,2013-01-08 23:59:00,
2013-01-08 19:01:00,34.8,26.7,30.30,WSW,245,0.0,0.0,72,0.00,,SCT060,0.00,VWS V14.01,2013-01-09 00:01:00,
2013-01-08 19:02:00,34.9,26.5,30.30,WSW,243,0.0,0.0,71,0.00,,FEW250,0.00,VWS V14.01,2013-01-09 00:02:00,
2013-01-08 19:04:00,34.9,26.5,30.30,WSW,243,0.0,0.0,71,0.00,,SCT060,0.00,VWS V14.01,2013-01-09 00:04:00,
2013-01-08 19:05:00,34.9,26.5,30.30,WSW,243,0.0,0.0,71,0.00,,SCT060,0.00,VWS V14.01,2013-01-09 00:05:00,
2013-01-08 19:06:00,34.8,26.4,30.30,WSW,245,0.0,0.0,71,0.00,,SCT060,0.00,VWS V14.01,2013-01-09 00:06:00,
2013-01-08 19:07:00,34.7,26.3,30.30,WSW,245,0.0,0.0,71,0.00,,SCT250,0.00,VWS V14.01,2013-01-09 00:07:00,
2013-01-08 19:08:00,34.7,26.3,30.30,WSW,245,0.0,0.0,71,0.00,,SCT060,0.00,VWS V14.01,2013-01-09 00:08:00,
2013-01-08 19:09:00,34.7,26.3,30.30,WSW,245,0.0,0.0,71,0.00,,SCT060,0.00,VWS V14.01,2013-01-09 00:09:00,
2013-01-08 19:10:00,34.6,26.2,30.30,WSW,245,0.0,0.0,71,0.00,,SCT060,0.00,VWS V14.01,2013-01-09 00:10:00,
2013-01-08 19:11:00,34.5,26.1,30.30,WSW,243,0.0,0.0,71,0.00,,SCT060,0.00,VWS V14.01,2013-01-09 00:11:00,
2013-01-08 19:12:00,34.5,26.1,30.30,WSW,243,0.0,0.0,71,0.00,,SCT250,0.00,VWS V14.01,2013-01-09 00:12:00,
2013-01-08 19:13:00,34.5,26.1,30.30,WSW,243,0.0,0.0,71,0.00,,SCT060,0.00,VWS V14.01,2013-01-09 00:13:00,
2013-01-08 19:14:00,34.5,26.4,30.30,WSW,243,1.0,1.0,72,0.00,,SCT060,0.00,VWS V14.01,2013-01-09 00:14:00,
2013-01-08 19:15:00,34.5,26.4,30.30,WSW,243,0.0,1.0,72,0.00,,SCT060,0.00,VWS V14.01,2013-01-09 00:15:00,
2013-01-08 19:16:00,34.5,26.4,30.30,WSW,243,0.0,0.0,72,0.00,,SCT060,0.00,VWS V14.01,2013-01-09 00:16:00,
2013-01-08 19:17:00,34.5,26.4,30.30,WSW,245,0.0,1.0,72,0.00,,SCT250,0.00,VWS V14.01,2013-01-09 00:17:00,
2013-01-08 19:18:00,34.5,26.4,30.30,WSW,245,0.0,1.0,72,0.00,,SCT060,0.00,VWS V14.01,2013-01-09 00:18:00,
2013-01-08 19:19:00,34.6,26.5,30.30,WSW,243,0.0,0.0,72,0.00,,SCT060,0.00,VWS V14.01,2013-01-09 00:19:00,
2013-01-08 19:20:00,34.6,26.5,30.30,WSW,245,0.0,0.0,72,0.00,,SCT060,0.00,VWS V14.01,2013-01-09 00:20:00,
2013-01-08 19:21:00,34.6,26.5,30.30,WSW,243,0.0,0.0,72,0.00,,SCT060,0.00,VWS V14.01,2013-01-09 00:21:00,
2013-01-08 19:22:00,34.6,26.2,30.31,WSW,245,0.0,0.0,71,0.00,,SCT250,0.00,VWS V14.01,2013-01-09 00:22:00,
2013-01-08 19:23:00,34.6,26.2,30.31,WSW,245,0.0,0.0,71,0.00,,SCT060,0.00,VWS V14.01,2013-01-09 00:23:00,
2013-01-08 19:24:00,34.5,26.1,30.31,WSW,245,0.0,0.0,71,0.00,,SCT060,0.00,VWS V14.01,2013-01-09 00:24:00,
2013-01-08 19:25:00,34.4,26.0,30.31,WSW,245,0.0,0.0,71,0.00,,SCT060,0.00,VWS V14.01,2013-01-09 00:25:00,
2013-01-08 19:26:00,34.4,26.0,30.31,WSW,243,0.0,0.0,71,0.00,,SCT060,0.00,VWS V14.01,2013-01-09 00:26:00,
2013-01-08 19:27:00,34.2,26.1,30.30,WSW,245,1.0,1.0,72,0.00,,SCT250,0.00,VWS V14.01,2013-01-09 00:27:00,
2013-01-08 19:28:00,34.2,26.1,30.30,WSW,245,1.0,1.0,72,0.00,,SCT060,0.00,VWS V14.01,2013-01-09 00:28:00,
2013-01-08 19:29:00,34.2,26.1,30.31,WSW,246,1.0,1.0,72,0.00,,SCT060,0.00,VWS V14.01,2013-01-09 00:29:00,
2013-01-08 19:30:00,34.1,26.0,30.31,WSW,246,0.0,1.0,72,0.00,,SCT060,0.00,VWS V14.01,2013-01-09 00:30:00,
2013-01-08 19:31:00,34.1,26.0,30.30,WSW,246,0.0,0.0,72,0.00,,SCT060,0.00,VWS V14.01,2013-01-09 00:31:00,
2013-01-08 19:32:00,34.1,26.0,30.30,WSW,243,1.0,1.0,72,0.00,,SCT250,0.00,VWS V14.01,2013-01-09 00:32:00,
2013-01-08 19:33:00,34.1,26.0,30.30,WSW,243,1.0,1.0,72,0.00,,SCT060,0.00,VWS V14.01,2013-01-09 00:33:00,
2013-01-08 19:34:00,34.1,26.0,30.30,WSW,247,1.0,1.0,72,0.00,,SCT060,0.00,VWS V14.01,2013-01-09 00:34:00,
2013-01-08 19:35:00,34.1,26.0,30.30,WSW,252,1.0,1.0,72,0.00,,SCT060,0.00,VWS V14.01,2013-01-09 00:35:00,
2013-01-08 19:36:00,34.1,26.0,30.30,WSW,249,0.0,1.0,72,0.00,,SCT060,0.00,VWS V14.01,2013-01-09 00:36:00,
2013-01-08 19:37:00,34.0,25.9,30.31,WSW,249,0.0,0.0,72,0.00,,SCT250,0.00,VWS V14.01,2013-01-09 00:37:00,
2013-01-08 19:38:00,34.0,25.9,30.31,WSW,249,0.0,0.0,72,0.00,,SCT060,0.00,VWS V14.01,2013-01-09 00:38:00,
2013-01-08 19:39:00,33.9,25.8,30.31,WSW,250,1.0,1.0,72,0.00,,SCT060,0.00,VWS V14.01,2013-01-09 00:39:00,
2013-01-08 19:41:00,33.7,25.6,30.31,WSW,250,0.0,0.0,72,0.00,,SCT060,0.00,VWS V14.01,2013-01-09 00:41:00,
2013-01-08 19:42:00,33.5,25.8,30.31,WSW,250,0.0,0.0,73,0.00,,SCT250,0.00,VWS V14.01,2013-01-09 00:42:00,
2013-01-08 19:43:00,33.5,25.8,30.31,WSW,250,0.0,0.0,73,0.00,,SCT060,0.00,VWS V14.01,2013-01-09 00:43:00,
2013-01-08 19:44:00,33.3,25.6,30.31,WSW,250,0.0,0.0,73,0.00,,SCT060,0.00,VWS V14.01,2013-01-09 00:44:00,
2013-01-08 19:45:00,33.2,25.5,30.31,WSW,250,0.0,0.0,73,0.00,,SCT060,0.00,VWS V14.01,2013-01-09 00:45:00,
2013-01-08 19:46:00,33.2,25.5,30.31,WSW,250,1.0,1.0,73,0.00,,SCT060,0.00,VWS V14.01,2013-01-09 00:46:00,
2013-01-08 19:47:00,33.1,25.7,30.31,WSW,249,1.0,1.0,74,0.00,,SCT250,0.00,VWS V14.01,2013-01-09 00:47:00,
2013-01-08 19:48:00,33.1,25.7,30.31,WSW,249,1.0,1.0,74,0.00,,SCT060,0.00,VWS V14.01,2013-01-09 00:48:00,
2013-01-08 19:49:00,33.2,25.8,30.31,WSW,243,0.0,1.0,74,0.00,,SCT060,0.00,VWS V14.01,2013-01-09 00:49:00,
2013-01-08 19:50:00,33.2,26.1,30.31,WSW,243,0.0,1.0,75,0.00,,SCT060,0.00,VWS V14.01,2013-01-09 00:50:00,
2013-01-08 19:51:00,33.2,26.1,30.31,WSW,243,0.0,0.0,75,0.00,,SCT060,0.00,VWS V14.01,2013-01-09 00:51:00,
2013-01-08 19:52:00,33.2,26.1,30.31,WSW,243,0.0,0.0,75,0.00,,SCT250,0.00,VWS V14.01,2013-01-09 00:52:00,
2013-01-08 19:53:00,33.2,26.1,30.31,WSW,243,0.0,0.0,75,0.00,,SCT060,0.00,VWS V14.01,2013-01-09 00:53:00,
2013-01-08 19:54:00,33.2,26.1,30.31,WSW,243,0.0,0.0,75,0.00,,SCT060,0.00,VWS V14.01,2013-01-09 00:54:00,
2013-01-08 19:55:00,33.2,26.1,30.31,WSW,243,0.0,0.0,75,0.00,,SCT060,0.00,VWS V14.01,2013-01-09 00:55:00,
2013-01-08 19:56:00,33.2,25.8,30.31,WSW,243,0.0,0.0,74,0.00,,SCT060,0.00,VWS V14.01,2013-01-09 00:56:00,
2013-01-08 19:57:00,33.1,25.7,30.31,WSW,243,0.0,0.0,74,0.00,,SCT250,0.00,VWS V14.01,2013-01-09 00:57:00,
2013-01-08 19:58:00,33.1,25.7,30.31,WSW,243,0.0,0.0,74,0.00,,SCT060,0.00,VWS V14.01,2013-01-09 00:58:00,
2013-01-08 19:59:00,32.9,25.5,30.31,WSW,243,0.0,0.0,74,0.00,,SCT060,0.00,VWS V14.01,2013-01-09 00:59:00,
2013-01-08 20:00:00,32.9,25.9,30.31,WSW,245,1.0,1.0,75,0.00,,SCT060,0.00,VWS V14.01,2013-01-09 01:00:00,
2013-01-08 20:01:00,32.9,25.9,30.31,WSW,247,2.0,2.0,75,0.00,,SCT060,0.00,VWS V14.01,2013-01-09 01:01:00,
2013-01-08 20:02:00,33.1,26.4,30.31,WSW,240,1.0,1.0,76,0.00,,SCT250,0.00,VWS V14.01,2013-01-09 01:02:00,
2013-01-08 20:03:00,33.1,26.4,30.31,WSW,240,1.0,1.0,76,0.00,,SCT060,0.00,VWS V14.01,2013-01-09 01:03:00,
2013-01-08 20:04:00,33.2,26.1,30.31,WSW,240,0.0,1.0,75,0.00,,SCT060,0.00,VWS V14.01,2013-01-09 01:04:00,
2013-01-08 20:05:00,33.2,26.1,30.31,WSW,240,0.0,0.0,75,0.00,,SCT060,0.00,VWS V14.01,2013-01-09 01:05:00,
2013-01-08 20:06:00,33.2,26.1,30.31,WSW,240,0.0,0.0,75,0.00,,SCT060,0.00,VWS V14.01,2013-01-09 01:06:00,
2013-01-08 20:07:00,33.2,26.1,30.31,SW,236,0.0,0.0,75,0.00,,SCT250,0.00,VWS V14.01,2013-01-09 01:07:00,
2013-01-08 20:08:00,33.2,26.1,30.31,SW,236,0.0,0.0,75,0.00,,SCT060,0.00,VWS V14.01,2013-01-09 01:08:00,
2013-01-08 20:09:00,33.2,26.1,30.31,SW,236,0.0,0.0,75,0.00,,SCT060,0.00,VWS V14.01,2013-01-09 01:09:00,
2013-01-08 20:10:00,33.2,26.1,30.31,SW,236,0.0,0.0,75,0.00,,SCT060,0.00,VWS V14.01,2013-01-09 01:10:00,
2013-01-08 20:11:00,33.1,26.0,30.31,SW,236,0.0,0.0,75,0.00,,SCT060,0.00,VWS V14.01,2013-01-09 01:11:00,
2013-01-08 20:12:00,33.0,26.0,30.31,SW,236,0.0,0.0,75,0.00,,SCT250,0.00,VWS V14.01,2013-01-09 01:12:00,
2013-01-08 20:13:00,33.0,26.0,30.31,SW,236,0.0,0.0,75,0.00,,SCT060,0.00,VWS V14.01,2013-01-09 01:13:00,
2013-01-08 20:14:00,32.9,25.9,30.31,SW,236,0.0,0.0,75,0.00,,SCT060,0.00,VWS V14.01,2013-01-09 01:14:00,
2013-01-08 20:15:00,32.9,25.9,30.31,SW,236,0.0,0.0,75,0.00,,SCT060,0.00,VWS V14.01,2013-01-09 01:15:00,
2013-01-08 20:16:00,32.9,25.9,30.31,SW,235,0.0,0.0,75,0.00,,SCT060,0.00,VWS V14.01,2013-01-09 01:16:00,
2013-01-08 20:17:00,32.9,25.9,30.31,SW,235,0.0,0.0,75,0.00,,SCT250,0.00,VWS V14.01,2013-01-09 01:17:00,
2013-01-08 20:18:00,32.9,25.9,30.31,SW,235,0.0,0.0,75,0.00,,SCT060,0.00,VWS V14.01,2013-01-09 01:18:00,
2013-01-08 20:19:00,32.9,25.9,30.31,SW,236,0.0,0.0,75,0.00,,SCT060,0.00,VWS V14.01,2013-01-09 01:19:00,
2013-01-08 20:20:00,33.0,26.0,30.31,WSW,238,1.0,1.0,75,0.00,,SCT060,0.00,VWS V14.01,2013-01-09 01:20:00,
2013-01-08 20:21:00,33.1,26.0,30.31,WSW,238,1.0,1.0,75,0.00,,SCT060,0.00,VWS V14.01,2013-01-09 01:21:00,
2013-01-08 20:22:00,33.2,26.1,30.31,WSW,238,1.0,1.0,75,0.00,,SCT250,0.00,VWS V14.01,2013-01-09 01:22:00,
2013-01-08 20:23:00,33.2,26.1,30.31,WSW,238,1.0,1.0,75,0.00,,SCT060,0.00,VWS V14.01,2013-01-09 01:23:00,
2013-01-08 20:24:00,33.2,26.1,30.31,WSW,238,0.0,1.0,75,0.00,,SCT060,0.00,VWS V14.01,2013-01-09 01:24:00,
2013-01-08 20:25:00,33.3,26.2,30.31,WSW,238,0.0,1.0,75,0.00,,SCT060,0.00,VWS V14.01,2013-01-09 01:25:00,
2013-01-08 20:26:00,33.3,25.9,30.31,WSW,238,0.0,0.0,74,0.00,,SCT060,0.00,VWS V14.01,2013-01-09 01:26:00,
2013-01-08 20:27:00,33.3,25.9,30.31,WSW,238,0.0,0.0,74,0.00,,SCT250,0.00,VWS V14.01,2013-01-09 01:27:00,
2013-01-08 20:28:00,33.3,25.9,30.31,WSW,238,0.0,0.0,74,0.00,,SCT060,0.00,VWS V14.01,2013-01-09 01:28:00,
2013-01-08 20:29:00,33.3,25.9,30.31,WSW,238,0.0,0.0,74,0.00,,SCT060,0.00,VWS V14.01,2013-01-09 01:29:00,
2013-01-08 20:30:00,33.3,25.9,30.31,WSW,238,0.0,0.0,74,0.00,,SCT060,0.00,VWS V14.01,2013-01-09 01:30:00,
2013-01-08 20:31:00,33.2,25.8,30.31,SW,228,0.0,1.0,74,0.00,,SCT060,0.00,VWS V14.01,2013-01-09 01:31:00,
2013-01-08 20:32:00,33.1,26.0,30.31,SW,236,0.0,1.0,75,0.00,,BKN250,0.00,VWS V14.01,2013-01-09 01:32:00,
2013-01-08 20:33:00,33.1,26.0,30.31,SW,236,0.0,1.0,75,0.00,,SCT060,0.00,VWS V14.01,2013-01-09 01:33:00,
2013-01-08 20:34:00,33.1,26.0,30.31,SW,236,1.0,1.0,75,0.00,,SCT060,0.00,VWS V14.01,2013-01-09 01:34:00,
2013-01-08 20:35:00,33.1,26.0,30.31,SW,235,1.0,1.0,75,0.00,,SCT060,0.00,VWS V14.01,2013-01-09 01:35:00,
2013-01-08 20:36:00,33.0,26.0,30.31,SW,236,1.0,1.0,75,0.00,,SCT060,0.00,VWS V14.01,2013-01-09 01:36:00,
2013-01-08 20:37:00,32.9,25.9,30.31,WSW,238,1.0,1.0,75,0.00,,BKN250,0.00,VWS V14.01,2013-01-09 01:37:00,
2013-01-08 20:38:00,32.9,25.9,30.31,WSW,238,1.0,1.0,75,0.00,,SCT060,0.00,VWS V14.01,2013-01-09 01:38:00,
2013-01-08 20:39:00,32.9,25.9,30.31,WSW,243,1.0,2.0,75,0.00,,SCT060,0.00,VWS V14.01,2013-01-09 01:39:00,
2013-01-08 20:40:00,32.9,25.9,30.30,WSW,245,2.0,2.0,75,0.00,,SCT060,0.00,VWS V14.01,2013-01-09 01:40:00,
2013-01-08 20:41:00,32.9,25.9,30.30,WSW,246,2.0,2.0,75,0.00,,SCT060,0.00,VWS V14.01,2013-01-09 01:41:00,
2013-01-08 20:42:00,33.0,26.0,30.30,WSW,247,2.0,3.0,75,0.00,,BKN250,0.00,VWS V14.01,2013-01-09 01:42:00,
2013-01-08 20:43:00,33.0,26.0,30.30,WSW,247,2.0,3.0,75,0.00,,SCT060,0.00,VWS V14.01,2013-01-09 01:43:00,
2013-01-08 20:44:00,33.0,26.0,30.30,WSW,240,2.0,3.0,75,0.00,,SCT060,0.00,VWS V14.01,2013-01-09 01:44:00,
2013-01-08 20:45:00,33.0,26.0,30.30,WSW,243,2.0,2.0,75,0.00,,SCT060,0.00,VWS V14.01,2013-01-09 01:45:00,
2013-01-08 20:46:00,33.0,26.0,30.30,WSW,252,2.0,3.0,75,0.00,,SCT060,0.00,VWS V14.01,2013-01-09 01:46:00,
2013-01-08 20:47:00,33.1,26.0,30.30,WSW,243,2.0,2.0,75,0.00,,BKN250,0.00,VWS V14.01,2013-01-09 01:47:00,
2013-01-08 20:48:00,33.1,26.0,30.30,WSW,243,2.0,2.0,75,0.00,,SCT060,0.00,VWS V14.01,2013-01-09 01:48:00,
2013-01-08 20:49:00,33.1,26.0,30.30,WSW,250,1.0,2.0,75,0.00,,SCT060,0.00,VWS V14.01,2013-01-09 01:49:00,
2013-01-08 20:50:00,33.1,26.0,30.30,WSW,253,2.0,2.0,75,0.00,,SCT060,0.00,VWS V14.01,2013-01-09 01:50:00,
2013-01-08 20:51:00,33.1,26.0,30.30,WSW,248,2.0,2.0,75,0.00,,SCT060,0.00,VWS V14.01,2013-01-09 01:51:00,
2013-01-08 20:52:00,33.1,26.0,30.30,WSW,243,1.0,2.0,75,0.00,,BKN250,0.00,VWS V14.01,2013-01-09 01:52:00,
2013-01-08 20:53:00,33.1,26.0,30.30,WSW,243,1.0,2.0,75,0.00,,SCT060,0.00,VWS V14.01,2013-01-09 01:53:00,
2013-01-08 20:54:00,33.1,26.0,30.30,WSW,249,1.0,1.0,75,0.00,,SCT060,0.00,VWS V14.01,2013-01-09 01:54:00,
2013-01-08 20:55:00,33.1,26.0,30.30,SW,222,1.0,1.0,75,0.00,,SCT060,0.00,VWS V14.01,2013-01-09 01:55:00,
2013-01-08 20:56:00,33.1,26.0,30.30,West,260,0.0,1.0,75,0.00,,SCT060,0.00,VWS V14.01,2013-01-09 01:56:00,
2013-01-08 20:57:00,33.1,26.0,30.30,WSW,250,0.0,1.0,75,0.00,,BKN250,0.00,VWS V14.01,2013-01-09 01:57:00,
2013-01-08 20:58:00,33.1,26.0,30.30,WSW,250,0.0,1.0,75,0.00,,SCT060,0.00,VWS V14.01,2013-01-09 01:58:00,
2013-01-08 20:59:00,33.1,26.0,30.30,WSW,250,0.0,0.0,75,0.00,,SCT060,0.00,VWS V14.01,2013-01-09 01:59:00,
2013-01-08 21:00:00,33.1,26.0,30.30,WSW,246,1.0,1.0,75,0.00,,SCT060,0.00,VWS V14.01,2013-01-09 02:00:00,
2013-01-08 21:01:00,33.1,26.0,30.30,SW,229,1.0,2.0,75,0.00,,SCT060,0.00,VWS V14.01,2013-01-09 02:01:00,
2013-01-08 21:02:00,33.2,26.1,30.30,SW,232,2.0,2.0,75,0.00,,BKN250,0.00,VWS V14.01,2013-01-09 02:02:00,
2013-01-08 21:03:00,33.2,26.1,30.30,SW,232,2.0,2.0,75,0.00,,SCT060,0.00,VWS V14.01,2013-01-09 02:03:00,
2013-01-08 21:04:00,33.2,26.1,30.30,WSW,238,1.0,2.0,75,0.00,,SCT060,0.00,VWS V14.01,2013-01-09 02:04:00,
2013-01-08 21:05:00,33.2,26.1,30.30,WSW,238,0.0,1.0,75,0.00,,SCT060,0.00,VWS V14.01,2013-01-09 02:05:00,
2013-01-08 21:06:00,33.2,26.1,30.30,WSW,238,0.0,0.0,75,0.00,,SCT060,0.00,VWS V14.01,2013-01-09 02:06:00,
2013-01-08 21:07:00,33.1,26.0,30.30,West,266,0.0,0.0,75,0.00,,BKN250,0.00,VWS V14.01,2013-01-09 02:07:00,
2013-01-08 21:08:00,33.1,26.0,30.30,West,266,0.0,0.0,75,0.00,,SCT060,0.00,VWS V14.01,2013-01-09 02:08:00,
2013-01-08 21:09:00,33.1,26.0,30.30,WSW,257,0.0,0.0,75,0.00,,SCT060,0.00,VWS V14.01,2013-01-09 02:09:00,
2013-01-08 21:10:00,33.1,26.0,30.30,WSW,257,0.0,0.0,75,0.00,,SCT060,0.00,VWS V14.01,2013-01-09 02:10:00,
2013-01-08 21:11:00,33.1,26.0,30.30,WSW,240,1.0,1.0,75,0.00,,SCT060,0.00,VWS V14.01,2013-01-09 02:11:00,
2013-01-08 21:12:00,33.2,26.1,30.30,WSW,240,0.0,1.0,75,0.00,,BKN250,0.00,VWS V14.01,2013-01-09 02:12:00,
2013-01-08 21:13:00,33.2,26.1,30.30,WSW,240,0.0,1.0,75,0.00,,SCT060,0.00,VWS V14.01,2013-01-09 02:13:00,
2013-01-08 21:14:00,33.2,26.1,30.30,WSW,240,0.0,0.0,75,0.00,,SCT060,0.00,VWS V14.01,2013-01-09 02:14:00,
2013-01-08 21:15:00,33.2,26.1,30.30,WSW,240,0.0,0.0,75,0.00,,SCT060,0.00,VWS V14.01,2013-01-09 02:15:00,
2013-01-08 21:16:00,33.2,26.1,30.30,WSW,240,0.0,0.0,75,0.00,,SCT060,0.00,VWS V14.01,2013-01-09 02:16:00,
2013-01-08 21:17:00,33.2,26.1,30.30,WSW,240,0.0,0.0,75,0.00,,BKN250,0.00,VWS V14.01,2013-01-09 02:17:00,
2013-01-08 21:18:00,33.2,26.1,30.30,WSW,240,0.0,0.0,75,0.00,,SCT060,0.00,VWS V14.01,2013-01-09 02:18:00,
2013-01-08 21:19:00,33.2,26.1,30.30,WSW,240,0.0,0.0,75,0.00,,SCT060,0.00,VWS V14.01,2013-01-09 02:19:00,
2013-01-08 21:20:00,33.2,26.1,30.30,WSW,240,0.0,0.0,75,0.00,,SCT060,0.00,VWS V14.01,2013-01-09 02:20:00,
2013-01-08 21:21:00,33.2,26.1,30.30,WSW,240,0.0,0.0,75,0.00,,SCT060,0.00,VWS V14.01,2013-01-09 02:21:00,
2013-01-08 21:22:00,33.2,26.1,30.30,WSW,240,1.0,1.0,75,0.00,,BKN250,0.00,VWS V14.01,2013-01-09 02:22:00,
2013-01-08 21:23:00,33.2,26.1,30.30,WSW,240,1.0,1.0,75,0.00,,SCT060,0.00,VWS V14.01,2013-01-09 02:23:00,
2013-01-08 21:24:00,33.2,26.1,30.30,WSW,240,0.0,1.0,75,0.00,,SCT060,0.00,VWS V14.01,2013-01-09 02:24:00,
2013-01-08 21:25:00,33.2,26.1,30.30,WSW,240,0.0,1.0,75,0.00,,SCT060,0.00,VWS V14.01,2013-01-09 02:25:00,
2013-01-08 21:26:00,33.2,26.1,30.30,WSW,240,0.0,1.0,75,0.00,,SCT060,0.00,VWS V14.01,2013-01-09 02:26:00,
2013-01-08 21:27:00,33.1,26.0,30.30,WSW,240,1.0,1.0,75,0.00,,BKN250,0.00,VWS V14.01,2013-01-09 02:27:00,
2013-01-08 21:28:00,33.1,26.0,30.30,WSW,240,1.0,1.0,75,0.00,,SCT060,0.00,VWS V14.01,2013-01-09 02:28:00,
2013-01-08 21:29:00,33.1,26.0,30.30,WSW,240,1.0,1.0,75,0.00,,SCT060,0.00,VWS V14.01,2013-01-09 02:29:00,
2013-01-08 21:30:00,33.1,26.0,30.30,WSW,240,1.0,1.0,75,0.00,,SCT060,0.00,VWS V14.01,2013-01-09 02:30:00,
2013-01-08 21:31:00,33.1,26.0,30.30,WSW,240,1.0,1.0,75,0.00,,SCT060,0.00,VWS V14.01,2013-01-09 02:31:00,
2013-01-08 21:32:00,33.1,26.0,30.30,WSW,240,1.0,1.0,75,0.00,,BKN250,0.00,VWS V14.01,2013-01-09 02:32:00,
2013-01-08 21:33:00,33.1,26.0,30.30,WSW,240,1.0,1.0,75,0.00,,SCT060,0.00,VWS V14.01,2013-01-09 02:33:00,
2013-01-08 21:34:00,33.1,26.4,30.30,WSW,240,0.0,1.0,76,0.00,,SCT060,0.00,VWS V14.01,2013-01-09 02:34:00,
2013-01-08 21:35:00,33.1,26.4,30.30,WSW,240,0.0,0.0,76,0.00,,SCT060,0.00,VWS V14.01,2013-01-09 02:35:00,
2013-01-08 21:36:00,33.0,26.0,30.30,WSW,240,0.0,0.0,75,0.00,,SCT060,0.00,VWS V14.01,2013-01-09 02:36:00,
2013-01-08 21:37:00,32.9,25.9,30.30,WSW,240,0.0,0.0,75,0.00,,BKN250,0.00,VWS V14.01,2013-01-09 02:37:00,
2013-01-08 21:38:00,32.9,25.9,30.30,WSW,240,0.0,0.0,75,0.00,,SCT060,0.00,VWS V14.01,2013-01-09 02:38:00,
2013-01-08 21:39:00,32.9,25.9,30.30,WSW,240,0.0,0.0,75,0.00,,SCT060,0.00,VWS V14.01,2013-01-09 02:39:00,
2013-01-08 21:40:00,32.9,26.2,30.30,WSW,240,0.0,1.0,76,0.00,,SCT060,0.00,VWS V14.01,2013-01-09 02:40:00,
2013-01-08 21:41:00,32.9,26.2,30.30,WSW,240,0.0,1.0,76,0.00,,SCT060,0.00,VWS V14.01,2013-01-09 02:41:00,
2013-01-08 21:42:00,32.9,26.2,30.30,WSW,240,0.0,1.0,76,0.00,,BKN250,0.00,VWS V14.01,2013-01-09 02:42:00,
2013-01-08 21:43:00,32.9,26.2,30.30,WSW,240,0.0,1.0,76,0.00,,SCT060,0.00,VWS V14.01,2013-01-09 02:43:00,
2013-01-08 21:44:00,32.9,26.2,30.30,WSW,240,0.0,1.0,76,0.00,,SCT060,0.00,VWS V14.01,2013-01-09 02:44:00,
2013-01-08 21:45:00,32.9,26.2,30.30,WSW,240,0.0,1.0,76,0.00,,SCT060,0.00,VWS V14.01,2013-01-09 02:45:00,
2013-01-08 21:46:00,32.9,26.2,30.30,WSW,240,0.0,1.0,76,0.00,,SCT060,0.00,VWS V14.01,2013-01-09 02:46:00,
2013-01-08 21:47:00,32.9,26.2,30.30,WSW,240,0.0,0.0,76,0.00,,BKN250,0.00,VWS V14.01,2013-01-09 02:47:00,
2013-01-08 21:48:00,32.9,26.2,30.30,WSW,240,0.0,0.0,76,0.00,,SCT060,0.00,VWS V14.01,2013-01-09 02:48:00,
2013-01-08 21:49:00,32.9,26.2,30.30,WSW,240,0.0,0.0,76,0.00,,SCT060,0.00,VWS V14.01,2013-01-09 02:49:00,
2013-01-08 21:50:00,32.9,26.2,30.30,WSW,250,0.0,0.0,76,0.00,,SCT060,0.00,VWS V14.01,2013-01-09 02:50:00,
2013-01-08 21:51:00,32.9,26.2,30.30,WSW,250,0.0,0.0,76,0.00,,SCT060,0.00,VWS V14.01,2013-01-09 02:51:00,
2013-01-08 21:52:00,33.0,26.3,30.30,WSW,253,0.0,0.0,76,0.00,,BKN250,0.00,VWS V14.01,2013-01-09 02:52:00,
2013-01-08 21:53:00,33.0,26.3,30.30,WSW,253,0.0,0.0,76,0.00,,SCT060,0.00,VWS V14.01,2013-01-09 02:53:00,
2013-01-08 21:54:00,32.9,26.2,30.30,WSW,253,0.0,0.0,76,0.00,,SCT060,0.00,VWS V14.01,2013-01-09 02:54:00,
2013-01-08 21:55:00,32.9,26.2,30.30,WSW,253,0.0,0.0,76,0.00,,SCT060,0.00,VWS V14.01,2013-01-09 02:55:00,
2013-01-08 21:56:00,32.9,26.2,30.31,WSW,252,0.0,0.0,76,0.00,,SCT060,0.00,VWS V14.01,2013-01-09 02:56:00,
2013-01-08 21:57:00,32.8,26.1,30.31,WSW,253,0.0,0.0,76,0.00,,BKN250,0.00,VWS V14.01,2013-01-09 02:57:00,
2013-01-08 21:58:00,32.8,26.1,30.31,WSW,253,0.0,0.0,76,0.00,,SCT060,0.00,VWS V14.01,2013-01-09 02:58:00,
2013-01-08 21:59:00,32.8,26.1,30.31,WSW,252,0.0,0.0,76,0.00,,SCT060,0.00,VWS V14.01,2013-01-09 02:59:00,
2013-01-08 22:00:00,32.7,26.0,30.31,WSW,253,0.0,0.0,76,0.00,,SCT060,0.00,VWS V14.01,2013-01-09 03:00:00,
2013-01-08 22:01:00,32.7,26.0,30.31,WSW,252,0.0,0.0,76,0.00,,SCT060,0.00,VWS V14.01,2013-01-09 03:01:00,
2013-01-08 22:02:00,32.6,25.9,30.31,WSW,253,0.0,0.0,76,0.00,,BKN250,0.00,VWS V14.01,2013-01-09 03:02:00,
2013-01-08 22:03:00,32.6,25.9,30.31,WSW,253,0.0,0.0,76,0.00,,SCT060,0.00,VWS V14.01,2013-01-09 03:03:00,
2013-01-08 22:04:00,32.5,25.8,30.31,WSW,252,0.0,0.0,76,0.00,,SCT060,0.00,VWS V14.01,2013-01-09 03:04:00,
2013-01-08 22:05:00,32.5,25.8,30.31,WSW,253,0.0,0.0,76,0.00,,SCT060,0.00,VWS V14.01,2013-01-09 03:05:00,
2013-01-08 22:06:00,32.4,25.7,30.31,WSW,252,0.0,0.0,76,0.00,,SCT060,0.00,VWS V14.01,2013-01-09 03:06:00,
2013-01-08 22:07:00,32.4,26.0,30.31,WSW,253,0.0,0.0,77,0.00,,BKN250,0.00,VWS V14.01,2013-01-09 03:07:00,
2013-01-08 22:08:00,32.4,26.0,30.31,WSW,253,0.0,0.0,77,0.00,,SCT060,0.00,VWS V14.01,2013-01-09 03:08:00,
2013-01-08 22:09:00,32.3,25.9,30.32,WSW,252,0.0,0.0,77,0.00,,SCT060,0.00,VWS V14.01,2013-01-09 03:09:00,
2013-01-08 22:10:00,32.3,25.6,30.32,WSW,253,0.0,0.0,76,0.00,,SCT060,0.00,VWS V14.01,2013-01-09 03:10:00,
2013-01-08 22:11:00,32.2,25.5,30.31,WSW,253,0.0,0.0,76,0.00,,SCT060,0.00,VWS V14.01,2013-01-09 03:11:00,
2013-01-08 22:12:00,32.1,25.7,30.31,WSW,252,0.0,0.0,77,0.00,,BKN250,0.00,VWS V14.01,2013-01-09 03:12:00,
2013-01-08 22:13:00,32.1,25.7,30.31,WSW,252,0.0,0.0,77,0.00,,SCT060,0.00,VWS V14.01,2013-01-09 03:13:00,
2013-01-08 22:14:00,32.1,25.7,30.31,WSW,253,0.0,0.0,77,0.00,,SCT060,0.00,VWS V14.01,2013-01-09 03:14:00,
2013-01-08 22:15:00,32.0,25.6,30.31,WSW,253,0.0,0.0,77,0.00,,SCT060,0.00,VWS V14.01,2013-01-09 03:15:00,
2013-01-08 22:16:00,32.0,25.6,30.31,WSW,253,0.0,0.0,77,0.00,,SCT060,0.00,VWS V14.01,2013-01-09 03:16:00,
2013-01-08 22:17:00,31.9,25.5,30.31,West,277,0.0,0.0,77,0.00,,BKN250,0.00,VWS V14.01,2013-01-09 03:17:00,
2013-01-08 22:18:00,31.9,25.5,30.31,West,277,0.0,0.0,77,0.00,,SCT060,0.00,VWS V14.01,2013-01-09 03:18:00,
2013-01-08 22:19:00,31.9,25.8,30.31,West,277,0.0,0.0,78,0.00,,SCT060,0.00,VWS V14.01,2013-01-09 03:19:00,
2013-01-08 22:21:00,31.8,25.7,30.31,West,277,0.0,0.0,78,0.00,,SCT060,0.00,VWS V14.01,2013-01-09 03:21:00,
2013-01-08 22:22:00,31.9,25.8,30.31,West,277,0.0,0.0,78,0.00,,BKN250,0.00,VWS V14.01,2013-01-09 03:22:00,
2013-01-08 22:23:00,31.9,25.8,30.31,West,277,0.0,0.0,78,0.00,,SCT060,0.00,VWS V14.01,2013-01-09 03:23:00,
2013-01-08 22:24:00,31.9,25.8,30.31,West,277,0.0,0.0,78,0.00,,SCT060,0.00,VWS V14.01,2013-01-09 03:24:00,
2013-01-08 22:25:00,32.0,25.9,30.31,West,277,0.0,0.0,78,0.00,,SCT060,0.00,VWS V14.01,2013-01-09 03:25:00,
2013-01-08 22:26:00,32.1,26.0,30.31,West,277,0.0,0.0,78,0.00,,SCT060,0.00,VWS V14.01,2013-01-09 03:26:00,
2013-01-08 22:27:00,32.1,26.0,30.31,West,277,0.0,0.0,78,0.00,,BKN250,0.00,VWS V14.01,2013-01-09 03:27:00,
2013-01-08 22:28:00,32.1,26.0,30.31,West,277,0.0,0.0,78,0.00,,SCT060,0.00,VWS V14.01,2013-01-09 03:28:00,
2013-01-08 22:29:00,32.1,26.0,30.31,West,277,0.0,0.0,78,0.00,,SCT060,0.00,VWS V14.01,2013-01-09 03:29:00,
2013-01-08 22:30:00,32.1,26.0,30.31,West,269,1.0,1.0,78,0.00,,SCT060,0.00,VWS V14.01,2013-01-09 03:30:00,
2013-01-08 22:31:00,32.2,26.1,30.31,West,269,0.0,1.0,78,0.00,,SCT060,0.00,VWS V14.01,2013-01-09 03:31:00,
2013-01-08 22:32:00,32.4,26.3,30.31,West,269,0.0,0.0,78,0.00,,BKN250,0.00,VWS V14.01,2013-01-09 03:32:00,
2013-01-08 22:33:00,32.4,26.3,30.31,West,269,0.0,0.0,78,0.00,,SCT060,0.00,VWS V14.01,2013-01-09 03:33:00,
2013-01-08 22:34:00,32.4,26.3,30.32,West,269,0.0,1.0,78,0.00,,SCT060,0.00,VWS V14.01,2013-01-09 03:34:00,
2013-01-08 22:35:00,32.4,26.3,30.32,West,268,0.0,0.0,78,0.00,,SCT060,0.00,VWS V14.01,2013-01-09 03:35:00,
2013-01-08 22:36:00,32.4,26.0,30.32,West,269,0.0,1.0,77,0.00,,SCT060,0.00,VWS V14.01,2013-01-09 03:36:00,
2013-01-08 22:37:00,32.4,26.3,30.32,West,269,0.0,1.0,78,0.00,,BKN250,0.00,VWS V14.01,2013-01-09 03:37:00,
2013-01-08 22:38:00,32.4,26.3,30.32,West,269,0.0,1.0,78,0.00,,SCT060,0.00,VWS V14.01,2013-01-09 03:38:00,
2013-01-08 22:39:00,32.4,26.3,30.32,West,259,0.0,0.0,78,0.00,,SCT060,0.00,VWS V14.01,2013-01-09 03:39:00,
2013-01-08 22:40:00,32.4,26.0,30.32,West,259,0.0,1.0,77,0.00,,SCT060,0.00,VWS V14.01,2013-01-09 03:40:00,
2013-01-08 22:41:00,32.4,26.0,30.32,West,259,0.0,0.0,77,0.00,,SCT060,0.00,VWS V14.01,2013-01-09 03:41:00,
2013-01-08 22:42:00,32.4,26.0,30.32,WSW,255,2.0,2.0,77,0.00,,BKN250,0.00,VWS V14.01,2013-01-09 03:42:00,
2013-01-08 22:43:00,32.4,26.0,30.32,WSW,255,2.0,2.0,77,0.00,,SCT060,0.00,VWS V14.01,2013-01-09 03:43:00,
2013-01-08 22:44:00,32.4,26.3,30.32,WSW,248,0.0,2.0,78,0.00,,SCT060,0.00,VWS V14.01,2013-01-09 03:44:00,
2013-01-08 22:45:00,32.4,26.3,30.32,WSW,248,0.0,1.0,78,0.00,,SCT060,0.00,VWS V14.01,2013-01-09 03:45:00,
2013-01-08 22:46:00,32.4,26.0,30.32,South,177,0.0,1.0,77,0.00,,SCT060,0.00,VWS V14.01,2013-01-09 03:46:00,
2013-01-08 22:47:00,32.5,26.1,30.32,SSW,203,0.0,0.0,77,0.00,,BKN250,0.00,VWS V14.01,2013-01-09 03:47:00,
2013-01-08 22:48:00,32.5,26.1,30.32,SSW,203,0.0,0.0,77,0.00,,SCT060,0.00,VWS V14.01,2013-01-09 03:48:00,
2013-01-08 22:49:00,32.5,26.1,30.32,SSW,203,0.0,0.0,77,0.00,,SCT060,0.00,VWS V14.01,2013-01-09 03:49:00,
2013-01-08 22:50:00,32.5,26.1,30.32,SSW,203,0.0,0.0,77,0.00,,SCT060,0.00,VWS V14.01,2013-01-09 03:50:00,
2013-01-08 22:51:00,32.5,26.1,30.32,SSW,203,0.0,0.0,77,0.00,,SCT060,0.00,VWS V14.01,2013-01-09 03:51:00,
2013-01-08 22:52:00,32.4,26.0,30.32,SSW,203,0.0,0.0,77,0.00,,BKN250,0.00,VWS V14.01,2013-01-09 03:52:00,
2013-01-08 22:53:00,32.4,26.0,30.32,SSW,203,0.0,0.0,77,0.00,,SCT060,0.00,VWS V14.01,2013-01-09 03:53:00,
2013-01-08 22:54:00,32.4,26.0,30.32,SSW,203,0.0,0.0,77,0.00,,SCT060,0.00,VWS V14.01,2013-01-09 03:54:00,
2013-01-08 22:55:00,32.4,26.0,30.32,SSW,203,0.0,0.0,77,0.00,,SCT060,0.00,VWS V14.01,2013-01-09 03:55:00,
2013-01-08 22:56:00,32.4,26.0,30.32,SSW,203,0.0,0.0,77,0.00,,SCT060,0.00,VWS V14.01,2013-01-09 03:56:00,
2013-01-08 22:57:00,32.4,26.0,30.32,SSW,203,0.0,0.0,77,0.00,,BKN250,0.00,VWS V14.01,2013-01-09 03:57:00,
2013-01-08 22:58:00,32.4,26.0,30.32,SSW,203,0.0,0.0,77,0.00,,SCT060,0.00,VWS V14.01,2013-01-09 03:58:00,
2013-01-08 22:59:00,32.4,26.0,30.32,SSW,203,0.0,0.0,77,0.00,,SCT060,0.00,VWS V14.01,2013-01-09 03:59:00,
2013-01-08 23:00:00,32.3,25.9,30.32,West,266,0.0,0.0,77,0.00,,SCT060,0.00,VWS V14.01,2013-01-09 04:00:00,
2013-01-08 23:01:00,32.3,25.9,30.32,West,266,0.0,0.0,77,0.00,,SCT060,0.00,VWS V14.01,2013-01-09 04:01:00,
2013-01-08 23:02:00,32.3,25.9,30.32,West,266,0.0,0.0,77,0.00,,BKN250,0.00,VWS V14.01,2013-01-09 04:02:00,
2013-01-08 23:03:00,32.3,25.9,30.32,West,266,0.0,0.0,77,0.00,,SCT060,0.00,VWS V14.01,2013-01-09 04:03:00,
2013-01-08 23:04:00,32.3,25.9,30.32,West,266,0.0,0.0,77,0.00,,SCT060,0.00,VWS V14.01,2013-01-09 04:04:00,
2013-01-08 23:05:00,32.4,26.0,30.32,West,266,0.0,0.0,77,0.00,,SCT060,0.00,VWS V14.01,2013-01-09 04:05:00,
2013-01-08 23:06:00,32.3,25.9,30.32,West,266,0.0,0.0,77,0.00,,SCT060,0.00,VWS V14.01,2013-01-09 04:06:00,
2013-01-08 23:07:00,32.3,25.9,30.32,West,266,0.0,0.0,77,0.00,,BKN250,0.00,VWS V14.01,2013-01-09 04:07:00,
2013-01-08 23:08:00,32.3,25.9,30.32,West,266,0.0,0.0,77,0.00,,SCT060,0.00,VWS V14.01,2013-01-09 04:08:00,
2013-01-08 23:09:00,32.3,25.9,30.32,West,266,0.0,0.0,77,0.00,,SCT060,0.00,VWS V14.01,2013-01-09 04:09:00,
2013-01-08 23:10:00,32.3,25.9,30.32,West,266,0.0,0.0,77,0.00,,SCT060,0.00,VWS V14.01,2013-01-09 04:10:00,
2013-01-08 23:11:00,32.2,25.8,30.32,West,266,0.0,0.0,77,0.00,,SCT060,0.00,VWS V14.01,2013-01-09 04:11:00,
2013-01-08 23:12:00,32.2,25.8,30.32,West,266,0.0,0.0,77,0.00,,BKN250,0.00,VWS V14.01,2013-01-09 04:12:00,
2013-01-08 23:13:00,32.2,25.8,30.32,West,266,0.0,0.0,77,0.00,,SCT060,0.00,VWS V14.01,2013-01-09 04:13:00,
2013-01-08 23:14:00,32.1,25.7,30.32,West,266,0.0,0.0,77,0.00,,SCT060,0.00,VWS V14.01,2013-01-09 04:14:00,
2013-01-08 23:15:00,32.0,25.6,30.32,West,266,0.0,0.0,77,0.00,,SCT060,0.00,VWS V14.01,2013-01-09 04:15:00,
2013-01-08 23:16:00,32.0,25.6,30.33,West,266,0.0,0.0,77,0.00,,SCT060,0.00,VWS V14.01,2013-01-09 04:16:00,
2013-01-08 23:17:00,31.9,25.5,30.33,West,266,0.0,0.0,77,0.00,,BKN250,0.00,VWS V14.01,2013-01-09 04:17:00,
2013-01-08 23:18:00,31.9,25.5,30.33,West,266,0.0,0.0,77,0.00,,SCT060,0.00,VWS V14.01,2013-01-09 04:18:00,
2013-01-08 23:19:00,31.9,25.5,30.33,West,266,0.0,0.0,77,0.00,,SCT060,0.00,VWS V14.01,2013-01-09 04:19:00,
2013-01-08 23:20:00,31.8,25.4,30.32,West,266,0.0,0.0,77,0.00,,SCT060,0.00,VWS V14.01,2013-01-09 04:20:00,
2013-01-08 23:21:00,31.8,25.4,30.32,West,266,0.0,0.0,77,0.00,,SCT060,0.00,VWS V14.01,2013-01-09 04:21:00,
2013-01-08 23:22:00,31.8,25.7,30.32,West,266,0.0,0.0,78,0.00,,BKN250,0.00,VWS V14.01,2013-01-09 04:22:00,
2013-01-08 23:23:00,31.8,25.7,30.32,West,266,0.0,0.0,78,0.00,,SCT060,0.00,VWS V14.01,2013-01-09 04:23:00,
2013-01-08 23:24:00,31.7,25.6,30.32,West,266,0.0,0.0,78,0.00,,SCT060,0.00,VWS V14.01,2013-01-09 04:24:00,
2013-01-08 23:25:00,31.7,25.6,30.32,West,266,0.0,0.0,78,0.00,,SCT060,0.00,VWS V14.01,2013-01-09 04:25:00,
2013-01-08 23:26:00,31.6,25.5,30.32,West,266,0.0,0.0,78,0.00,,SCT060,0.00,VWS V14.01,2013-01-09 04:26:00,
2013-01-08 23:27:00,31.6,25.5,30.33,West,266,0.0,0.0,78,0.00,,BKN250,0.00,VWS V14.01,2013-01-09 04:27:00,
2013-01-08 23:28:00,31.6,25.5,30.33,West,266,0.0,0.0,78,0.00,,SCT060,0.00,VWS V14.01,2013-01-09 04:28:00,
2013-01-08 23:29:00,31.6,25.5,30.33,West,266,0.0,0.0,78,0.00,,SCT060,0.00,VWS V14.01,2013-01-09 04:29:00,
2013-01-08 23:30:00,31.5,25.8,30.33,West,266,0.0,0.0,79,0.00,,SCT060,0.00,VWS V14.01,2013-01-09 04:30:00,
2013-01-08 23:31:00,31.5,25.8,30.33,West,266,0.0,0.0,79,0.00,,SCT060,0.00,VWS V14.01,2013-01-09 04:31:00,
2013-01-08 23:32:00,31.4,25.6,30.33,West,266,0.0,0.0,79,0.00,,BKN250,0.00,VWS V14.01,2013-01-09 04:32:00,
2013-01-08 23:33:00,31.4,25.6,30.33,West,266,0.0,0.0,79,0.00,,SCT060,0.00,VWS V14.01,2013-01-09 04:33:00,
2013-01-08 23:34:00,31.4,25.6,30.33,West,265,0.0,0.0,79,0.00,,SCT060,0.00,VWS V14.01,2013-01-09 04:34:00,
2013-01-08 23:35:00,31.4,25.6,30.33,West,266,0.0,0.0,79,0.00,,SCT060,0.00,VWS V14.01,2013-01-09 04:35:00,
2013-01-08 23:36:00,31.3,25.6,30.33,West,266,0.0,0.0,79,0.00,,SCT060,0.00,VWS V14.01,2013-01-09 04:36:00,
2013-01-08 23:37:00,31.3,25.6,30.33,West,266,0.0,0.0,79,0.00,,BKN250,0.00,VWS V14.01,2013-01-09 04:37:00,
2013-01-08 23:38:00,31.3,25.6,30.33,West,266,0.0,0.0,79,0.00,,SCT060,0.00,VWS V14.01,2013-01-09 04:38:00,
2013-01-08 23:39:00,31.2,25.5,30.33,West,266,0.0,0.0,79,0.00,,SCT060,0.00,VWS V14.01,2013-01-09 04:39:00,
2013-01-08 23:40:00,31.2,25.5,30.33,West,266,0.0,0.0,79,0.00,,SCT060,0.00,VWS V14.01,2013-01-09 04:40:00,
2013-01-08 23:41:00,31.2,25.5,30.32,West,266,0.0,0.0,79,0.00,,SCT060,0.00,VWS V14.01,2013-01-09 04:41:00,
2013-01-08 23:42:00,31.1,25.4,30.33,West,266,0.0,0.0,79,0.00,,BKN250,0.00,VWS V14.01,2013-01-09 04:42:00,
2013-01-08 23:43:00,31.1,25.4,30.33,West,266,0.0,0.0,79,0.00,,SCT060,0.00,VWS V14.01,2013-01-09 04:43:00,
2013-01-08 23:44:00,31.1,25.4,30.33,West,265,0.0,0.0,79,0.00,,SCT060,0.00,VWS V14.01,2013-01-09 04:44:00,
2013-01-08 23:45:00,31.0,25.3,30.33,West,266,0.0,0.0,79,0.00,,SCT060,0.00,VWS V14.01,2013-01-09 04:45:00,
2013-01-08 23:46:00,31.0,25.3,30.33,West,266,0.0,0.0,79,0.00,,SCT060,0.00,VWS V14.01,2013-01-09 04:46:00,
2013-01-08 23:47:00,31.0,25.3,30.33,West,266,0.0,0.0,79,0.00,,BKN250,0.00,VWS V14.01,2013-01-09 04:47:00,
2013-01-08 23:48:00,31.0,25.3,30.33,West,266,0.0,0.0,79,0.00,,SCT060,0.00,VWS V14.01,2013-01-09 04:48:00,
2013-01-08 23:49:00,30.9,25.2,30.33,West,266,0.0,0.0,79,0.00,,SCT060,0.00,VWS V14.01,2013-01-09 04:49:00,
2013-01-08 23:50:00,30.9,25.2,30.33,West,266,0.0,0.0,79,0.00,,SCT060,0.00,VWS V14.01,2013-01-09 04:50:00,
2013-01-08 23:51:00,30.9,25.2,30.33,West,266,0.0,0.0,79,0.00,,SCT060,0.00,VWS V14.01,2013-01-09 04:51:00,
2013-01-08 23:52:00,30.9,25.2,30.33,West,266,0.0,0.0,79,0.00,,BKN250,0.00,VWS V14.01,2013-01-09 04:52:00,
2013-01-08 23:53:00,30.9,25.2,30.33,West,266,0.0,0.0,79,0.00,,SCT060,0.00,VWS V14.01,2013-01-09 04:53:00,
2013-01-08 23:54:00,30.9,25.2,30.33,West,266,0.0,0.0,79,0.00,,SCT060,0.00,VWS V14.01,2013-01-09 04:54:00,
2013-01-08 23:55:00,30.8,25.1,30.33,West,266,0.0,0.0,79,0.00,,SCT060,0.00,VWS V14.01,2013-01-09 04:55:00,
2013-01-08 23:56:00,30.8,25.1,30.33,West,266,0.0,0.0,79,0.00,,SCT060,0.00,VWS V14.01,2013-01-09 04:56:00,
2013-01-08 23:57:00,30.8,25.1,30.33,West,266,0.0,0.0,79,0.00,,BKN250,0.00,VWS V14.01,2013-01-09 04:57:00,
2013-01-08 23:58:00,30.8,25.1,30.33,West,266,0.0,0.0,79,0.00,,SCT060,0.00,VWS V14.01,2013-01-09 04:58:00,
2013-01-08 23:59:00,30.7,25.0,30.33,West,266,0.0,0.0,79,0.00,,SCT060,0.00,VWS V14.01,2013-01-09 04:59:00,